[[{"header":{"parameterUnit":"m.s-1","parameterCategory":1,"la1":30.6,"la2":29.2853,"lo1":-89.7004,"lo2":-87.6739,"dy":0.0162,"dx":0.0183,"nx":112,"ny":82,"refTime":"2024-07-10T18:00:00:Z","depth":0,"parameterNumber":2,"parameterNumberName":"U-component_of_WINDS"},"data":[0.0,0.0,0.0,0.0,0.0,0.0,0.0,0.0,0.0,0.0,0.0,0.0,0.0,0.0,0.0,0.0,0.0,0.0,0.0,0.0,0.0,0.0,0.0,0.0,0.0,0.0,0.0,0.0,0.0,0.0,0.0,0.0,0.0,0.0,0.0,0.0,0.0,0.0,0.0,0.0,0.0,0.0,0.0,0.0,0.0,0.0,0.0,0.0,0.0,0.0,0.0,0.0,0.0,0.0,0.0,0.0,0.0,0.0,0.0,0.0,0.0,0.0,0.0,0.0,0.0,0.0,0.0,0.0,0.0,0.0,0.0,0.0,0.0,0.0,0.0,0.0,0.0,0.0,0.0,0.0,0.0,0.0,0.0,0.0,0.0,0.0,0.0,0.0,0.0,0.0,-1.7988,-1.8108,-1.7869,-1.7687,-1.7673,-1.7473,-1.7208,-1.6815,0.0,0.0,0.0,0.0,0.0,0.0,0.0,0.0,0.0,0.0,0.0,0.0,0.0,0.0,0.0,0.0,0.0,0.0,0.0,0.0,0.0,0.0,0.0,0.0,0.0,0.0,0.0,0.0,0.0,0.0,0.0,0.0,0.0,0.0,0.0,0.0,0.0,0.0,0.0,0.0,0.0,0.0,0.0,0.0,0.0,0.0,0.0,0.0,0.0,0.0,0.0,0.0,0.0,0.0,0.0,0.0,0.0,0.0,0.0,0.0,0.0,0.0,0.0,0.0,0.0,0.0,0.0,0.0,0.0,0.0,0.0,0.0,0.0,0.0,0.0,0.0,0.0,0.0,0.0,0.0,0.0,0.0,0.0,0.0,0.0,0.0,0.0,0.0,0.0,0.0,0.0,0.0,0.0,0.0,0.0,0.0,0.0,0.0,0.0,0.0,0.0,0.0,0.0,0.0,-1.7988,-1.7794,-1.7741,-1.7658,-1.7537,-1.7042,-1.672,-1.673,0.0,0.0,0.0,0.0,0.0,0.0,0.0,0.0,0.0,0.0,0.0,0.0,0.0,0.0,0.0,0.0,0.0,0.0,0.0,0.0,0.0,0.0,0.0,0.0,0.0,0.0,0.0,0.0,0.0,0.0,0.0,0.0,0.0,0.0,0.0,0.0,0.0,0.0,0.0,0.0,0.0,0.0,0.0,0.0,0.0,0.0,0.0,0.0,0.0,0.0,0.0,0.0,0.0,0.0,0.0,0.0,0.0,0.0,0.0,0.0,0.0,0.0,0.0,0.0,0.0,0.0,0.0,0.0,0.0,0.0,0.0,0.0,0.0,0.0,0.0,0.0,0.0,0.0,0.0,0.0,0.0,0.0,0.0,0.0,0.0,0.0,0.0,0.0,0.0,0.0,0.0,0.0,0.0,0.0,0.0,0.0,0.0,0.0,0.0,0.0,0.0,0.0,0.0,-1.7892,-1.7966,-1.771,-1.7635,-1.7576,-1.7515,-1.7067,-1.6781,-1.6688,-1.6633,0.0,0.0,0.0,0.0,0.0,0.0,0.0,0.0,0.0,0.0,0.0,0.0,0.0,0.0,0.0,0.0,0.0,0.0,0.0,0.0,0.0,0.0,0.0,0.0,0.0,0.0,0.0,0.0,0.0,0.0,0.0,0.0,0.0,0.0,0.0,0.0,0.0,0.0,0.0,0.0,0.0,0.0,0.0,0.0,0.0,0.0,0.0,0.0,0.0,0.0,0.0,0.0,0.0,0.0,0.0,0.0,0.0,0.0,0.0,0.0,0.0,0.0,0.0,0.0,0.0,0.0,0.0,0.0,0.0,0.0,0.0,0.0,0.0,0.0,0.0,0.0,0.0,0.0,0.0,0.0,0.0,0.0,0.0,0.0,0.0,0.0,0.0,0.0,0.0,0.0,0.0,0.0,0.0,0.0,0.0,0.0,0.0,0.0,0.0,0.0,0.0,0.0,-1.7789,-1.7819,-1.7666,-1.7552,-1.7483,-1.7394,-1.7084,-1.6815,-1.6617,-1.634,0.0,0.0,0.0,0.0,0.0,0.0,0.0,0.0,0.0,0.0,0.0,0.0,0.0,0.0,0.0,0.0,0.0,0.0,0.0,0.0,0.0,0.0,0.0,0.0,0.0,0.0,0.0,0.0,0.0,0.0,0.0,0.0,0.0,0.0,0.0,0.0,0.0,0.0,0.0,0.0,0.0,0.0,0.0,0.0,0.0,0.0,0.0,0.0,0.0,0.0,0.0,0.0,0.0,0.0,0.0,0.0,0.0,0.0,0.0,0.0,0.0,0.0,0.0,0.0,0.0,0.0,0.0,0.0,0.0,0.0,0.0,0.0,0.0,0.0,0.0,0.0,0.0,0.0,0.0,0.0,0.0,0.0,0.0,0.0,0.0,0.0,0.0,0.0,0.0,0.0,0.0,0.0,0.0,0.0,0.0,0.0,0.0,0.0,0.0,0.0,0.0,0.0,-1.7567,-1.753,-1.753,-1.7515,-1.7362,-1.7051,-1.6789,-1.6535,-1.6348,-1.5847,0.0,0.0,0.0,0.0,0.0,0.0,0.0,0.0,0.0,0.0,0.0,0.0,0.0,0.0,0.0,0.0,0.0,0.0,0.0,0.0,0.0,0.0,0.0,0.0,0.0,0.0,0.0,0.0,0.0,0.0,0.0,0.0,0.0,0.0,0.0,0.0,0.0,0.0,0.0,0.0,0.0,0.0,0.0,0.0,0.0,0.0,0.0,0.0,0.0,0.0,0.0,0.0,0.0,0.0,0.0,0.0,0.0,0.0,0.0,0.0,0.0,0.0,0.0,0.0,0.0,0.0,0.0,0.0,0.0,0.0,0.0,0.0,0.0,0.0,0.0,0.0,0.0,0.0,0.0,0.0,0.0,0.0,0.0,0.0,0.0,0.0,0.0,0.0,0.0,0.0,0.0,0.0,0.0,0.0,0.0,0.0,0.0,0.0,0.0,0.0,0.0,0.0,-1.7591,-1.7591,-1.7506,-1.7305,-1.7142,-1.7018,-1.6599,-1.6313,-1.6231,0.0,0.0,0.0,0.0,0.0,0.0,0.0,0.0,0.0,0.0,0.0,0.0,0.0,0.0,0.0,0.0,0.0,0.0,0.0,0.0,0.0,0.0,0.0,0.0,0.0,0.0,0.0,0.0,0.0,0.0,0.0,0.0,0.0,0.0,0.0,0.0,0.0,0.0,0.0,0.0,0.0,0.0,0.0,0.0,0.0,0.0,0.0,0.0,0.0,0.0,0.0,0.0,0.0,0.0,0.0,0.0,0.0,0.0,0.0,0.0,0.0,0.0,0.0,0.0,0.0,0.0,0.0,0.0,0.0,0.0,0.0,0.0,0.0,0.0,0.0,0.0,0.0,0.0,0.0,0.0,0.0,0.0,0.0,0.0,0.0,0.0,0.0,0.0,0.0,0.0,0.0,0.0,0.0,0.0,0.0,0.0,0.0,0.0,0.0,0.0,0.0,0.0,-1.7506,-1.748,-1.744,-1.7354,-1.7059,-1.6841,-1.6747,-1.6413,-1.6168,-1.6072,0.0,0.0,0.0,0.0,0.0,0.0,0.0,0.0,0.0,0.0,0.0,0.0,0.0,0.0,0.0,0.0,0.0,0.0,0.0,0.0,0.0,0.0,0.0,0.0,0.0,0.0,0.0,0.0,0.0,0.0,0.0,0.0,0.0,0.0,0.0,0.0,0.0,0.0,0.0,0.0,0.0,0.0,0.0,0.0,0.0,0.0,0.0,0.0,0.0,0.0,0.0,0.0,0.0,0.0,0.0,0.0,0.0,0.0,0.0,0.0,0.0,0.0,0.0,0.0,0.0,0.0,0.0,0.0,0.0,0.0,0.0,0.0,0.0,0.0,0.0,0.0,0.0,0.0,0.0,0.0,0.0,0.0,0.0,0.0,0.0,0.0,0.0,0.0,0.0,0.0,0.0,0.0,0.0,0.0,0.0,0.0,0.0,0.0,0.0,0.0,0.0,0.0,-1.7483,-1.7191,-1.6993,-1.6993,-1.6771,-1.6482,-1.6223,-1.6203,-1.6072,0.0,0.0,0.0,0.0,0.0,0.0,0.0,0.0,0.0,0.0,0.0,0.0,0.0,0.0,0.0,0.0,0.0,0.0,0.0,0.0,0.0,0.0,0.0,0.0,0.0,0.0,0.0,0.0,0.0,0.0,0.0,0.0,0.0,0.0,0.0,0.0,0.0,0.0,0.0,0.0,0.0,0.0,0.0,0.0,0.0,0.0,0.0,0.0,0.0,0.0,0.0,0.0,0.0,0.0,0.0,0.0,0.0,0.0,0.0,0.0,0.0,0.0,0.0,0.0,0.0,0.0,0.0,0.0,0.0,0.0,0.0,0.0,0.0,0.0,0.0,0.0,0.0,0.0,0.0,0.0,0.0,0.0,0.0,0.0,0.0,0.0,0.0,0.0,0.0,0.0,0.0,0.0,0.0,0.0,0.0,0.0,0.0,0.0,0.0,0.0,0.0,0.0,0.0,-1.7158,-1.69,-1.672,-1.672,-1.6474,-1.6285,-1.6203,-1.6024,-1.587,-1.5799,0.0,0.0,0.0,0.0,0.0,0.0,0.0,0.0,0.0,0.0,0.0,0.0,0.0,0.0,0.0,0.0,0.0,0.0,0.0,0.0,0.0,0.0,0.0,0.0,0.0,0.0,0.0,0.0,0.0,0.0,0.0,0.0,0.0,0.0,0.0,0.0,0.0,0.0,0.0,0.0,0.0,0.0,0.0,0.0,0.0,0.0,0.0,0.0,0.0,0.0,0.0,0.0,0.0,0.0,0.0,0.0,0.0,0.0,0.0,0.0,0.0,0.0,0.0,0.0,0.0,0.0,0.0,0.0,0.0,0.0,0.0,0.0,0.0,0.0,0.0,0.0,0.0,0.0,0.0,0.0,0.0,0.0,0.0,0.0,0.0,0.0,0.0,0.0,0.0,0.0,0.0,0.0,0.0,0.0,0.0,0.0,0.0,0.0,0.0,0.0,0.0,0.0,-1.6841,-1.6615,-1.6448,-1.6448,-1.6211,-1.6052,-1.6052,-1.5805,-1.5639,-1.5639,0.0,0.0,0.0,0.0,0.0,0.0,0.0,0.0,0.0,0.0,0.0,0.0,0.0,0.0,0.0,0.0,0.0,0.0,0.0,0.0,0.0,0.0,0.0,0.0,0.0,0.0,0.0,0.0,0.0,0.0,0.0,0.0,0.0,0.0,0.0,0.0,0.0,0.0,0.0,0.0,0.0,0.0,0.0,0.0,0.0,0.0,0.0,0.0,0.0,0.0,0.0,0.0,0.0,0.0,0.0,0.0,0.0,0.0,0.0,0.0,0.0,0.0,0.0,0.0,0.0,0.0,0.0,0.0,0.0,0.0,0.0,0.0,0.0,0.0,0.0,0.0,0.0,0.0,0.0,0.0,0.0,0.0,0.0,0.0,0.0,0.0,0.0,0.0,0.0,0.0,0.0,0.0,0.0,0.0,0.0,0.0,0.0,0.0,0.0,0.0,0.0,0.0,-1.6562,-1.634,-1.6148,-1.6148,-1.5955,-1.5799,-1.5799,-1.5544,-1.5389,-1.5418,0.0,0.0,0.0,0.0,0.0,0.0,0.0,0.0,0.0,0.0,0.0,0.0,0.0,0.0,0.0,0.0,0.0,0.0,0.0,0.0,0.0,0.0,0.0,0.0,0.0,0.0,0.0,0.0,0.0,0.0,0.0,0.0,0.0,0.0,0.0,0.0,0.0,0.0,0.0,0.0,0.0,0.0,0.0,0.0,0.0,0.0,0.0,0.0,0.0,0.0,0.0,0.0,0.0,0.0,0.0,0.0,0.0,0.0,0.0,0.0,-1.5229,0.0,0.0,0.0,0.0,0.0,0.0,0.0,0.0,0.0,0.0,0.0,0.0,0.0,0.0,0.0,0.0,0.0,0.0,0.0,0.0,0.0,0.0,0.0,0.0,0.0,0.0,0.0,0.0,0.0,0.0,0.0,0.0,0.0,0.0,0.0,0.0,0.0,0.0,0.0,0.0,0.0,-1.6285,-1.6052,-1.5877,-1.5877,-1.582,-1.5835,-1.5863,-1.558,-1.5418,-1.5485,-1.4811,0.0,0.0,0.0,0.0,0.0,0.0,0.0,0.0,0.0,0.0,0.0,0.0,0.0,0.0,0.0,0.0,0.0,0.0,0.0,0.0,0.0,0.0,0.0,0.0,0.0,0.0,0.0,0.0,0.0,0.0,0.0,0.0,0.0,0.0,0.0,0.0,0.0,0.0,0.0,0.0,0.0,0.0,0.0,0.0,0.0,0.0,0.0,0.0,0.0,0.0,0.0,0.0,0.0,0.0,0.0,0.0,0.0,0.0,0.0,0.0,-1.5452,0.0,0.0,0.0,0.0,0.0,0.0,0.0,0.0,0.0,0.0,0.0,0.0,0.0,0.0,0.0,0.0,0.0,0.0,0.0,0.0,0.0,0.0,0.0,0.0,0.0,0.0,0.0,0.0,0.0,0.0,0.0,0.0,0.0,0.0,0.0,0.0,0.0,0.0,0.0,0.0,-1.64,-1.6094,-1.5984,-1.63,-1.6052,-1.5664,-1.527,-1.5199,-1.4975,-1.4584,-1.4325,0.0,0.0,0.0,0.0,0.0,0.0,0.0,0.0,0.0,0.0,0.0,0.0,0.0,0.0,0.0,0.0,0.0,0.0,0.0,0.0,0.0,0.0,0.0,0.0,0.0,0.0,0.0,0.0,0.0,0.0,0.0,0.0,0.0,0.0,0.0,0.0,0.0,0.0,0.0,0.0,0.0,0.0,0.0,0.0,0.0,0.0,0.0,0.0,0.0,0.0,0.0,0.0,0.0,-1.6131,-1.6095,-1.6095,-1.6067,-1.5883,-1.5631,-1.5573,-1.5573,-1.5609,-1.5491,0.0,0.0,0.0,0.0,0.0,0.0,0.0,0.0,0.0,0.0,0.0,0.0,0.0,0.0,0.0,0.0,0.0,0.0,0.0,0.0,0.0,0.0,0.0,0.0,-1.5418,-1.5425,0.0,0.0,0.0,0.0,0.0,0.0,0.0,0.0,0.0,0.0,0.0,0.0,-1.6644,-1.6413,-1.6375,-1.6773,-1.6301,-1.5555,-1.4508,-1.4564,-1.43,-1.342,-1.3671,-1.3846,0.0,0.0,0.0,0.0,0.0,0.0,0.0,0.0,0.0,0.0,0.0,0.0,0.0,0.0,0.0,0.0,0.0,0.0,0.0,0.0,0.0,0.0,0.0,0.0,0.0,0.0,0.0,0.0,0.0,0.0,0.0,0.0,-1.3809,-1.4027,0.0,0.0,0.0,0.0,0.0,0.0,0.0,0.0,0.0,0.0,0.0,0.0,0.0,-1.6102,-1.6194,-1.6194,-1.6194,-1.6194,-1.5904,-1.5775,-1.5746,-1.5521,-1.5374,-1.5352,-1.5065,0.0,-1.5395,-1.5819,0.0,0.0,0.0,0.0,0.0,0.0,0.0,0.0,0.0,0.0,0.0,0.0,0.0,0.0,0.0,0.0,0.0,0.0,0.0,0.0,0.0,0.0,-1.5336,-1.5336,-1.5306,-1.5313,0.0,-1.6038,-1.6753,-1.7307,-1.7471,0.0,0.0,0.0,0.0,0.0,0.0,0.0,-1.6704,-1.7137,-1.7217,-1.6531,-1.632,-1.5686,-1.4277,-1.3866,-1.3458,-1.2914,-1.3034,-1.3192,-1.3311,-1.3702,0.0,0.0,0.0,0.0,0.0,0.0,0.0,0.0,0.0,0.0,0.0,0.0,0.0,0.0,0.0,0.0,0.0,0.0,0.0,0.0,0.0,0.0,0.0,0.0,0.0,0.0,0.0,0.0,0.0,-1.2977,-1.3897,-1.4708,-1.5142,-1.5292,0.0,0.0,0.0,0.0,0.0,0.0,0.0,0.0,0.0,-1.6179,-1.6194,-1.6371,-1.6755,-1.6529,-1.6426,-1.6471,-1.6091,-1.5778,-1.5463,-1.5344,-1.5209,-1.5004,-1.4856,-1.477,-1.477,-1.5079,-1.5287,-1.5434,0.0,0.0,0.0,0.0,-1.5995,-1.616,-1.7273,-1.7312,0.0,-1.7242,0.0,0.0,0.0,0.0,0.0,0.0,0.0,0.0,0.0,0.0,-1.5313,-1.5313,-1.5313,-1.5377,-1.5576,-1.5873,-1.626,0.0,-1.7552,-1.7755,-1.6891,0.0,0.0,0.0,0.0,-1.7334,-1.7467,-1.743,-1.7334,-1.7109,-1.6417,-1.5378,-1.3894,-1.3567,-1.2993,-1.1959,-1.2598,-1.3017,-1.3092,-1.3461,-1.3735,0.0,0.0,0.0,0.0,0.0,0.0,0.0,0.0,0.0,0.0,0.0,0.0,0.0,0.0,0.0,0.0,0.0,0.0,0.0,0.0,0.0,0.0,0.0,0.0,0.0,0.0,0.0,0.0,-1.359,-1.4344,-1.545,-1.5799,-1.5873,0.0,0.0,0.0,0.0,0.0,0.0,-1.6399,-1.6588,-1.6709,-1.668,-1.6709,-1.691,-1.7311,-1.7014,-1.6843,-1.6781,-1.6413,-1.5934,-1.5386,-1.5317,-1.5053,-1.4676,-1.4676,-1.4639,-1.459,-1.4653,-1.4871,-1.5124,-1.5162,-1.5301,-1.5542,-1.6014,-1.6156,-1.6239,-1.7409,-1.7412,-1.6917,-1.7121,0.0,-1.6393,-1.6045,0.0,0.0,0.0,0.0,-1.4809,-1.5347,-1.526,-1.5025,-1.5025,-1.5025,-1.5115,-1.5442,-1.5541,-1.5762,0.0,-1.732,-1.7717,-1.6728,0.0,0.0,0.0,0.0,-1.7736,-1.7906,-1.7712,-1.7519,-1.7483,-1.6606,-1.5356,-1.3748,-1.354,-1.2891,-1.1496,-1.239,-1.2979,-1.2979,-1.3271,-1.3446,-1.3446,0.0,0.0,0.0,0.0,0.0,0.0,0.0,0.0,0.0,0.0,0.0,0.0,0.0,0.0,0.0,0.0,0.0,0.0,0.0,0.0,0.0,0.0,0.0,0.0,0.0,0.0,0.0,0.0,0.0,-1.6337,-1.6976,0.0,0.0,0.0,0.0,-1.6027,-1.6661,-1.7029,-1.6962,-1.767,-1.8076,-1.8006,-1.8076,-1.7943,-1.7585,-1.7553,-1.7357,-1.6997,-1.6718,-1.6262,-1.5672,-1.5365,-1.4889,-1.4326,-1.4326,-1.4711,-1.5338,-1.5196,-1.5305,-1.5506,-1.5606,-1.5778,-1.5974,-1.6142,-1.6213,-1.6243,-1.6624,-1.6352,-1.5829,-1.6165,-1.581,-1.5387,-1.5854,-1.523,0.0,0.0,-1.5596,-1.4577,-1.5679,-1.5148,-1.4358,-1.4358,-1.4358,-1.4358,-1.4454,-1.4867,-1.551,0.0,-1.6997,-1.716,-1.6592,0.0,-1.7259,-1.6536,-1.7033,-1.7513,-1.7548,-1.8071,-1.8082,-1.7236,-1.7006,-1.6116,-1.404,-1.3808,-1.3271,-1.204,-1.2553,-1.2917,-1.2917,-1.316,-1.3312,-1.3312,-1.3032,0.0,0.0,0.0,0.0,0.0,0.0,0.0,0.0,0.0,0.0,0.0,0.0,0.0,0.0,0.0,0.0,0.0,0.0,0.0,0.0,0.0,0.0,0.0,0.0,0.0,0.0,0.0,0.0,-1.705,-1.7332,0.0,-1.6994,-1.7199,-1.7208,-1.6931,-1.7311,-1.7607,-1.7692,-1.7975,-1.8027,-1.7782,-1.7814,-1.7861,-1.7919,-1.7661,-1.7491,-1.7391,-1.7019,-1.6539,-1.5956,-1.5815,-1.5664,-1.5467,-1.5467,-1.5624,-1.5857,-1.5815,-1.5716,-1.558,-1.5064,-1.5324,-1.5984,-1.5851,-1.6099,-1.6538,-1.6662,-1.6186,-1.556,-1.5395,-1.5427,-1.5479,-1.5355,-1.5247,-1.531,-1.581,-1.5501,-1.5067,-1.5362,-1.5107,-1.4735,-1.4382,-1.4293,-1.4254,-1.4123,-1.4159,-1.4305,-1.4552,-1.5804,-1.6626,-1.6116,-1.6571,-1.6761,-1.6095,-1.6585,-1.7041,-1.7157,-1.7405,-1.7443,-1.719,-1.6811,-1.6156,-1.5043,-1.4247,-1.3441,-1.2638,-1.2775,-1.2886,-1.2886,-1.286,-1.2842,-1.2842,-1.2407,-1.2336,0.0,0.0,0.0,0.0,0.0,0.0,0.0,0.0,0.0,0.0,0.0,0.0,0.0,0.0,0.0,0.0,0.0,0.0,0.0,0.0,0.0,0.0,0.0,0.0,0.0,0.0,-1.6951,-1.7448,-1.7402,-1.7224,-1.696,-1.7313,-1.7423,-1.7178,-1.7828,-1.8241,-1.8353,-1.8663,-1.8672,-1.8235,-1.8276,-1.8285,-1.8236,-1.7977,-1.7789,-1.7682,-1.7441,-1.6987,-1.641,-1.641,-1.6301,-1.6111,-1.6111,-1.6234,-1.6396,-1.6076,-1.5969,-1.5923,-1.5155,-1.523,-1.5737,-1.5641,-1.5937,-1.6367,-1.6295,-1.5855,-1.5266,-1.498,-1.5161,-1.5385,-1.5203,-1.5272,-1.5497,-1.5722,-1.5524,-1.5188,-1.5076,-1.4904,-1.4614,-1.4066,-1.3934,-1.3888,-1.3742,-1.3648,-1.352,-1.3486,-1.4729,-1.5714,-1.5421,-1.5896,-1.6158,-1.5744,-1.6005,-1.6325,-1.6456,-1.6646,-1.681,-1.6926,-1.6767,-1.6428,-1.5846,-1.4918,-1.4108,-1.35,-1.3162,-1.2987,-1.3007,-1.2756,-1.2603,-1.2603,-1.2216,-1.2216,-1.2615,0.0,0.0,0.0,0.0,0.0,0.0,0.0,0.0,0.0,0.0,0.0,0.0,0.0,0.0,0.0,0.0,0.0,0.0,0.0,0.0,0.0,0.0,0.0,-1.6437,-1.705,-1.7506,-1.7506,-1.7208,-1.6924,-1.6654,-1.7011,-1.7113,-1.6771,-1.8153,-1.9,-1.8925,-1.9772,-2.0045,-1.9486,-1.9603,-1.9266,-1.8507,-1.8468,-1.8286,-1.7882,-1.7882,-1.7577,-1.7027,-1.7027,-1.6715,-1.6172,-1.6172,-1.6491,-1.6941,-1.6115,-1.6088,-1.6532,-1.5978,-1.5603,-1.5361,-1.5522,-1.562,-1.5657,-1.5447,-1.5159,-1.4909,-1.4909,-1.4922,-1.5035,-1.553,-1.5335,-1.5186,-1.6214,-1.5743,-1.496,-1.4941,-1.4525,-1.3972,-1.3354,-1.321,-1.3239,-1.3382,-1.3307,-1.3267,-1.3478,-1.3995,-1.4374,-1.4475,-1.5002,-1.5403,-1.5366,-1.5403,0.0,-1.5392,-1.5938,-1.6343,-1.6362,-1.6846,-1.6957,-1.6434,-1.5763,-1.5171,-1.4657,-1.3639,-1.3129,-1.3207,-1.2832,-1.2591,-1.2591,-1.2466,-1.2532,-1.2803,0.0,0.0,0.0,0.0,0.0,0.0,0.0,0.0,0.0,0.0,0.0,0.0,0.0,0.0,0.0,0.0,0.0,0.0,0.0,0.0,0.0,-1.7118,-1.7756,-1.7283,-1.7382,-1.7506,-1.7506,-1.7623,-1.7628,-1.7338,-1.8083,-1.8469,-1.8164,-1.8976,-1.9527,-1.9569,-1.96,-1.9464,-1.9088,-1.8914,-1.8584,-1.8069,-1.8069,-1.7989,-1.7882,-1.7882,-1.7794,-1.7638,-1.7638,-1.755,-1.74,-1.74,-1.7356,-1.7276,-1.703,-1.6719,-1.6296,-1.553,-1.5646,-1.6152,-1.5497,-1.5266,-1.5304,-1.5018,-1.4909,-1.4909,-1.4909,-1.5141,-1.5498,-1.5649,-1.5869,-1.6132,-1.6434,-1.6296,-1.5975,-1.5574,-1.5098,-1.4544,-1.399,-1.3521,-1.3339,-1.3806,-1.3614,-1.3477,-1.3912,-1.3896,-1.3826,-1.3792,-1.3921,-1.4059,-1.4094,-1.4059,0.0,-1.4752,-1.49,-1.5142,-1.5626,-1.6074,-1.6305,-1.6256,-1.5478,-1.491,-1.4834,-1.3501,-1.2919,-1.3338,-1.2955,-1.2698,-1.2541,-1.2622,-1.2636,0.0,0.0,0.0,0.0,0.0,0.0,0.0,0.0,0.0,0.0,0.0,0.0,0.0,0.0,0.0,0.0,0.0,0.0,0.0,0.0,0.0,0.0,-1.7541,-1.8046,-1.793,-1.7689,-1.7614,-1.7888,-1.787,-1.79,-1.804,-1.8577,-1.8883,-1.8702,-1.9394,-1.9841,-1.9884,-1.9669,-1.9354,-1.8997,-1.8655,-1.8326,-1.7882,-1.7882,-1.7882,-1.7882,-1.7882,-1.7882,-1.7882,-1.7882,-1.7882,0.0,-1.7747,-1.7577,-1.7399,-1.7144,-1.6759,0.0,0.0,0.0,0.0,0.0,-1.5602,-1.5602,-1.5411,-1.5377,-1.5446,-1.5527,-1.574,-1.6003,-1.6045,-1.6264,-1.6515,-1.6515,-1.6515,-1.6396,-1.5837,-1.5454,-1.5117,-1.4563,-1.4186,-1.4041,-1.4393,-1.4319,-1.4179,-1.4281,-1.4154,0.0,-1.3667,-1.3797,-1.3971,-1.399,-1.4121,-1.4343,-1.4527,-1.4666,-1.4919,-1.5385,-1.5841,-1.6137,-1.619,-1.5518,0.0,0.0,0.0,-1.3103,-1.3423,-1.3224,0.0,0.0,0.0,0.0,0.0,0.0,0.0,0.0,-1.3778,-1.4009,0.0,0.0,0.0,0.0,0.0,0.0,0.0,0.0,0.0,0.0,0.0,0.0,0.0,0.0,0.0,0.0,-1.7599,-1.7789,-1.8294,-1.7839,-1.7707,-1.8466,-1.8145,-1.8074,-1.8696,-1.8776,-1.8814,-1.8814,-1.9474,-1.9891,-1.9891,0.0,0.0,0.0,0.0,-1.8247,-1.7882,-1.7882,-1.7882,-1.7882,-1.7882,-1.7882,-1.7835,-1.7835,-1.7835,-1.7754,-1.7488,-1.731,-1.7227,-1.6723,-1.6479,-1.6429,-1.6374,-1.6201,-1.6044,-1.6188,-1.6237,-1.6237,-1.6237,0.0,0.0,-1.6355,-1.6399,-1.6399,-1.6479,-1.6515,-1.6515,-1.6515,-1.6515,-1.6402,-1.5913,-1.5743,-1.5574,-1.5117,-1.4953,-1.4922,-1.4985,-1.5012,-1.4897,-1.4542,-1.4466,-1.4323,-1.397,-1.423,-1.4481,-1.4441,-1.4833,-1.4973,-1.4511,-1.4815,-1.5114,-1.5298,0.0,0.0,-1.6023,-1.5633,-1.5346,-1.5329,-1.4145,-1.3437,-1.3532,-1.3565,-1.3653,-1.3784,-1.3819,-1.3837,-1.3807,-1.3941,-1.4092,-1.4339,-1.4557,-1.4466,0.0,0.0,0.0,0.0,0.0,0.0,0.0,0.0,0.0,0.0,0.0,0.0,0.0,0.0,0.0,-1.7983,-1.8126,-1.8162,-1.7748,-1.7363,-1.7563,-1.8819,-1.9172,-1.9225,-1.9049,-1.9334,-1.9503,-1.9503,-1.9361,-1.9288,-1.9288,-1.8655,-1.8298,-1.8226,-1.7975,-1.7835,-1.772,-1.7842,-1.7882,-1.7882,0.0,0.0,-1.7488,-1.7488,-1.7365,-1.7086,-1.6996,-1.6814,-1.6533,-1.6509,-1.6343,-1.6126,-1.6306,-1.6312,-1.6188,-1.6312,-1.6355,-1.6355,-1.6355,-1.6355,-1.6355,-1.6436,-1.6436,-1.6399,-1.6479,-1.6515,0.0,-1.6515,-1.6515,-1.6497,-1.6384,-1.6032,-1.5668,-1.5561,-1.4919,-1.4483,-1.489,-1.4438,-1.4029,-1.4368,-1.4222,-1.4098,-1.4398,-1.4157,-1.3972,-1.4011,-1.4068,-1.4098,-1.4165,-1.4113,-1.4094,-1.4201,-1.4641,-1.4965,-1.5061,-1.4687,-1.443,-1.4456,-1.3832,-1.3537,-1.3669,-1.4032,-1.4054,-1.3723,-1.3863,-1.3741,-1.3352,-1.4132,-1.4588,-1.4624,-1.4448,-1.471,0.0,0.0,0.0,0.0,0.0,0.0,0.0,0.0,0.0,0.0,0.0,-1.6899,-1.7202,0.0,-1.8118,-1.8063,-1.7891,-1.7764,-1.7797,-1.7646,-1.7819,-1.8513,-1.8517,-1.8509,-1.8684,-1.8702,-1.8702,-1.8702,-1.8677,-1.8644,-1.8644,-1.8271,-1.8047,-1.8047,-1.7821,-1.7686,-1.7686,-1.7842,-1.7882,-1.7882,-1.7747,-1.757,-1.7399,-1.724,-1.708,-1.6882,-1.6686,-1.6503,-1.6269,-1.6207,-1.6044,-1.5913,-1.6132,-1.6175,-1.6094,-1.6175,-1.6225,-1.6269,-1.6219,-1.6225,-1.6318,-1.6436,-1.6399,-1.6318,-1.6436,-1.6436,-1.6436,-1.6436,-1.6479,-1.6515,-1.6515,-1.6314,-1.6107,-1.6107,-1.5782,-1.5456,-1.5484,-1.5151,-1.4776,-1.4605,-1.4401,-1.431,-1.4311,-1.4066,-1.3989,-1.4263,-1.4535,-1.4659,-1.4529,-1.4323,-1.4234,-1.4399,-1.46,-1.4723,-1.4808,-1.4661,-1.4457,-1.4216,-1.3962,-1.3887,-1.3938,-1.4201,-1.4218,-1.404,-1.4159,-1.4122,-1.3965,-1.4608,-1.4949,-1.5118,-1.5084,-1.5127,0.0,0.0,0.0,0.0,0.0,0.0,0.0,0.0,-1.4457,-1.5096,-1.617,-1.725,-1.8042,-1.7684,-1.7447,-1.7925,-1.7436,-1.722,-1.7803,-1.7684,-1.7543,-1.7543,-1.7449,-1.7615,-1.813,-1.7891,-1.769,-1.769,-1.7815,-1.7941,-1.8071,-1.7876,-1.7838,-1.7907,-1.7767,-1.7631,-1.7556,-1.7713,-1.7754,-1.7713,-1.7447,-1.7269,-1.7179,-1.6899,-1.6742,-1.6663,-1.6331,-1.6232,-1.6232,-1.5957,-1.583,-1.583,-1.5951,-1.5994,-1.5951,-1.6038,-1.61,-1.6194,-1.6094,-1.6088,-1.6194,-1.6355,-1.6318,-1.6237,-1.6355,-1.6349,-1.63,-1.63,-1.6256,-1.6207,-1.6207,-1.6207,-1.6207,-1.6207,-1.6262,-1.6132,-1.5768,-1.565,-1.5398,-1.4652,-1.4525,-1.4398,-1.401,-1.3973,-1.4109,-1.4528,-1.5004,-1.5165,-1.4789,-1.4607,-1.4563,-1.473,-1.4699,-1.4699,-1.4705,-1.4721,-1.4588,-1.4217,-1.4176,-1.4181,-1.4222,-1.4222,-1.4274,-1.4378,-1.4378,-1.4471,-1.4656,-1.4886,-1.5147,-1.5418,-1.5546,-1.5419,-0.447,-0.6246,-0.8202,-0.9534,-1.0504,-1.147,0.0,-1.3703,-1.4543,-1.609,-1.6522,-1.6863,-1.7617,-1.7661,-1.7573,-1.765,-1.7279,-1.7017,-1.7098,-1.6206,-1.5513,-1.5513,-1.7101,-1.8068,-1.7779,-1.773,-1.769,-1.769,-1.7112,-1.7008,-1.755,-1.6957,-1.681,-1.7297,-1.7434,-1.7365,-1.7086,-1.7323,-1.7323,-1.7002,-1.696,-1.6772,-1.6398,-1.6361,-1.6201,-1.5925,-1.5881,-1.5913,-1.6032,-1.5994,-1.5994,-1.5994,-1.5994,-1.5913,-1.5836,-1.6106,-1.62,-1.62,-1.6194,-1.61,-1.6038,-1.6306,-1.6318,-1.6237,-1.6436,-1.6201,-1.5882,-1.5882,-1.5585,-1.5244,-1.5244,-1.5244,-1.5244,-1.5244,-1.4966,-1.4645,-1.4605,-1.4222,-1.3836,-1.3747,-1.3805,-1.3858,-1.3663,-1.3821,-1.3999,-1.4081,-1.4118,-1.4217,-1.4286,-1.4152,-1.4111,-1.428,-1.4275,-1.4326,-1.4429,-1.4206,-1.415,-1.4181,-1.4098,-1.4098,-1.4222,-1.4222,-1.4274,-1.4378,-1.4378,-1.4425,-1.4425,-1.4656,-1.488,-1.5142,-1.4911,-1.5128,-0.5182,-0.6654,-0.7988,-0.9387,-1.0466,-1.1609,-1.3052,-1.376,-1.4522,-1.5986,-1.6295,-1.6439,-1.6804,-1.686,-1.6892,0.0,-1.6884,-1.662,-1.6239,-1.5755,-1.5158,-1.4476,-1.5497,-1.6199,-1.6017,-1.6017,-1.6174,-1.6555,-1.6225,-1.6137,-1.6369,-1.6411,-1.636,-1.6255,-1.6754,-1.685,-1.6429,-1.6723,-1.6808,-1.6674,-1.6588,-1.6454,-1.6269,-1.6113,-1.5913,-1.5792,-1.5792,-1.5836,-1.5875,-1.5875,-1.5875,-1.5875,-1.5597,-1.5418,-1.543,-1.5836,-1.583,-1.5686,-1.5686,-1.5496,-1.5254,-1.5389,-1.535,-1.5355,-1.5433,-1.5389,-1.526,-1.526,-1.5181,-1.5108,-1.5108,-1.5108,-1.5108,-1.5108,-1.4971,-1.4743,-1.4471,-1.4233,-1.3952,-1.3663,-1.3668,-1.3668,-1.3621,-1.3668,-1.3768,-1.3768,-1.3921,-1.4015,-1.4098,-1.4015,-1.4015,-1.4098,-1.4098,-1.4104,-1.415,-1.4062,-1.401,-1.3952,-1.391,-1.391,-1.3952,-1.4051,-1.4145,-1.4274,-1.4065,-1.398,-1.398,-1.3938,-1.3923,-1.4053,-1.4541,-1.492,-0.5459,-0.6538,-0.7307,-0.8775,-0.9836,-1.0876,-1.2222,-1.2906,-1.3557,-1.4733,-1.5101,-1.5327,-1.5708,-1.5956,-1.6223,-1.6564,-1.6475,-1.6217,-1.5685,-1.5209,-1.4622,-1.389,-1.4064,-1.4378,-1.4752,-1.4892,-1.5134,-1.5638,-1.5403,-1.5299,-1.5459,-1.5901,-1.5989,-1.5608,-1.6334,-1.6417,-1.5863,-1.612,-1.6244,-1.6219,-1.6145,-1.6101,-1.6151,-1.5913,-1.5792,-1.5792,-1.5653,-1.5614,-1.5614,-1.5468,-1.5373,-1.5373,-1.5006,-1.4875,-1.4915,-1.5238,-1.5226,-1.5028,-1.5028,-1.4846,-1.4617,-1.4652,-1.4652,-1.4652,-1.4749,-1.4715,-1.472,-1.4731,-1.4731,-1.4691,-1.4691,-1.4691,-1.4691,-1.4691,-1.4691,-1.4593,-1.4233,-1.4186,-1.4041,-1.3663,-1.3615,-1.3615,-1.3615,-1.3615,-1.3615,-1.3615,-1.3768,-1.3921,-1.3921,-1.3921,-1.3921,-1.3921,-1.3915,-1.3921,-1.3968,-1.402,-1.3968,-1.3868,-1.3868,-1.3868,-1.3868,-1.3821,-1.391,-1.4035,-1.3715,-1.3606,-1.3747,-1.3548,-1.3539,-1.3715,-1.4301,-1.4637,-0.4515,-0.5302,-0.5943,-0.7644,-0.8323,-0.8936,-1.0292,-1.0804,-1.1216,-1.1965,-1.2592,-1.3297,-1.4268,-1.5094,-1.585,-1.6478,-1.6214,-1.5839,-1.5638,-1.4202,-1.3328,-1.376,-1.3234,-1.3378,-1.4663,-1.508,-1.53,-1.5315,-1.4707,-1.4558,-1.5101,-1.5399,-1.5563,-1.5596,-1.6334,-1.6331,-1.5507,-1.5597,-1.5591,-1.5507,-1.5513,-1.5647,-1.5792,-1.5792,-1.5792,-1.5792,-1.5334,-1.5108,-1.5062,-1.4536,-1.4346,-1.4346,-1.4346,-1.4346,-1.4346,-1.4346,-1.4346,-1.4346,-1.4346,-1.4346,-1.434,-1.4463,-1.4503,-1.4549,-1.4806,-1.4588,-1.4269,-1.4373,-1.4041,-1.3663,-1.3663,-1.3663,-1.3663,-1.3663,-1.3663,-1.3663,-1.3615,-1.361,-1.3615,-1.3615,-1.3615,-1.3615,-1.3615,-1.3615,-1.3615,-1.3615,-1.3621,-1.3668,-1.3773,-1.3821,-1.3821,-1.3821,-1.3673,-1.3716,-1.3973,-1.402,-1.402,-1.3968,-1.3968,-1.3968,-1.3968,-1.3615,-1.3467,-1.3615,-1.3351,-1.3394,-1.38,-1.3784,-1.4102,-1.4652,-1.4222,-1.4264,-0.3282,-0.4349,-0.5432,-0.6989,-0.7896,-0.8689,-0.9847,-1.0576,-1.1216,-1.1874,-1.2285,-1.2941,-1.4111,-1.4539,-1.4951,-1.5573,-1.5538,-1.5111,-1.4147,-1.3512,-1.316,-1.3147,-1.3712,-1.4494,-1.5386,-1.497,0.0,-1.5263,-1.4686,-1.4382,-1.4565,-1.5144,-1.5216,-1.4633,-1.5587,-1.5662,-1.4783,-1.5102,-1.5244,-1.5244,-1.5558,-1.5564,-1.534,-1.534,-1.5142,-1.4812,-1.4628,-1.4582,-1.4536,-1.4392,-1.4299,-1.4253,-1.3978,-1.3847,-1.38,-1.3478,-1.3387,-1.3435,-1.3705,-1.3615,-1.3387,-1.3425,-1.3478,-1.3573,-1.3678,-1.3668,-1.37,-1.37,-1.3663,-1.3615,-1.3615,-1.3615,-1.3615,-1.3615,-1.3615,-1.3615,-1.3615,-1.3615,-1.3615,-1.3615,-1.3314,-1.3165,-1.3515,-1.303,-1.2638,-1.3021,-1.3362,-1.3615,-1.3668,-1.3367,-1.3165,-1.3165,-1.2779,-1.2589,-1.2691,-1.2847,-1.3035,-1.317,-1.3362,-1.3568,-1.3721,-1.3768,-1.3668,-1.3462,-1.3264,-1.3073,-1.2945,-1.264,-1.2587,-1.2804,-1.3389,-1.3812,-0.1683,-0.2723,-0.3818,-0.5471,-0.6441,-0.736,-0.8643,-0.9435,-1.0201,-1.1177,-1.1668,-1.2333,-1.3564,-1.4137,-1.4634,-1.5247,-1.5196,-1.475,-1.3819,-1.3447,-1.3251,-1.3169,-1.4326,-1.5403,-1.6054,-1.5534,0.0,-1.5744,-1.5237,-1.4796,-1.4413,-1.5115,-1.4999,-1.3865,-1.4731,-1.48,-1.386,-1.4356,-1.4756,-1.5102,-1.5236,-1.5148,-1.4832,-1.4698,-1.4423,-1.406,-1.4043,-1.4071,-1.403,-1.3889,-1.38,-1.3752,-1.3478,-1.3339,-1.3291,-1.3022,-1.2881,-1.2925,-1.3248,-1.3157,-1.2881,-1.2881,-1.2978,-1.3032,-1.3085,-1.3205,-1.3314,-1.3367,-1.3367,-1.3314,-1.3314,-1.317,-1.303,-1.303,-1.303,-1.303,-1.303,-1.303,-1.303,-1.303,-1.273,-1.2628,-1.2977,-1.2442,-1.2103,-1.2482,-1.2827,-1.3079,-1.3266,-1.3011,-1.272,-1.253,-1.2197,-1.2004,-1.2004,-1.2197,-1.2379,-1.2565,-1.2764,-1.2962,-1.3213,-1.3281,-1.3238,-1.3089,-1.2857,-1.2676,-1.2592,-1.226,-1.2162,-1.2338,-1.3071,-1.3611,0.0223,-0.0626,-0.1434,-0.3211,-0.4171,-0.5096,-0.6735,-0.7462,-0.8238,-0.9843,-1.0687,-1.1487,-1.2733,-1.3908,-1.4898,-1.5466,-1.5121,-1.4742,-1.4574,-1.39,-1.3535,0.0,0.0,-1.6032,-1.6644,-1.6672,0.0,-1.6586,0.0,-1.5622,-1.4653,-1.514,-1.4808,-1.3438,-1.3892,-1.3772,-1.2889,-1.3417,-1.4139,-1.5022,-1.4606,-1.437,-1.4261,-1.3878,-1.3674,-1.363,-1.3559,-1.3573,-1.3525,-1.3065,-1.2881,-1.2881,-1.2881,-1.2881,-1.2881,-1.2881,-1.2881,-1.2881,-1.2881,-1.2881,-1.2881,-1.2881,-1.2881,-1.2929,-1.3032,-1.3152,-1.3218,-1.3362,-1.3117,-1.2812,-1.2817,-1.2433,-1.2053,-1.2008,-1.2004,-1.2004,-1.2004,-1.2004,-1.2004,-1.2004,-1.2004,-1.2004,-1.1909,-1.1959,-1.1954,-1.1954,-1.1954,-1.2147,-1.2672,-1.272,-1.253,-1.2004,-1.1954,-1.1909,-1.1954,-1.2084,-1.2169,-1.2164,-1.2164,-1.2316,-1.257,-1.2304,-1.2224,-1.248,-1.2278,-1.2328,-1.2681,-1.2681,-1.2808,-1.3122,-1.3165,-1.3627,0.0968,-0.0245,-0.1576,-0.2664,-0.3529,-0.4425,-0.5601,-0.6665,-0.7896,-0.9511,-1.071,-1.1981,-1.3643,-1.4396,-1.4814,-1.4974,-1.4882,0.0,-1.4073,-1.3843,0.0,-1.4487,-1.5296,-1.6032,-1.6644,-1.6917,0.0,0.0,-1.5581,-1.4855,-1.4598,-1.4503,-1.4143,-1.3425,-1.3662,-1.3534,-1.2895,-1.3393,-1.3695,-1.3831,-1.4155,-1.3796,-1.2845,-1.3392,-1.3258,-1.2609,-1.2919,-1.3065,-1.3065,-1.2973,-1.2881,-1.2881,-1.2881,-1.2881,-1.2881,-1.2881,-1.2632,-1.2278,-1.2278,-1.2578,-1.2881,-1.2881,-1.2881,-1.2934,-1.2929,-1.3055,-1.3218,-1.3266,-1.3314,-1.3314,-1.2914,-1.2716,-1.2482,-1.2103,-1.2004,-1.2004,-1.2004,-1.2004,-1.2004,-1.2004,-1.2004,-1.176,-1.1015,-1.1217,-1.1469,-1.1469,-1.1469,-1.166,-1.2147,-1.1904,-1.161,-1.1469,-1.112,-1.0968,-1.1171,-1.141,-1.1606,-1.1805,-1.2008,-1.2206,-1.2442,-1.2486,-1.2491,-1.248,-1.2524,-1.2431,-1.2274,-1.2274,-1.2323,-1.2412,-1.2754,-1.3127,0.2477,0.127,-0.0052,-0.132,-0.2407,-0.3481,-0.4751,-0.6228,-0.7754,-0.9376,-1.0906,-1.2329,-1.3588,-1.471,-1.5438,0.0,0.0,0.0,-1.4826,-1.4532,-1.4475,-1.4779,-1.5628,-1.6346,-1.6682,-1.6852,-1.6835,0.0,-1.5753,-1.5081,-1.4605,-1.429,-1.3784,-1.3083,-1.3039,-1.2828,-1.2415,-1.2823,-1.3016,-1.3015,-1.3106,-1.2777,-1.2069,-1.2297,-1.2243,-1.1963,0.0,-1.2705,-1.2881,-1.2632,-1.2529,-1.251,-1.2127,-1.2003,-1.2008,-1.2249,-1.2153,-1.1882,-1.2066,-1.2278,-1.2524,-1.222,-1.2471,-1.2827,-1.2318,-1.2505,-1.2842,-1.2584,-1.2535,-1.2545,-1.2241,-1.199,-1.1692,-1.141,-1.1364,-1.1364,-1.1364,-1.1364,-1.1364,-1.1364,-1.1364,-1.1167,-1.062,-1.0773,-1.0972,-1.0972,-1.0972,-1.1019,-1.1314,-1.1318,-1.1226,-1.0968,-1.0671,-1.0569,-1.0718,-1.0871,-1.1019,-1.1171,-1.1322,-1.1569,-1.1914,-1.1999,-1.2103,-1.2328,-1.2377,-1.2328,-1.2076,-1.2076,-1.2076,-1.213,-1.2421,-1.2798,0.433,0.3253,0.2087,0.0479,-0.0993,-0.247,-0.4038,-0.5831,-0.7681,-0.9456,-1.1248,-1.2689,-1.3405,-1.5077,-1.6292,-1.6085,-1.6072,-1.608,-1.6001,-1.5521,-1.5099,-1.4917,-1.5861,-1.6547,-1.6547,-1.6412,-1.634,-1.6354,-1.595,-1.5365,-1.4646,-1.4148,-1.3458,-1.2478,-1.2186,-1.1918,-1.1683,-1.2011,-1.2205,-1.2215,-1.1839,-1.1605,-1.1513,-1.1143,-1.1172,-1.1456,-1.1853,0.0,-1.2691,-1.2244,-1.2075,-1.2039,-1.1253,-1.0924,-1.092,-1.1402,-1.1497,-1.1499,-1.1751,-1.1873,-1.1823,-1.136,-1.1864,-1.2471,-1.151,-1.176,-1.2269,-1.1755,-1.151,-1.1372,-1.1322,-1.0968,-1.0573,-1.0522,-1.0522,-1.0522,-1.0522,-1.0522,-1.0522,-1.0522,-1.0522,-1.0522,-1.0522,-1.0522,-1.0522,-1.0522,-1.0522,-1.0522,-1.0522,-1.0926,-1.1023,-1.0573,-1.0522,-1.0518,-1.0569,-1.0569,-1.0569,-1.0569,-1.0573,-1.082,-1.1272,-1.1322,-1.1578,-1.2076,-1.2076,-1.2076,-1.2076,-1.2076,-1.213,-1.213,-1.2278,-1.2613,0.5634,0.4233,0.2769,0.2231,0.0341,-0.1728,-0.3066,-0.498,0.0,-0.9889,-1.1751,-1.3379,-1.4979,-1.5981,-1.6487,-1.6344,-1.6199,-1.6075,-1.5934,-1.5629,-1.541,-1.5374,-1.5573,-1.5743,-1.578,-1.5263,0.0,0.0,-1.4085,-1.3802,-1.4552,-1.3471,-1.249,-1.1739,-1.1623,-1.1464,-1.1139,-1.1454,-1.134,-1.0764,-1.1286,-1.12,-1.0572,-1.1207,-1.1118,-1.0573,-1.096,0.0,-1.1813,-1.1719,-1.187,-1.2067,-1.1949,-1.1567,-1.116,-1.126,-1.101,-1.062,-1.0681,-1.0706,-1.0753,-1.1103,-1.1305,-1.146,-1.1255,-1.1456,-1.1706,-1.1606,-1.1706,-1.181,-1.1418,-1.1221,-1.1074,-1.0624,-1.0522,-1.0522,-1.0522,-1.0522,-1.0522,-1.0522,-1.0522,-1.0522,-1.0522,-1.0522,-1.0522,-1.0522,-1.0522,-1.0522,-1.0522,-1.0569,-1.062,-1.0522,-1.0522,-1.0573,-1.082,-1.082,-1.082,-1.082,-1.1023,-1.1221,-1.1322,-1.1523,-1.1773,-1.2076,-1.2076,-1.2076,-1.2076,-1.2076,-1.2175,-1.2278,-1.2377,-1.2573,0.6905,0.598,0.4937,0.4154,0.3166,0.1513,-0.1869,0.0,0.0,-1.0248,-1.2552,-1.4169,-1.5469,-1.655,-1.7271,-1.7202,-1.7047,-1.7013,-1.7233,-1.6364,-1.5853,-1.6241,-1.5832,-1.5544,-1.5704,-1.5036,-1.4672,-1.4801,-1.3623,-1.307,-1.349,-1.2517,-1.1819,-1.1511,-1.1485,-1.1351,-1.1014,-1.1137,-1.0911,-1.038,-1.071,-1.0666,-1.0293,-1.0748,-1.0811,-1.0623,-1.0572,0.0,-1.12,-1.0732,-1.0608,-1.0729,-1.0441,-1.0152,-0.9934,-1.0409,-1.0433,-1.0212,-1.0336,-1.0403,-1.0403,-1.0383,-1.0744,-1.1103,-1.0537,-1.0744,-1.1162,-1.0858,-1.1011,-1.1167,-1.0918,-1.0871,-1.082,-1.0569,-1.0522,-1.0522,-1.0522,-1.0522,-1.0522,-1.0522,-1.0522,-1.0522,-1.0522,-1.0522,-1.0573,-1.0671,-1.0573,-1.062,-1.0871,-1.0769,-1.0671,-1.0518,-1.0522,-1.0624,-1.0871,-1.0769,-1.0769,-1.0871,-1.1023,-1.1171,-1.1272,-1.1573,-1.1828,-1.2076,-1.2076,-1.2076,-1.2076,-1.2076,-1.218,-1.2278,-1.2426,-1.2578,0.8349,0.771,0.697,0.6107,0.5748,0.4285,-0.0829,-0.2831,-0.524,-1.0919,-1.3461,-1.496,-1.5954,-1.7111,-1.7925,-1.7901,-1.7953,-1.8103,-1.836,-1.7208,-1.6478,-1.6909,-1.6114,-1.5595,-1.5704,-1.5036,0.0,-1.4763,-1.3371,-1.2455,-1.2222,-1.1575,-1.1285,-1.1353,-1.129,-1.1137,-1.0905,-1.0835,-1.0616,-1.0307,-1.0317,-1.0283,-1.0283,-1.0196,-1.0296,-1.0485,-1.0068,0.0,0.0,-0.9703,-0.9434,-0.9468,-0.9131,-0.8886,-0.8879,-0.963,-0.9897,-0.9937,-1.0152,-1.0241,-1.0138,-0.9718,-1.0178,-1.069,-0.9869,-1.0091,-1.0565,-1.0154,-1.0205,-1.047,-1.0466,-1.0522,-1.0522,-1.0522,-1.0522,-1.0522,-1.0522,-1.0522,-1.0522,-1.0522,-1.0522,-1.0522,-1.0522,-1.0573,-1.0671,-1.0875,-1.0773,-1.082,-1.1226,-1.1124,-1.0922,-1.0667,-1.0667,-1.0718,-1.0875,-1.0722,-1.0671,-1.0875,-1.0968,-1.1124,-1.1372,-1.1623,-1.1877,-1.2076,-1.2076,-1.2076,-1.2076,-1.2076,-1.2175,-1.2328,-1.2426,-1.2583,1.0248,0.8873,0.757,0.7996,0.6704,0.4173,-0.028,0.0,-0.5886,-1.2358,-1.45,-1.5699,-1.7238,-1.7818,-1.8048,-1.7922,0.0,-1.8748,-1.8119,-1.7864,-1.748,-1.6902,-1.6136,-1.5638,-1.5544,-1.4975,-1.4603,-1.4634,-1.2591,-1.1314,-1.1227,-1.0896,-1.0741,-1.0845,-1.0574,-1.0474,-1.0649,-1.05,-1.0312,-1.0059,-1.021,-1.0283,-1.0283,-0.9869,-0.9492,-0.9148,-0.8745,0.0,0.0,-0.906,-0.9209,-0.9538,-0.9767,-0.9561,-0.9217,-0.9515,-0.9622,-0.9625,-0.9658,-0.9666,-0.9669,-0.9614,-0.9666,-0.9714,-0.9614,-0.9729,-0.9899,-0.9999,-1.0158,-1.0371,-1.047,-1.0522,-1.0522,-1.0522,-1.0522,-1.0522,-1.0522,-1.0522,-1.0522,-1.0522,-1.0522,-1.0522,-1.0522,-1.0722,-1.0871,-1.0922,-1.1074,-1.1221,-1.1272,-1.1272,-1.1272,-1.1226,-1.1226,-1.1124,-1.0922,-1.0871,-1.0871,-1.0922,-1.1124,-1.1372,-1.1673,-1.1927,-1.2076,-1.2076,-1.2076,-1.2076,-1.2076,-1.2076,-1.2224,-1.248,-1.2475,-1.2627,1.1033,1.0277,0.9689,0.9769,0.947,0.7356,0.0487,-0.1394,-0.4299,-1.3508,-1.5702,-1.6487,-1.8217,-1.8565,-1.8572,0.0,-1.8658,-1.8951,-1.9536,-1.8978,-1.8608,-1.8935,-1.7884,-1.6936,0.0,0.0,-1.4633,-1.3208,-1.1568,-1.0449,-0.9932,-0.9839,-0.9978,-1.0376,-1.0102,-1.0083,-1.0406,-1.0185,-1.0095,-1.0239,-0.9991,-0.9869,-0.9864,-0.9697,-0.9394,-0.8975,-0.8818,0.0,0.0,-0.8323,-0.8276,-0.845,-0.8997,-0.9066,-0.8944,-0.9435,-0.9614,-0.9614,-0.9614,-0.9614,-0.9614,-0.9614,-0.9673,-0.9736,-0.9736,-0.9788,-0.9951,-1.011,-1.0316,-1.0419,-1.047,-1.0522,-1.0415,-1.0142,-1.0304,-1.0522,-1.0522,-1.0522,-1.0522,-1.0522,-1.062,-1.0722,-1.0722,-1.0972,-1.1221,-1.1372,-1.1322,-1.1423,-1.1723,-1.1623,-1.1623,-1.1773,-1.1473,-1.1322,-1.1372,-1.1221,-1.1226,-1.1372,-1.1473,-1.1578,-1.1723,-1.1977,-1.2076,-1.2076,-1.2076,-1.2076,-1.2076,-1.2076,-1.2229,-1.248,-1.248,-1.2627,1.2073,1.1559,1.1301,1.1241,1.142,0.9673,0.2257,0.0587,-0.2053,-1.1449,-1.4223,-1.5468,-1.7158,-1.8167,-1.8822,0.0,-1.9412,-1.9912,-2.0723,-2.037,-2.0174,-2.0619,0.0,-1.8239,-1.7311,-1.5918,-1.4285,-1.2352,-1.1039,-0.9984,-0.9261,-0.9152,-0.9299,-0.9777,-0.9509,-0.9532,-0.9898,-0.9715,-0.9785,-1.0088,-0.9851,-0.9702,-0.9579,-0.9465,-0.9199,-0.8818,-0.8692,0.0,0.0,-0.7836,-0.7715,-0.7781,-0.8432,-0.8688,-0.8765,-0.9383,-0.9614,-0.9614,-0.9614,-0.9618,-0.9673,-0.9673,-0.9736,-0.9851,-0.9955,-0.9951,-1.0054,-1.0265,-1.0419,-1.0522,-1.0522,-1.0522,-1.0411,-1.0087,-1.0142,-1.0304,-1.0304,-1.0205,-1.0154,-1.015,-1.0352,-1.0506,-1.0714,-1.0968,-1.1322,-1.1628,-1.1628,-1.1673,-1.2071,-1.1927,-1.1873,-1.2076,-1.1773,-1.1573,-1.1673,-1.1528,-1.1523,-1.1678,-1.1723,-1.1723,-1.1823,-1.1977,-1.2076,-1.2076,-1.2076,-1.2076,-1.2076,-1.2126,-1.2278,-1.248,-1.2529,-1.2681,1.3712,1.265,1.19,1.2372,1.194,1.0161,0.5339,0.3228,0.065,-0.5116,-0.9106,-1.1981,-1.3405,-1.6197,-1.857,-1.9373,-2.1061,-2.2013,-2.1298,-2.198,-2.2249,0.0,-2.0406,-1.9227,-1.7835,-1.5332,-1.3442,-1.2551,-1.1131,0.0,-0.9526,-0.8916,-0.8737,-0.9008,-0.8684,-0.8637,-0.8916,-0.9119,-0.9272,-0.9425,-0.9892,-0.9913,-0.9579,-0.9204,-0.8777,0.0,0.0,0.0,0.0,-0.7715,-0.7715,-0.7781,-0.8432,-0.8688,-0.8765,-0.9383,-0.9614,-0.9614,-0.9614,-0.9677,-0.9799,-0.9799,-0.9899,-1.0054,-1.0213,-1.0162,-1.0054,-1.0265,-1.0419,-1.0522,-1.0522,-1.0522,-1.0522,-1.0466,-1.0138,-0.9814,-0.9814,-0.9514,-0.9263,-0.9361,-0.9409,-0.9621,-1.0297,-1.0663,-1.1074,-1.1623,-1.1927,-1.2076,-1.2076,-1.2076,-1.2076,-1.2076,-1.2076,-1.1977,-1.1723,-1.1723,-1.1723,-1.1723,-1.1723,-1.1823,-1.2076,-1.2076,-1.2076,-1.2076,-1.2076,-1.2076,-1.2076,-1.2224,-1.2382,-1.248,-1.2627,-1.2779,1.4248,1.3713,1.3198,1.2748,1.1975,1.0013,0.4971,0.2965,0.0454,-0.558,-0.9977,-1.3051,-1.4094,-1.7155,-1.9793,-2.0606,0.0,0.0,-2.2648,-2.2753,-2.246,-2.1664,-1.9459,-1.753,0.0,0.0,-1.2864,-1.1965,-1.0547,0.0,-0.9238,-0.8706,-0.8439,-0.8535,-0.8256,-0.8197,-0.843,-0.8404,-0.8535,-0.8859,-0.882,-0.8742,-0.8659,-0.8606,-0.8328,0.0,0.0,0.0,0.0,-0.7715,-0.7715,-0.7781,-0.8432,-0.8688,-0.8765,-0.9383,-0.9614,-0.9614,-0.9681,-0.974,-0.9795,-0.9899,-1.0058,-1.0158,-0.9888,-0.9995,-1.0265,-1.0368,-1.047,-1.0415,-1.0087,-1.0249,-1.0411,-1.0087,-1.0142,-1.0352,-1.0502,-1.0454,-1.0454,-1.0655,-1.0553,-1.0604,-1.1167,-1.1217,-1.1372,-1.1873,-1.2026,-1.1977,-1.1623,-1.1873,-1.1977,-1.1573,-1.1877,-1.2076,-1.1977,-1.1972,-1.1972,-1.1972,-1.1972,-1.2022,-1.2076,-1.2076,-1.2076,-1.2076,-1.218,-1.2229,-1.2229,-1.2377,-1.2529,-1.2627,-1.2779,-1.2881,1.3984,1.3757,1.3295,1.2512,1.1468,0.9705,0.6187,0.4241,0.1986,-0.2241,-0.6321,-0.985,-1.2142,-1.5409,-1.8568,-2.1051,-2.1656,0.0,0.0,0.0,0.0,-2.1801,-1.9352,0.0,0.0,-1.421,-1.2744,-1.1866,-1.047,0.0,-0.9259,-0.8756,-0.8359,-0.8166,-0.7903,-0.7802,-0.7838,-0.7876,-0.8068,-0.8379,-0.8375,-0.8327,-0.8191,-0.8346,-0.8126,0.0,0.0,0.0,0.0,-0.7715,-0.7715,-0.7766,-0.8297,-0.8505,-0.8568,-0.9076,-0.9263,-0.9327,-0.9569,-0.9711,-0.9777,-1.0064,-1.0213,-1.0316,-1.0039,-0.9892,-0.9895,-0.9999,-0.9999,-0.9943,-0.9669,-0.9781,-0.994,-0.9669,-0.9725,-0.988,-1.0083,-1.0035,-1.0035,-1.0237,-1.0135,-1.0285,-1.1049,-1.1053,-1.1209,-1.1972,-1.2076,-1.1977,-1.1623,-1.1873,-1.1972,-1.1623,-1.1877,-1.2076,-1.2076,-1.2076,-1.2076,-1.2076,-1.213,-1.2175,-1.2076,-1.2175,-1.2229,-1.2175,-1.2328,-1.2377,-1.2377,-1.2524,-1.2627,-1.2779,-1.2881,-1.2881,0.0,1.2924,1.2419,1.1816,1.057,0.928,0.8403,0.6554,0.0,0.3692,0.0384,-0.364,-0.7984,-1.1404,-1.526,-2.0474,-2.2051,0.0,0.0,-2.3936,0.0,0.0,-1.9733,0.0,-1.6706,-1.455,-1.2898,-1.2092,0.0,0.0,-0.9522,-0.8965,-0.8439,-0.7922,-0.77,-0.7462,-0.7196,-0.7584,-0.7826,-0.7923,-0.8357,-0.8428,-0.8143,-0.8262,-0.8103,0.0,0.0,0.0,0.0,-0.7715,-0.7715,-0.7748,-0.8074,-0.8202,-0.8242,-0.8568,-0.8724,-0.8855,-0.9294,-0.9502,-0.9744,-1.0101,-1.0312,-1.0364,-1.0364,-0.9836,-0.9263,-0.9263,-0.9211,-0.9211,-0.9211,-0.9211,-0.9211,-0.9211,-0.9047,-0.8879,-0.8879,-0.8676,-0.8577,-0.8676,-0.8676,-0.9037,-1.021,-1.0368,-1.0728,-1.1868,-1.2026,-1.2026,-1.2026,-1.2076,-1.2081,-1.2076,-1.2076,-1.213,-1.213,-1.2126,-1.2076,-1.2126,-1.2224,-1.2229,-1.2126,-1.2382,-1.2426,-1.2328,-1.2431,-1.2529,-1.2529,-1.2627,-1.2779,-1.2881,-1.2881,-1.2881,1.1051,0.0,1.2068,1.1401,1.0351,0.9095,0.0,0.6221,0.5007,0.3681,0.034,-0.2838,-0.4388,-0.7725,-1.1851,-1.6765,-1.83,-1.9994,-2.3225,-2.2601,0.0,-2.0974,-1.8283,-1.6182,-1.5401,-1.3759,-1.2376,-1.14,0.0,-0.9791,-0.9522,-0.88,-0.8246,-0.7922,-0.77,-0.7462,-0.7196,-0.7405,-0.736,-0.7078,-0.7357,-0.7428,-0.7353,-0.7424,-0.7558,0.0,0.0,0.0,-0.7715,-0.7715,-0.7715,-0.7748,-0.8074,-0.8202,-0.8238,-0.8649,-0.8764,-0.8902,-0.9425,-0.9449,-0.9258,-0.9427,-0.926,-0.9047,-0.9047,-0.9354,-0.9662,-0.9662,-0.9462,-0.9211,-0.9211,-0.926,-0.9361,-0.9361,-0.9357,-0.9454,-0.9655,-0.9655,-0.9707,-0.9957,-0.9655,-0.9607,-1.0265,-1.0064,-1.0178,-1.1318,-1.1477,-1.1477,-1.1477,-1.1828,-1.1977,-1.1673,-1.1927,-1.2175,-1.2382,-1.2224,-1.2126,-1.2229,-1.2278,-1.2323,-1.2377,-1.248,-1.248,-1.2426,-1.2578,-1.2681,-1.2832,-1.2832,-1.2881,-1.2881,-1.2881,-1.2881,0.8986,0.9979,1.0949,1.0404,0.9374,0.8244,0.7358,0.5972,0.461,0.3763,0.1582,-0.0891,-0.3162,-0.6934,-1.1283,-1.6149,-1.9021,0.0,0.0,0.0,-2.1007,-1.9784,-1.7717,-1.5862,0.0,-1.3447,-1.2379,0.0,0.0,-0.9919,-0.9522,-0.885,-0.8365,-0.8104,-0.7758,-0.7462,-0.7196,-0.7269,-0.7168,-0.6865,-0.6979,-0.7082,-0.7092,-0.7159,-0.7364,0.0,0.0,0.0,-0.7715,-0.7715,-0.7587,-0.743,-0.782,-0.7885,-0.7766,-0.8073,-0.8227,-0.8342,-0.8812,-0.9025,-0.9147,-0.9211,-0.905,-0.8893,-0.8893,-0.904,-0.9194,-0.8988,-0.8837,-0.8742,-0.8742,-0.8844,-0.8942,-0.8942,-0.9044,-0.9194,-0.9347,-0.9406,-0.9514,-0.9662,-0.9409,-0.9413,-0.9965,-0.9814,-0.9869,-1.074,-1.0897,-1.0897,-1.0897,-1.136,-1.1628,-1.1423,-1.1877,-1.2274,-1.2377,-1.2323,-1.2323,-1.2382,-1.2431,-1.248,-1.248,-1.2627,-1.2681,-1.2681,-1.273,-1.2832,-1.2881,-1.2881,-1.2881,-1.2881,-1.2881,-1.2881,0.7418,0.8376,0.9434,0.9053,0.8126,0.7311,0.7333,0.0,0.0,0.0,0.0,0.1236,-0.2993,-0.6417,0.0,0.0,0.0,0.0,-2.356,-2.2504,-2.0964,-1.8789,-1.7586,0.0,-1.4119,-1.3365,0.0,0.0,0.0,-1.0103,-0.9522,-0.9019,-0.8617,-0.8313,-0.7874,-0.752,-0.7255,-0.7196,-0.7051,-0.6829,-0.6871,-0.6933,-0.7028,-0.7115,-0.7292,-0.7642,0.0,0.0,-0.7715,-0.7715,-0.7412,-0.7024,-0.7496,-0.745,-0.7143,-0.7328,-0.7461,-0.7673,-0.7891,-0.8434,-0.9037,-0.8982,-0.8964,-0.9001,-0.9001,-0.8738,-0.8418,-0.8058,-0.8062,-0.8221,-0.8221,-0.8321,-0.8421,-0.8421,-0.8524,-0.8629,-0.8629,-0.8745,-0.8808,-0.8808,-0.8808,-0.8959,-0.9413,-0.9462,-0.9662,-1.0214,-1.0265,-1.0316,-1.0368,-1.0842,-1.1217,-1.1322,-1.1823,-1.2229,-1.2328,-1.248,-1.2529,-1.2578,-1.2632,-1.2681,-1.2578,-1.2779,-1.2881,-1.2881,-1.2881,-1.2881,-1.2881,-1.2881,-1.2881,-1.2881,-1.2881,-1.2881,0.7625,0.7707,0.7667,0.7538,0.7407,0.7107,0.6343,0.0,0.0,0.0,0.0,0.0,0.0,-0.1621,-0.3883,0.0,0.0,-2.3024,0.0,0.0,-2.0338,-1.9291,0.0,-1.5749,-1.4676,-1.3379,0.0,0.0,0.0,-1.0322,-0.9549,-0.9199,-0.8822,-0.8313,-0.8018,-0.7753,-0.7554,-0.7196,-0.6872,-0.6551,-0.6459,-0.6542,-0.6752,-0.6777,-0.6953,-0.7277,0.0,-0.7715,-0.7715,-0.7715,-0.7412,-0.7021,-0.7325,-0.7157,-0.681,-0.7122,-0.7255,-0.7303,-0.7384,-0.7834,-0.8316,-0.7961,-0.797,-0.8112,-0.8112,-0.8058,-0.8005,-0.8112,-0.8168,-0.8221,-0.8221,-0.8371,-0.8577,-0.8577,-0.8689,-0.8752,-0.8752,-0.8804,-0.8808,-0.8808,-0.8808,-0.8808,-0.891,-0.8906,-0.911,-0.9666,-0.9714,-0.9865,-1.0364,-1.047,-1.0787,-1.1418,-1.1573,-1.1877,-1.2578,-1.2681,-1.273,-1.2827,-1.273,-1.273,-1.2827,-1.2881,-1.2881,-1.2881,-1.2881,-1.2881,-1.2881,-1.2881,-1.2881,-1.2881,-1.2881,-1.2881,0.6719,0.669,0.6533,0.6207,0.6501,0.6687,0.6003,0.5251,0.0,0.0,0.0,0.0,0.0,0.0,-0.8552,-1.8841,0.0,-2.316,-2.2456,-2.1159,-1.9691,0.0,0.0,-1.5267,-1.41,0.0,0.0,0.0,0.0,0.0,-0.9951,-0.9414,-0.8911,-0.8533,-0.8122,-0.7719,-0.7378,-0.7136,-0.6842,-0.649,-0.6299,-0.6292,-0.6477,-0.6631,-0.688,-0.7204,0.0,-0.7715,-0.7715,-0.7715,-0.7412,-0.7021,-0.7286,-0.716,-0.6823,-0.6999,-0.7114,-0.7218,-0.7254,-0.7612,-0.8025,-0.7817,-0.7849,-0.7901,-0.7901,-0.7952,-0.8062,-0.8168,-0.8271,-0.8321,-0.8424,-0.8583,-0.8692,-0.8692,-0.8748,-0.8808,-0.8808,-0.8808,-0.8808,-0.8808,-0.8808,-0.8808,-0.8808,-0.8808,-0.891,-0.9106,-0.9162,-0.926,-0.9514,-0.9862,-1.0222,-1.0541,-1.1011,-1.1573,-1.2224,-1.2323,-1.2529,-1.2881,-1.2832,-1.2832,-1.2881,-1.2881,-1.2881,-1.2881,-1.2881,-1.2881,-1.2881,-1.2881,-1.2881,-1.2881,-1.2881,-1.2881,0.5793,0.5841,0.5797,0.5503,0.0,0.6252,0.5587,0.4786,0.0,0.0,0.0,0.0,0.0,-0.8021,0.0,-2.1068,-2.2912,-2.2957,-2.144,-2.0364,-1.8988,-1.701,-1.6009,-1.4934,0.0,0.0,0.0,0.0,0.0,0.0,-1.0328,-0.9587,-0.9069,-0.8811,-0.8207,-0.7748,-0.7398,-0.7072,-0.6751,-0.6521,-0.626,-0.6186,-0.6297,-0.6521,-0.6771,-0.7091,-0.7419,-0.7646,-0.767,-0.7583,-0.7241,-0.6849,-0.7027,-0.6907,-0.6702,-0.6748,-0.6928,-0.7109,-0.7109,-0.7412,-0.7808,-0.7808,-0.7847,-0.7901,-0.7901,-0.8062,-0.8221,-0.8218,-0.8321,-0.8471,-0.8573,-0.8689,-0.8808,-0.8808,-0.8808,-0.8808,-0.8808,-0.8808,-0.8808,-0.8808,-0.8808,-0.8808,-0.8808,-0.8808,-0.8808,-0.8808,-0.8808,-0.8808,-0.8808,-0.926,-0.9662,-0.9766,-1.0438,-1.1112,-1.1669,-1.1977,-1.2278,-1.2681,-1.2827,-1.2881,-1.2881,-1.2881,-1.2881,-1.2881,-1.2881,-1.2881,-1.2881,-1.2881,-1.2881,-1.2881,-1.2881,-1.2881,0.5548,0.5579,0.5611,0.594,0.6072,0.5809,0.4691,0.4174,0.0,0.3114,0.0,0.0,0.0,-0.9824,-1.566,-1.6612,-1.953,-2.1531,-2.1073,0.0,-1.8139,-1.6861,-1.5944,0.0,0.0,0.0,0.0,0.0,0.0,0.0,-1.0335,-0.9777,-0.9354,-0.9087,-0.8298,-0.7956,-0.8047,-0.7051,-0.6543,-0.6595,-0.6395,-0.6296,-0.63,-0.6319,-0.6475,-0.6757,-0.7084,-0.7393,-0.767,-0.7238,-0.6761,-0.6334,-0.6164,-0.6093,-0.6107,-0.6328,-0.6592,-0.6839,-0.6839,-0.7182,-0.7622,-0.7622,-0.7747,-0.7901,-0.7901,-0.8062,-0.8221,-0.8371,-0.8474,-0.8573,-0.8573,-0.8689,-0.8808,-0.8808,-0.8808,-0.8808,-0.8808,-0.8808,-0.8808,-0.8808,-0.8808,-0.8808,-0.8808,-0.8808,-0.8808,-0.8808,-0.8808,-0.8808,-0.8808,-0.8956,-0.9263,-0.9766,-1.0068,-1.0529,-1.12,-1.1769,-1.2126,-1.2175,-1.2627,-1.2881,-1.2881,-1.2881,-1.2881,-1.2881,-1.2881,-1.2881,-1.2881,-1.2881,-1.2881,-1.2881,-1.2881,-1.2881,0.5152,0.509,0.498,0.5413,0.5213,0.0,0.0,0.4093,0.3638,0.3389,0.1218,0.0,0.0,0.0,-1.8668,-1.655,-1.8663,-2.0306,-1.9548,-1.7973,-1.662,-1.5906,0.0,0.0,0.0,0.0,0.0,0.0,0.0,0.0,-1.0811,-1.0122,-0.955,-0.911,-0.831,-0.7874,-0.7865,-0.712,-0.6695,-0.6591,-0.618,-0.5998,-0.6009,-0.6219,-0.6442,-0.672,-0.7048,-0.7375,-0.767,-0.7496,-0.715,-0.6722,-0.6383,-0.6267,-0.6282,-0.637,-0.6687,-0.7054,-0.7054,-0.7354,-0.7801,-0.7801,-0.7817,-0.7901,-0.7901,-0.8112,-0.8321,-0.8371,-0.853,-0.8745,-0.8745,-0.8752,-0.8808,-0.8808,-0.8808,-0.8808,-0.8808,-0.8808,-0.8808,-0.8808,-0.8808,-0.8808,-0.8808,-0.8808,-0.8808,-0.8808,-0.8808,-0.8808,-0.8808,-0.9012,-0.9159,-0.9312,-0.9865,-1.0324,-1.0651,-1.1209,-1.156,-1.156,-1.2421,-1.2881,-1.2881,-1.2881,-1.2881,-1.2881,-1.2578,-1.2377,-1.2377,-1.2022,-1.1864,-1.1859,-1.2224,-1.2377,0.4625,0.4781,0.479,0.4878,0.0,0.0,0.4385,0.3925,0.3366,0.3005,0.253,-0.0401,-0.8745,0.0,0.0,0.0,-1.867,-1.933,-1.8595,-1.7002,-1.5752,-1.5357,0.0,0.0,0.0,0.0,0.0,0.0,0.0,0.0,0.0,-1.0284,-0.961,-0.8979,-0.8366,-0.7874,-0.7539,-0.718,-0.6811,-0.6417,-0.6048,-0.587,-0.5819,-0.6043,-0.6343,-0.6717,-0.6939,-0.7277,-0.7674,-0.7367,-0.694,-0.6431,-0.6264,-0.623,-0.6285,-0.637,-0.6696,-0.7091,-0.7173,-0.7393,-0.768,-0.7847,-0.7787,-0.7716,-0.7798,-0.797,-0.8107,-0.8107,-0.8384,-0.8671,-0.8671,-0.8738,-0.8808,-0.8808,-0.8808,-0.8808,-0.8808,-0.8808,-0.8808,-0.8808,-0.8808,-0.8808,-0.8808,-0.8808,-0.8808,-0.8808,-0.8808,-0.8808,-0.8808,-0.9008,-0.9159,-0.9312,-0.9873,-1.0285,-1.0348,-1.0854,-1.1103,-1.0952,-1.1864,-1.2368,-1.2368,-1.2524,-1.2632,-1.2632,-1.2426,-1.2328,-1.2328,-1.1918,-1.1764,-1.176,-1.217,-1.2328,0.3965,0.4729,0.5205,0.4425,0.0,0.0,0.4092,0.3538,0.2867,0.1733,0.1801,-0.2722,-1.8597,-1.4332,0.0,-1.8943,-1.9349,-1.8629,-1.8501,-1.6984,-1.5734,0.0,0.0,0.0,0.0,0.0,0.0,0.0,0.0,0.0,0.0,-1.0203,-0.9544,-0.8745,-0.8449,-0.7932,-0.7196,-0.7191,-0.6777,-0.5994,-0.6071,-0.5979,-0.5811,-0.5811,-0.6128,-0.6698,-0.6706,-0.7073,-0.7625,-0.6677,-0.5916,-0.5331,-0.559,-0.5809,-0.6022,-0.6282,-0.658,-0.6845,-0.7106,-0.7197,-0.7288,-0.7721,-0.7587,-0.7252,-0.7513,-0.7558,-0.7487,-0.7487,-0.7941,-0.837,-0.837,-0.8587,-0.8804,-0.8808,-0.8808,-0.8808,-0.8808,-0.8808,-0.8808,-0.8808,-0.8808,-0.8808,-0.8808,-0.8808,-0.8808,-0.8808,-0.8808,-0.8808,-0.8808,-0.8906,-0.926,-0.9913,-1.0233,-1.0352,-1.0201,-1.0804,-1.0952,-1.0454,-1.0901,-1.12,-1.1204,-1.1764,-1.2076,-1.2076,-1.2627,-1.2881,-1.2881,-1.2881,-1.2881,-1.2881,-1.2881,-1.2881,0.461,0.4498,0.4407,0.4982,0.0,0.0,0.0,0.3577,0.0,0.0,-0.1939,-0.5699,-0.829,-1.217,0.0,-1.4829,-1.6006,-1.6932,-1.6895,-1.5866,0.0,0.0,0.0,0.0,0.0,0.0,0.0,0.0,0.0,0.0,0.0,-1.0606,-0.9862,-0.9274,-0.8445,-0.7744,-0.7123,-0.6747,-0.636,-0.5921,-0.5769,-0.5683,-0.5732,-0.5784,-0.6011,-0.642,-0.6608,-0.6942,-0.731,-0.6812,-0.6383,-0.605,-0.5973,-0.6067,-0.6285,-0.637,-0.658,-0.6817,-0.6896,-0.7048,-0.7227,-0.7339,-0.7334,-0.7215,-0.7294,-0.7409,-0.7487,-0.7487,-0.7746,-0.8063,-0.8063,-0.828,-0.8554,-0.8761,-0.8808,-0.8808,-0.8808,-0.8808,-0.8808,-0.8808,-0.8808,-0.8808,-0.8808,-0.8808,-0.8808,-0.8808,-0.8808,-0.8857,-0.891,-0.8956,-0.9162,-0.951,-0.9569,-0.9621,-0.9777,-0.9976,-1.0028,-0.9825,-0.9976,-1.0431,-1.115,-1.1355,-1.1665,-1.2076,-1.1819,-1.1914,-1.2328,-1.1514,-1.1364,-1.171,-1.171,-1.1914,0.4429,0.4392,0.427,0.4637,0.4402,0.4063,0.3971,0.0,0.0,0.0,-0.3331,-0.6154,-0.7299,-1.1844,0.0,-1.4692,-1.5519,-1.624,-1.624,-1.5427,0.0,0.0,0.0,0.0,0.0,0.0,0.0,0.0,0.0,0.0,0.0,-1.0551,-0.9811,-0.92,-0.845,-0.7686,-0.6914,-0.6712,-0.6291,-0.5675,-0.5679,-0.5592,-0.5417,-0.569,-0.5991,-0.6326,-0.6742,-0.681,-0.6689,-0.6693,-0.6474,-0.6093,-0.6019,-0.6153,-0.6413,-0.6413,-0.6516,-0.6665,-0.6772,-0.6845,-0.6924,-0.7133,-0.706,-0.6908,-0.7015,-0.7059,-0.7113,-0.7162,-0.7429,-0.7656,-0.7746,-0.8059,-0.8417,-0.8594,-0.8724,-0.8808,-0.8808,-0.8808,-0.8808,-0.8808,-0.8808,-0.8808,-0.8808,-0.8808,-0.8808,-0.8808,-0.8808,-0.886,-0.8959,-0.9061,-0.9211,-0.9614,-0.9669,-0.9729,-0.9829,-0.988,-0.9821,-0.961,-0.9614,-0.9869,-1.0537,-1.0744,-1.1057,-1.1414,-1.1259,-1.136,-1.1719,-1.1057,-1.0905,-1.1204,-1.1204,-1.1405,0.3755,0.4292,0.452,0.3812,0.4158,0.4439,0.3525,0.2648,0.1119,-0.2237,0.0,-0.5033,-1.192,-1.2465,-1.3101,-1.6847,-1.6682,-1.6105,-1.6188,-1.54,0.0,0.0,0.0,0.0,0.0,0.0,0.0,0.0,0.0,0.0,0.0,-1.0258,-0.9538,-0.8795,-0.8416,-0.7719,-0.6652,-0.688,-0.6427,-0.5344,-0.5745,-0.5651,-0.5055,-0.5529,-0.5923,-0.6228,-0.6802,-0.6599,-0.5883,-0.6437,-0.6264,-0.572,-0.5936,-0.6153,-0.6413,-0.6413,-0.6367,-0.6358,-0.6642,-0.6567,-0.6362,-0.6926,-0.676,-0.637,-0.6699,-0.6639,-0.6526,-0.6666,-0.6977,-0.7304,-0.7462,-0.7947,-0.834,-0.8417,-0.8594,-0.8808,-0.8808,-0.8808,-0.8808,-0.8808,-0.8808,-0.8808,-0.8808,-0.8808,-0.8808,-0.8808,-0.8804,-0.8857,-0.8959,-0.911,-0.9361,-0.9862,-1.0135,-1.0249,-1.0146,-1.0249,-1.0087,-0.9614,-0.9614,-0.9614,-0.9614,-1.0083,-1.0348,-1.0403,-1.0905,-1.115,-1.1204,-1.115,-1.115,-1.1204,-1.1154,-1.115,0.4067,0.3971,0.3798,0.3942,0.3769,0.3394,0.2905,0.2232,0.1531,0.0884,-0.2486,-0.585,-0.7482,-1.0367,-1.3013,-1.457,-1.4589,-1.4658,-1.5343,0.0,0.0,0.0,0.0,0.0,0.0,0.0,0.0,0.0,0.0,0.0,-1.1687,-1.0496,-0.9669,-0.9348,-0.8189,-0.7404,-0.6999,-0.6378,-0.5955,0.0,-0.5651,-0.5526,-0.5397,-0.5404,-0.5428,-0.544,-0.5793,-0.5758,-0.5481,-0.5932,-0.5962,-0.572,-0.5936,-0.6153,-0.6413,-0.6413,-0.6187,-0.5927,-0.6344,-0.5972,-0.5463,-0.6276,-0.6235,-0.593,-0.6344,-0.6493,-0.6526,-0.6666,-0.6838,-0.7058,-0.7408,-0.7746,-0.8086,-0.832,-0.8594,-0.8808,-0.8808,-0.8808,-0.8808,-0.8808,-0.8808,-0.8808,-0.8808,-0.8808,-0.8808,-0.8808,-0.891,-0.891,-0.8857,-0.9057,-0.9263,-0.9361,-0.9417,-0.9521,-0.9721,-0.9669,-0.9618,-0.9614,-0.9614,-0.9614,-0.9614,-0.9718,-0.998,-1.0399,-1.0498,-1.0804,-1.1204,-1.0804,-1.0804,-1.1204,-1.0753,-1.0804,0.3733,0.3812,0.3869,0.3712,0.0,0.2946,0.266,0.2173,0.1771,0.189,-0.1655,-0.4796,-0.489,-0.7706,-1.0483,-1.1904,-1.2103,-1.2543,-1.3867,0.0,0.0,0.0,0.0,0.0,0.0,0.0,0.0,0.0,0.0,-1.1648,-1.1156,-1.0467,-0.9894,-0.9478,-0.8268,-0.7448,-0.7045,-0.6225,-0.5718,-0.5564,-0.5526,-0.5393,-0.5169,-0.5242,-0.5193,-0.5034,-0.5274,-0.5288,-0.5155,-0.5634,-0.5815,-0.572,-0.5936,-0.6153,-0.6413,-0.6413,-0.6099,-0.5741,-0.5964,-0.5618,-0.5137,-0.5836,-0.5744,-0.544,-0.5924,-0.6093,-0.6133,-0.6227,-0.6532,-0.6868,-0.7138,-0.755,-0.7925,-0.8126,-0.849,-0.8808,-0.8808,-0.8808,-0.8699,-0.8421,-0.8586,-0.8646,-0.8106,-0.8209,-0.8474,-0.8752,-0.8857,-0.891,-0.8906,-0.9008,-0.911,-0.9211,-0.9211,-0.926,-0.9462,-0.9462,-0.9462,-0.9614,-0.9614,-0.9614,-0.9614,-0.9562,-0.9669,-1.0035,-1.0032,-1.0131,-1.0435,-1.0135,-1.0182,-1.0435,-1.0135,-1.0186,0.3051,0.365,0.397,0.3304,0.2978,0.0,0.2543,0.2182,0.1845,0.1911,-0.0682,-0.3017,-0.3251,-0.5128,-0.7243,-0.9073,-0.938,-0.9932,-1.1543,0.0,0.0,0.0,0.0,0.0,0.0,0.0,0.0,0.0,0.0,-1.0986,-1.0335,-1.0146,-0.98,-0.9224,-0.8204,-0.7438,-0.6967,-0.613,-0.5573,-0.5297,-0.5345,-0.5141,-0.4721,-0.5051,-0.4976,-0.464,-0.4942,-0.4959,-0.48,-0.527,-0.5495,-0.5558,-0.5769,-0.5998,-0.6219,-0.6267,-0.6013,-0.561,-0.561,-0.5308,-0.4964,-0.5437,-0.5267,-0.4964,-0.544,-0.5567,-0.561,-0.5658,-0.6096,-0.6642,-0.6863,-0.7422,-0.7908,-0.8011,-0.8454,-0.8808,-0.8808,-0.8808,-0.8643,-0.8143,-0.8477,-0.8484,-0.7405,-0.761,-0.809,-0.8699,-0.8699,-0.8695,-0.8959,-0.9012,-0.9061,-0.9159,-0.9162,-0.9211,-0.9361,-0.9361,-0.9413,-0.9562,-0.9562,-0.9562,-0.9562,-0.9462,-0.9462,-0.9562,-0.9562,-0.9562,-0.9614,-0.9614,-0.9614,-0.9614,-0.9614,-0.9614,0.2018,0.3088,0.3429,0.0,0.2832,0.26,0.0,0.0,0.1707,0.0,0.0085,-0.1662,-0.1988,-0.3578,-0.5204,-0.6285,-0.646,-0.6732,-0.7493,0.0,0.0,0.0,0.0,0.0,0.0,0.0,0.0,0.0,-1.1127,-1.0651,-1.031,-0.926,-0.8592,-0.8452,-0.7348,-0.6754,-0.6744,-0.5876,-0.5402,-0.5305,-0.4965,-0.4637,-0.4388,-0.4665,-0.4453,-0.3885,-0.433,-0.4374,-0.413,-0.4465,-0.469,-0.485,-0.504,-0.5278,-0.5553,-0.5727,-0.5623,-0.5348,-0.5348,-0.4918,-0.4491,-0.4923,-0.4792,-0.4491,-0.4964,-0.5091,-0.5094,-0.5185,-0.5612,-0.6232,-0.6917,-0.7481,-0.8011,-0.8571,-0.8748,-0.8808,-0.8808,-0.8808,-0.8755,-0.8695,-0.8752,-0.8586,-0.7931,-0.7874,-0.809,-0.8699,-0.8365,-0.8203,-0.8748,-0.891,-0.9012,-0.9008,-0.9008,-0.9057,-0.9211,-0.9211,-0.926,-0.9413,-0.9413,-0.9413,-0.9413,-0.9413,-0.9413,-0.9413,-0.9413,-0.9462,-0.9614,-0.9614,-0.9614,-0.9614,-0.9614,-0.9614,0.181,0.2884,0.3048,0.0,0.2511,0.2573,0.2465,0.226,0.2172,0.2436,0.1745,0.0824,0.0128,-0.0531,-0.1467,-0.297,-0.3275,-0.3684,0.0,0.0,0.0,0.0,0.0,0.0,0.0,0.0,0.0,0.0,-1.0605,-1.0361,-0.9717,-0.9337,-0.8862,-0.8268,-0.7253,-0.6645,-0.6537,-0.5619,-0.5066,-0.4856,-0.4685,-0.4373,-0.4023,-0.4544,-0.4464,-0.3984,-0.4283,-0.4258,-0.4075,-0.4132,-0.4343,-0.4573,-0.45,-0.4862,-0.5381,-0.5367,-0.5275,-0.5135,-0.5262,-0.4918,-0.4532,-0.4877,-0.4661,-0.4318,-0.4532,-0.462,-0.462,-0.4663,-0.5053,-0.5602,-0.6029,-0.6549,-0.7039,-0.7361,-0.767,-0.7836,-0.7836,-0.8374,-0.8808,-0.8808,-0.8268,-0.7943,-0.8315,-0.8146,-0.809,-0.8699,-0.8309,-0.7981,-0.8256,-0.8362,-0.8359,-0.8359,-0.8689,-0.8959,-0.9057,-0.9113,-0.9162,-0.926,-0.9312,-0.9312,-0.9413,-0.926,-0.9263,-0.9413,-0.9462,-0.9566,-0.9614,-0.9614,-0.9614,-0.9614,-0.9614,-0.9614,0.0869,0.0,0.2901,0.2454,0.251,0.272,0.0,0.0,0.2664,0.0,0.316,0.2924,0.2181,0.202,0.1501,0.0054,-0.0224,-0.0581,0.0,0.0,0.0,0.0,0.0,0.0,0.0,0.0,0.0,0.0,-0.9754,-1.0032,-0.9238,-0.9311,-0.8916,-0.7925,-0.7153,-0.6531,-0.607,-0.5118,-0.4505,-0.4195,-0.4136,-0.3939,-0.3624,-0.4218,-0.4324,-0.4096,-0.4356,-0.4378,-0.4168,-0.4024,-0.4058,-0.4266,-0.3997,-0.4338,-0.4889,-0.477,-0.4794,-0.4833,-0.4959,-0.4829,-0.4657,-0.4705,-0.4532,-0.4274,-0.4144,-0.41,-0.41,-0.41,-0.4489,-0.4981,-0.5236,-0.5748,-0.6235,-0.6476,-0.6786,-0.7082,-0.7295,-0.7993,-0.8586,-0.8586,-0.7999,-0.7726,-0.8427,-0.82,-0.809,-0.8699,-0.8309,-0.7981,-0.809,-0.7981,-0.7925,-0.7925,-0.8312,-0.8636,-0.8738,-0.89,-0.9061,-0.9162,-0.9162,-0.9211,-0.9312,-0.911,-0.911,-0.9312,-0.9409,-0.951,-0.9566,-0.951,-0.951,-0.9614,-0.9562,-0.9566,-0.1584,0.0759,0.0,0.2962,0.3057,0.3167,0.0,0.0,0.2959,0.3939,0.3921,0.3774,0.3842,0.3096,0.2438,0.232,0.2475,0.2662,0.0,0.0,0.0,0.0,0.0,0.0,0.0,0.0,0.0,0.0,-0.8473,-0.9586,-0.9223,-0.8733,-0.8033,-0.71,-0.6767,-0.6145,-0.5177,-0.4178,-0.3573,-0.3358,-0.3173,-0.3055,-0.3043,-0.3393,-0.3657,-0.3836,-0.444,-0.4588,-0.4342,-0.3979,-0.3759,-0.3623,-0.3502,-0.3451,-0.3509,-0.3709,-0.3999,-0.4316,-0.4224,-0.4437,-0.4696,-0.4138,-0.41,-0.423,-0.3753,-0.3624,-0.3624,-0.3624,-0.4008,-0.4561,-0.4979,-0.5573,-0.6133,-0.6728,-0.6899,-0.7069,-0.7714,-0.7925,-0.7928,-0.7928,-0.8365,-0.8533,-0.8037,-0.7928,-0.809,-0.8699,-0.8309,-0.809,-0.8699,-0.8256,-0.7925,-0.7925,-0.7925,-0.7928,-0.7978,-0.8577,-0.9008,-0.9012,-0.9008,-0.9008,-0.9008,-0.9012,-0.9012,-0.9008,-0.9159,-0.926,-0.9409,-0.926,-0.9361,-0.9614,-0.9465,-0.9462,0.0,0.0,0.0,0.2657,0.3329,0.3631,0.4119,0.3948,0.3847,0.4573,0.4717,0.4861,0.533,0.4352,0.3456,0.347,0.3425,0.3522,0.0,0.0,0.0,0.0,0.0,0.0,0.0,0.0,0.0,0.0,0.0,-0.7279,-0.6724,-0.7856,-0.8196,-0.7466,-0.6773,-0.5893,-0.4795,-0.4287,-0.3782,-0.3239,-0.298,-0.2807,-0.2681,-0.3032,-0.3196,-0.3262,-0.3675,-0.3925,-0.4004,-0.3767,-0.3563,-0.339,-0.3147,-0.3263,-0.3528,-0.3521,-0.3742,-0.4054,-0.422,-0.4389,-0.452,-0.4228,-0.423,-0.4232,-0.3755,-0.358,-0.358,-0.358,-0.3753,-0.3954,-0.4327,-0.461,-0.5,-0.5578,-0.5721,-0.5937,-0.6635,-0.7125,-0.7399,-0.7399,-0.7563,-0.7622,-0.7399,-0.7664,-0.7981,-0.8203,-0.8037,-0.7877,-0.7729,-0.7509,-0.7399,-0.7399,-0.7717,-0.8037,-0.8421,-0.8695,-0.8857,-0.8857,-0.8857,-0.8906,-0.9008,-0.8906,-0.8906,-0.9008,-0.8959,-0.9057,-0.926,-0.9312,-0.9361,-0.9462,-0.951,-0.9562,-0.5603,0.0,0.0,0.0,0.3449,0.3942,0.4568,0.469,0.4748,0.5214,0.5417,0.5697,0.6224,0.5604,0.4974,0.4922,0.4697,0.4669,0.0,0.0,0.0,0.0,0.0,0.0,0.0,0.0,0.0,0.0,0.0,0.0,-0.5439,-0.6779,-0.7444,-0.7267,-0.6398,-0.5396,-0.4276,-0.4017,-0.3574,-0.2969,-0.2794,-0.258,-0.237,-0.2652,-0.2756,-0.2759,-0.2993,-0.3392,-0.3833,-0.3625,-0.345,-0.3279,-0.2941,-0.2985,-0.3239,-0.3132,-0.3312,-0.3615,-0.3961,-0.4089,-0.4174,-0.4094,-0.414,-0.4142,-0.3709,-0.358,-0.358,-0.358,-0.358,-0.3649,-0.3943,-0.4198,-0.4483,-0.4907,-0.5069,-0.5234,-0.578,-0.6376,-0.6864,-0.7085,-0.7085,-0.7085,-0.7085,-0.7399,-0.761,-0.761,-0.7768,-0.7768,-0.7399,-0.7348,-0.7348,-0.7348,-0.7661,-0.8037,-0.8474,-0.8477,-0.8477,-0.8477,-0.8318,-0.8265,-0.8365,-0.8265,-0.8265,-0.8365,-0.8477,-0.8577,-0.8781,-0.905,-0.9263,-0.9309,-0.9306,-0.9249,0.0,0.0,0.0,0.0,0.0,0.0,0.4521,0.0,0.5556,0.5856,0.6096,0.6326,0.6609,0.6867,0.6992,0.6821,0.6467,0.6308,0.0,0.0,0.0,0.0,0.0,0.0,0.0,0.0,0.0,0.0,-0.0082,-0.2732,-0.541,-0.5453,-0.5686,-0.6317,-0.564,-0.4734,-0.3657,-0.3287,-0.2921,-0.2514,-0.2492,-0.2364,-0.2122,-0.2245,-0.2319,-0.2394,-0.2451,-0.3056,-0.3913,-0.353,-0.3328,-0.3228,-0.2867,-0.2621,-0.2502,-0.2502,-0.2656,-0.295,-0.326,-0.3524,-0.3699,-0.3699,-0.3873,-0.4005,-0.3709,-0.358,-0.358,-0.358,-0.358,-0.3649,-0.3943,-0.4348,-0.4743,-0.4846,-0.5013,-0.5126,-0.5242,-0.5727,-0.6317,-0.692,-0.7028,-0.7028,-0.7028,-0.7085,-0.7085,-0.7085,-0.756,-0.7871,-0.7871,-0.7871,-0.7874,-0.7871,-0.7925,-0.7925,-0.7925,-0.7925,-0.7925,-0.7925,-0.7399,-0.7136,-0.7136,-0.7085,-0.7085,-0.7085,-0.761,-0.7925,-0.7925,-0.853,-0.8956,-0.919,-0.8792,-0.8529,-1.0433,0.0,0.0,0.0,0.0,0.0,0.0,0.0,0.556,0.6515,0.7071,0.7491,0.7702,0.8046,0.8371,0.8613,0.7715,0.6958,0.0,0.0,0.0,0.0,0.0,0.0,0.0,0.0,0.0,0.0,0.3153,0.1304,0.04,-0.3306,-0.522,-0.4818,-0.5906,-0.5941,-0.4762,-0.3807,-0.3208,-0.2991,-0.2471,-0.2276,-0.2386,-0.2184,-0.2164,-0.2329,-0.2154,-0.2386,-0.2918,-0.2946,-0.2917,-0.2867,-0.2759,-0.2621,-0.2502,-0.2502,-0.26,-0.2778,-0.2992,-0.3092,-0.3211,-0.3301,-0.3437,-0.3571,-0.3486,-0.3534,-0.358,-0.358,-0.358,-0.3649,-0.3943,-0.4292,-0.4575,-0.4741,-0.4798,-0.4853,-0.4958,-0.5232,-0.5508,-0.5732,-0.5786,-0.5786,-0.5786,-0.6161,-0.6426,-0.6426,-0.6966,-0.7295,-0.7295,-0.7295,-0.7453,-0.7874,-0.7925,-0.809,-0.853,-0.8533,-0.8533,-0.8533,-0.7987,-0.7661,-0.7661,-0.7295,-0.7085,-0.7085,-0.761,-0.7925,-0.7925,-0.858,-0.8899,-0.8778,-0.8522,-0.8259,-1.1543,0.0,0.0,0.0,0.0,0.0,0.2579,0.4141,0.0,0.0,0.6994,0.7746,0.7938,0.8826,0.9505,0.9475,0.9213,0.8823,0.8279,0.0,0.0,0.0,0.0,0.0,0.0,0.8041,0.7741,0.7286,0.5855,0.4327,0.2789,-0.1332,-0.3805,-0.4144,-0.5079,-0.5437,-0.5117,-0.4309,-0.3584,-0.2985,-0.2661,-0.2446,-0.234,-0.2267,-0.2224,-0.2164,-0.1968,-0.2022,-0.2252,-0.235,-0.2472,-0.2585,-0.2612,-0.254,-0.2431,-0.2431,-0.2539,-0.2726,-0.277,-0.2893,-0.2994,-0.3081,-0.317,-0.326,-0.3352,-0.3444,-0.3534,-0.358,-0.3668,-0.3804,-0.3975,-0.4239,-0.4519,-0.4688,-0.4689,-0.4743,-0.4844,-0.5013,-0.5126,-0.5185,-0.5242,-0.5299,-0.5299,-0.5565,-0.5837,-0.5837,-0.6322,-0.6699,-0.6699,-0.6918,-0.7244,-0.756,-0.756,-0.7774,-0.8368,-0.8212,-0.8212,-0.8421,-0.7883,-0.756,-0.756,-0.7244,-0.7085,-0.7085,-0.761,-0.7982,-0.8089,-0.8566,-0.8554,-0.8129,-0.8046,-0.7847,-1.1999,-1.1794,0.0,0.0,-0.4649,0.0,-0.1089,0.2195,0.4942,0.0,0.6233,0.7412,0.7703,0.9339,1.0406,0.9753,1.0819,1.1303,1.0086,0.0,0.0,0.0,0.0,0.0,0.9797,0.9622,0.9115,0.8148,0.79,0.6451,0.3426,0.067,-0.1599,-0.3289,-0.3587,-0.4082,-0.4852,-0.4702,-0.4047,-0.292,-0.2998,-0.2726,-0.2186,-0.2418,-0.235,-0.2032,-0.1898,-0.186,-0.1872,-0.1785,-0.2001,-0.2374,-0.2422,-0.2384,-0.2277,-0.2277,-0.2453,-0.2648,-0.266,-0.2745,-0.2893,-0.2944,-0.299,-0.3036,-0.3263,-0.3353,-0.3442,-0.3578,-0.3733,-0.39,-0.3966,-0.4216,-0.4477,-0.4625,-0.4675,-0.4666,-0.484,-0.4958,-0.5071,-0.5069,-0.5185,-0.5299,-0.5299,-0.5299,-0.5299,-0.5299,-0.5782,-0.6102,-0.6206,-0.6647,-0.7031,-0.7085,-0.7085,-0.7295,-0.7768,-0.7348,-0.7345,-0.7871,-0.732,-0.7055,-0.7187,-0.7031,-0.6977,-0.7085,-0.7581,-0.8022,-0.8327,-0.8327,-0.8078,-0.751,-0.7527,-0.7419,-1.4734,-1.3691,-1.2239,-1.04,0.0,0.0,-0.1863,0.0758,0.3133,0.0,0.5994,0.7215,0.798,0.9956,1.1134,1.0168,1.2108,1.2877,1.0398,1.0843,0.0,0.0,0.0,0.0,1.0857,1.0117,0.9527,0.9205,0.8219,0.7394,0.6831,0.3453,0.1485,0.1379,-0.2387,-0.4258,-0.396,-0.449,-0.4609,-0.4301,-0.3114,-0.2575,-0.2642,-0.2221,-0.212,-0.2216,-0.1769,-0.1673,-0.1791,-0.1569,-0.1715,-0.2072,-0.2166,-0.2162,-0.215,-0.215,-0.2241,-0.2376,-0.2506,-0.2581,-0.2703,-0.2879,-0.2909,-0.2909,-0.3,-0.3176,-0.3442,-0.3578,-0.3427,-0.3383,-0.3888,-0.4061,-0.4167,-0.4462,-0.4429,-0.4323,-0.4546,-0.4686,-0.4796,-0.4901,-0.5126,-0.5299,-0.5299,-0.5299,-0.5299,-0.5299,-0.5407,-0.5675,-0.6154,-0.6317,-0.6537,-0.7028,-0.7085,-0.7136,-0.7241,-0.7136,-0.7345,-0.7871,-0.6791,-0.6615,-0.7706,-0.6496,-0.6222,-0.7077,-0.7414,-0.7738,-0.8016,-0.8016,-0.7829,-0.7503,-0.7224,-0.7081,-1.4916,-1.4684,-1.4154,-1.3195,0.0,0.0,0.0,-0.2835,0.0288,0.1287,0.37,0.5863,0.6695,0.9004,1.0783,1.0668,1.2621,1.3573,1.194,1.272,0.0,0.0,0.0,0.0,1.2138,1.1525,1.0885,1.0142,0.9405,0.875,0.8182,0.6392,0.4487,0.2516,0.0231,-0.1344,-0.2146,-0.199,-0.2196,-0.2748,-0.1594,-0.1593,-0.2596,-0.2176,-0.2026,-0.2078,-0.1498,-0.141,-0.1632,-0.1349,-0.1301,-0.1392,-0.1915,-0.2115,-0.2115,-0.2115,-0.2192,-0.2313,-0.2463,-0.2584,-0.2668,-0.283,-0.2912,-0.2912,-0.2958,-0.3,-0.2951,-0.2724,-0.2715,-0.2827,-0.3136,-0.3261,-0.3451,-0.3913,-0.3966,-0.3993,-0.4391,-0.4353,-0.4353,-0.4739,-0.4736,-0.4792,-0.5242,-0.5299,-0.5297,-0.5185,-0.5242,-0.5405,-0.5614,-0.5725,-0.5891,-0.6166,-0.622,-0.6327,-0.6647,-0.6645,-0.6915,-0.7453,-0.6863,-0.6744,-0.7312,-0.6561,-0.6444,-0.7138,-0.7699,-0.7846,-0.7699,-0.7699,-0.7542,-0.7241,-0.7091,-0.6979,0.0,0.0,-1.554,0.0,0.0,-1.1178,0.0,0.0,0.0,-0.2017,0.1105,0.0,0.0,0.0,0.0,0.0,0.0,0.0,0.0,1.4627,0.0,0.0,0.0,0.0,1.3883,1.3428,1.2587,1.1122,1.0832,1.0175,0.8933,0.8693,0.6947,0.3333,0.2812,0.1732,-0.0079,0.0567,0.0441,-0.0468,0.0059,-0.0442,-0.1823,-0.2009,-0.1975,-0.1738,-0.1182,-0.1095,-0.1309,-0.0976,-0.0808,-0.0862,-0.1769,-0.2098,-0.2085,-0.2085,-0.218,-0.2279,-0.2391,-0.255,-0.2713,-0.284,-0.2896,-0.287,-0.2822,-0.2597,-0.2281,-0.1829,-0.1876,-0.2135,-0.2319,-0.2429,-0.2654,-0.3278,-0.3408,-0.3515,-0.4061,-0.385,-0.3739,-0.4242,-0.407,-0.4121,-0.5073,-0.524,-0.5185,-0.5069,-0.5128,-0.5185,-0.5069,-0.5183,-0.5242,-0.5242,-0.5299,-0.5513,-0.5993,-0.6048,-0.6268,-0.6866,-0.6783,-0.672,-0.6772,-0.6772,-0.6886,-0.7124,-0.7779,-0.7908,-0.751,-0.7453,-0.7258,-0.6979,-0.6979,-0.6979,0.0,0.0,0.0,0.0,-1.2051,0.0,0.0,0.0,-0.4009,-0.2618,0.0,0.0,0.0,0.0,0.0,0.0,0.0,0.0,1.3971,1.5612,1.6479,0.0,0.0,0.0,0.0,1.5654,1.42,1.2258,1.1987,1.1411,1.0255,0.9179,0.8075,0.6938,0.3874,0.2085,0.1704,0.0943,0.0605,0.0704,0.0428,0.0294,0.0214,-0.1388,-0.1799,-0.1251,-0.0892,-0.0715,-0.0656,-0.0147,-0.038,-0.1112,-0.1815,-0.2101,-0.2095,-0.2095,-0.2098,-0.2119,-0.2129,-0.2356,-0.2636,-0.2846,-0.288,-0.2742,-0.1876,-0.1564,-0.1567,-0.1652,-0.13,-0.1137,-0.2132,-0.229,-0.2251,-0.2605,-0.2606,-0.2593,-0.2867,-0.2847,-0.2904,-0.3072,-0.3072,-0.3459,-0.4732,-0.4956,-0.4956,-0.4899,-0.4956,-0.4956,-0.4899,-0.5014,-0.5126,-0.5126,-0.524,-0.5354,-0.5407,-0.5407,-0.5675,-0.6263,-0.5502,-0.5579,-0.6759,-0.6608,-0.6616,-0.6832,-0.6948,-0.7163,-0.751,-0.7201,-0.7054,-0.6979,-0.6979,-0.6979,0.0,0.0,0.0,0.0,0.0,0.0,-1.0294,0.0,-0.5499,0.0,0.0,0.0,0.0,0.0,0.0,0.0,1.0415,0.0,0.0,0.0,1.633,0.0,0.0,0.0,0.0,0.0,0.0,0.0,1.4203,1.3413,1.1767,1.1114,0.9836,0.7734,0.618,0.4951,0.4044,0.2535,0.127,0.0254,-0.038,-0.1152,-0.2019,-0.203,-0.1775,-0.1298,-0.0915,-0.0649,-0.0451,0.0093,0.0097,-0.0304,-0.1109,-0.1445,-0.1513,-0.1531,-0.1515,-0.1559,-0.1966,-0.218,-0.2364,-0.2761,-0.2913,-0.2608,-0.1075,-0.0583,-0.0583,-0.0672,-0.0717,-0.0815,-0.1274,-0.1365,-0.1475,-0.1976,-0.2047,-0.2106,-0.2598,-0.2402,-0.2292,-0.2682,-0.2515,-0.2569,-0.3457,-0.4065,-0.4343,-0.4291,-0.4624,-0.4899,-0.4794,-0.4959,-0.5126,-0.5126,-0.524,-0.5299,-0.5299,-0.5203,-0.53,-0.556,-0.4952,-0.4878,-0.5441,-0.5734,-0.5808,-0.5759,-0.6158,-0.652,-0.6808,-0.6649,-0.6722,-0.6979,-0.6979,-0.6979,-1.0137,0.0,0.0,0.0,0.0,0.0,0.0,0.0,0.0,0.0,0.0,0.0,0.0,0.0,0.0,0.0,0.0,0.0,0.0,0.0,0.0,0.0,0.0,0.0,0.0,0.0,0.0,0.0,0.0,1.5092,1.2967,1.2478,1.0992,0.8214,0.7822,0.6656,0.458,0.3322,0.1676,-0.0344,-0.1115,-0.2045,-0.3058,-0.2457,-0.1953,-0.1539,-0.1023,-0.0624,-0.0291,0.0269,0.0465,0.0343,-0.0301,-0.0619,-0.074,-0.0799,-0.0796,-0.0913,-0.1583,-0.1943,-0.2186,-0.2742,-0.289,-0.2526,-0.0582,-0.0,-0.0,-0.0,-0.0315,-0.0634,-0.07,-0.0752,-0.0908,-0.1324,-0.1456,-0.1586,-0.2079,-0.1889,-0.1674,-0.2099,-0.1834,-0.1674,-0.2154,-0.2994,-0.3678,-0.3739,-0.4181,-0.4555,-0.4576,-0.4825,-0.5001,-0.5008,-0.5158,-0.5242,-0.5299,-0.5186,-0.5037,-0.494,-0.4642,-0.4477,-0.4427,-0.4872,-0.507,-0.5009,-0.5509,-0.5908,-0.6118,-0.6249,-0.6462,-0.6807,-0.6937,-0.6979,0.0,0.0,0.0,-0.8121,0.0,0.0,0.0,0.0,-0.642,0.0,0.0,0.0,0.0,0.0,0.0,0.0,0.0,0.0,0.0,0.0,0.0,0.0,0.0,0.0,0.0,0.0,0.0,0.0,0.0,0.0,1.3608,1.2474,1.1009,0.9021,0.8004,0.5803,0.2243,0.2533,0.1564,-0.0693,-0.1366,-0.1446,-0.1035,-0.2161,-0.2433,-0.1945,-0.1149,-0.0576,-0.0156,0.0512,0.0625,0.0406,0.0366,0.0278,0.0156,-0.0,-0.0032,-0.0134,-0.0876,-0.1571,-0.2186,-0.2742,-0.2914,-0.2554,-0.0577,-0.0,-0.0,-0.0,-0.018,-0.045,-0.063,-0.0721,-0.0729,-0.0807,-0.0838,-0.0868,-0.0953,-0.0931,-0.0944,-0.0967,-0.0932,-0.0944,-0.0966,-0.1969,-0.2957,-0.3515,-0.3626,-0.3805,-0.4168,-0.4489,-0.474,-0.4692,-0.4923,-0.5183,-0.5299,-0.5186,-0.4934,-0.4538,-0.4505,-0.4421,-0.429,-0.4326,-0.4539,-0.5007,-0.5014,-0.5272,-0.5739,-0.6118,-0.6292,-0.6331,-0.6807,-0.6979,0.0,0.0,-0.7027,-0.6519,0.0,0.0,0.0,0.0,0.0,0.0,0.0,0.0,0.0,0.0,0.0,0.0,0.0,0.0,0.0,0.0,0.0,0.0,0.0,0.0,0.0,0.0,0.0,0.0,1.8293,0.0,0.0,1.3806,1.194,0.9998,0.8351,0.576,0.2143,0.026,-0.1728,-0.382,-0.4626,-0.4632,-0.3915,-0.308,-0.2454,-0.1969,-0.1423,-0.0824,-0.0178,0.0245,0.049,0.0603,0.0643,0.0625,0.0538,0.0147,-0.0,-0.0032,-0.0299,-0.0522,-0.0879,-0.2016,-0.1728,-0.0852,-0.0212,-0.0,-0.0,-0.0,-0.018,-0.045,-0.0629,-0.0719,-0.0727,-0.0805,-0.0821,-0.0787,-0.0816,-0.083,-0.0834,-0.0824,-0.0831,-0.0834,-0.0824,-0.1193,-0.1631,-0.2261,-0.2697,-0.3111,-0.354,-0.388,-0.4148,-0.4453,-0.4854,-0.507,-0.5001,-0.4828,-0.4625,-0.4382,-0.4365,-0.4339,-0.432,-0.4318,-0.436,-0.4532,-0.4532,-0.4748,-0.5221,-0.5696,-0.6036,-0.6292,-0.6764,-0.6979,-0.5308,-0.5351,0.0,-0.5123,-0.5037,0.0,-0.5197,0.0,0.0,0.0,0.0,0.0,0.0,0.0,0.0,0.0,0.0,0.0,0.0,0.839,0.0,0.0,0.0,0.0,0.0,0.0,1.939,1.9033,1.8753,0.0,0.0,0.0,1.2426,1.0671,0.8341,0.5463,0.1982,-0.1157,-0.373,-0.573,-0.6697,-0.6618,-0.555,-0.3964,-0.2873,-0.2211,-0.1642,-0.0954,-0.0177,0.0244,0.0622,0.096,0.1004,0.0969,0.0833,0.0331,0.0089,0.0031,0.0297,0.0206,-0.0142,-0.1052,-0.0746,0.0116,0.0826,0.0547,-0.0,-0.0,-0.018,-0.045,-0.0629,-0.0719,-0.0724,-0.0744,-0.0804,-0.0818,-0.0788,-0.08,-0.0804,-0.0794,-0.08,-0.0804,-0.0793,-0.0792,-0.1001,-0.1607,-0.204,-0.2449,-0.2913,-0.334,-0.3695,-0.4035,-0.4522,-0.4809,-0.468,-0.4564,-0.4423,-0.4286,-0.4318,-0.4318,-0.4318,-0.4318,-0.4318,-0.4318,-0.4318,-0.4532,-0.5007,-0.5483,-0.5907,-0.6292,-0.6764,-0.6979]},{"header":{"parameterUnit":"m.s-1","parameterCategory":1,"la1":30.6,"la2":29.2853,"lo1":-89.7004,"lo2":-87.6739,"dy":0.0162,"dx":0.0183,"nx":112,"ny":82,"refTime":"2024-07-10T18:00:00:Z","depth":0,"parameterNumber":3,"parameterNumberName":"V-component_of_WINDS"},"data":[0.0,0.0,0.0,0.0,0.0,0.0,0.0,0.0,0.0,0.0,0.0,0.0,0.0,0.0,0.0,0.0,0.0,0.0,0.0,0.0,0.0,0.0,0.0,0.0,0.0,0.0,0.0,0.0,0.0,0.0,0.0,0.0,0.0,0.0,0.0,0.0,0.0,0.0,0.0,0.0,0.0,0.0,0.0,0.0,0.0,0.0,0.0,0.0,0.0,0.0,0.0,0.0,0.0,0.0,0.0,0.0,0.0,0.0,0.0,0.0,0.0,0.0,0.0,0.0,0.0,0.0,0.0,0.0,0.0,0.0,0.0,0.0,0.0,0.0,0.0,0.0,0.0,0.0,0.0,0.0,0.0,0.0,0.0,0.0,0.0,0.0,0.0,0.0,0.0,0.0,-0.9971,-0.9832,-1.0162,-1.0418,-1.0462,-1.0866,-1.1282,-1.1774,0.0,0.0,0.0,0.0,0.0,0.0,0.0,0.0,0.0,0.0,0.0,0.0,0.0,0.0,0.0,0.0,0.0,0.0,0.0,0.0,0.0,0.0,0.0,0.0,0.0,0.0,0.0,0.0,0.0,0.0,0.0,0.0,0.0,0.0,0.0,0.0,0.0,0.0,0.0,0.0,0.0,0.0,0.0,0.0,0.0,0.0,0.0,0.0,0.0,0.0,0.0,0.0,0.0,0.0,0.0,0.0,0.0,0.0,0.0,0.0,0.0,0.0,0.0,0.0,0.0,0.0,0.0,0.0,0.0,0.0,0.0,0.0,0.0,0.0,0.0,0.0,0.0,0.0,0.0,0.0,0.0,0.0,0.0,0.0,0.0,0.0,0.0,0.0,0.0,0.0,0.0,0.0,0.0,0.0,0.0,0.0,0.0,0.0,0.0,0.0,0.0,0.0,0.0,0.0,-0.9971,-1.0273,-1.0346,-1.0505,-1.0799,-1.1495,-1.1926,-1.1878,0.0,0.0,0.0,0.0,0.0,0.0,0.0,0.0,0.0,0.0,0.0,0.0,0.0,0.0,0.0,0.0,0.0,0.0,0.0,0.0,0.0,0.0,0.0,0.0,0.0,0.0,0.0,0.0,0.0,0.0,0.0,0.0,0.0,0.0,0.0,0.0,0.0,0.0,0.0,0.0,0.0,0.0,0.0,0.0,0.0,0.0,0.0,0.0,0.0,0.0,0.0,0.0,0.0,0.0,0.0,0.0,0.0,0.0,0.0,0.0,0.0,0.0,0.0,0.0,0.0,0.0,0.0,0.0,0.0,0.0,0.0,0.0,0.0,0.0,0.0,0.0,0.0,0.0,0.0,0.0,0.0,0.0,0.0,0.0,0.0,0.0,0.0,0.0,0.0,0.0,0.0,0.0,0.0,0.0,0.0,0.0,0.0,0.0,0.0,0.0,0.0,0.0,0.0,-1.0123,-1.001,-1.038,-1.0544,-1.0718,-1.0891,-1.1458,-1.1805,-1.1903,-1.2029,0.0,0.0,0.0,0.0,0.0,0.0,0.0,0.0,0.0,0.0,0.0,0.0,0.0,0.0,0.0,0.0,0.0,0.0,0.0,0.0,0.0,0.0,0.0,0.0,0.0,0.0,0.0,0.0,0.0,0.0,0.0,0.0,0.0,0.0,0.0,0.0,0.0,0.0,0.0,0.0,0.0,0.0,0.0,0.0,0.0,0.0,0.0,0.0,0.0,0.0,0.0,0.0,0.0,0.0,0.0,0.0,0.0,0.0,0.0,0.0,0.0,0.0,0.0,0.0,0.0,0.0,0.0,0.0,0.0,0.0,0.0,0.0,0.0,0.0,0.0,0.0,0.0,0.0,0.0,0.0,0.0,0.0,0.0,0.0,0.0,0.0,0.0,0.0,0.0,0.0,0.0,0.0,0.0,0.0,0.0,0.0,0.0,0.0,0.0,0.0,0.0,0.0,-1.0322,-1.0288,-1.051,-1.0756,-1.0924,-1.1028,-1.1415,-1.1774,-1.2018,-1.2425,0.0,0.0,0.0,0.0,0.0,0.0,0.0,0.0,0.0,0.0,0.0,0.0,0.0,0.0,0.0,0.0,0.0,0.0,0.0,0.0,0.0,0.0,0.0,0.0,0.0,0.0,0.0,0.0,0.0,0.0,0.0,0.0,0.0,0.0,0.0,0.0,0.0,0.0,0.0,0.0,0.0,0.0,0.0,0.0,0.0,0.0,0.0,0.0,0.0,0.0,0.0,0.0,0.0,0.0,0.0,0.0,0.0,0.0,0.0,0.0,0.0,0.0,0.0,0.0,0.0,0.0,0.0,0.0,0.0,0.0,0.0,0.0,0.0,0.0,0.0,0.0,0.0,0.0,0.0,0.0,0.0,0.0,0.0,0.0,0.0,0.0,0.0,0.0,0.0,0.0,0.0,0.0,0.0,0.0,0.0,0.0,0.0,0.0,0.0,0.0,0.0,0.0,-1.0713,-1.0848,-1.0848,-1.0891,-1.1061,-1.1447,-1.1811,-1.218,-1.2431,-1.3063,0.0,0.0,0.0,0.0,0.0,0.0,0.0,0.0,0.0,0.0,0.0,0.0,0.0,0.0,0.0,0.0,0.0,0.0,0.0,0.0,0.0,0.0,0.0,0.0,0.0,0.0,0.0,0.0,0.0,0.0,0.0,0.0,0.0,0.0,0.0,0.0,0.0,0.0,0.0,0.0,0.0,0.0,0.0,0.0,0.0,0.0,0.0,0.0,0.0,0.0,0.0,0.0,0.0,0.0,0.0,0.0,0.0,0.0,0.0,0.0,0.0,0.0,0.0,0.0,0.0,0.0,0.0,0.0,0.0,0.0,0.0,0.0,0.0,0.0,0.0,0.0,0.0,0.0,0.0,0.0,0.0,0.0,0.0,0.0,0.0,0.0,0.0,0.0,0.0,0.0,0.0,0.0,0.0,0.0,0.0,0.0,0.0,0.0,0.0,0.0,0.0,0.0,-1.0674,-1.0674,-1.0886,-1.1131,-1.1346,-1.1479,-1.206,-1.2461,-1.2567,0.0,0.0,0.0,0.0,0.0,0.0,0.0,0.0,0.0,0.0,0.0,0.0,0.0,0.0,0.0,0.0,0.0,0.0,0.0,0.0,0.0,0.0,0.0,0.0,0.0,0.0,0.0,0.0,0.0,0.0,0.0,0.0,0.0,0.0,0.0,0.0,0.0,0.0,0.0,0.0,0.0,0.0,0.0,0.0,0.0,0.0,0.0,0.0,0.0,0.0,0.0,0.0,0.0,0.0,0.0,0.0,0.0,0.0,0.0,0.0,0.0,0.0,0.0,0.0,0.0,0.0,0.0,0.0,0.0,0.0,0.0,0.0,0.0,0.0,0.0,0.0,0.0,0.0,0.0,0.0,0.0,0.0,0.0,0.0,0.0,0.0,0.0,0.0,0.0,0.0,0.0,0.0,0.0,0.0,0.0,0.0,0.0,0.0,0.0,0.0,0.0,0.0,-1.0886,-1.0817,-1.0845,-1.1056,-1.1452,-1.1737,-1.1836,-1.2312,-1.2632,-1.2785,0.0,0.0,0.0,0.0,0.0,0.0,0.0,0.0,0.0,0.0,0.0,0.0,0.0,0.0,0.0,0.0,0.0,0.0,0.0,0.0,0.0,0.0,0.0,0.0,0.0,0.0,0.0,0.0,0.0,0.0,0.0,0.0,0.0,0.0,0.0,0.0,0.0,0.0,0.0,0.0,0.0,0.0,0.0,0.0,0.0,0.0,0.0,0.0,0.0,0.0,0.0,0.0,0.0,0.0,0.0,0.0,0.0,0.0,0.0,0.0,0.0,0.0,0.0,0.0,0.0,0.0,0.0,0.0,0.0,0.0,0.0,0.0,0.0,0.0,0.0,0.0,0.0,0.0,0.0,0.0,0.0,0.0,0.0,0.0,0.0,0.0,0.0,0.0,0.0,0.0,0.0,0.0,0.0,0.0,0.0,0.0,0.0,0.0,0.0,0.0,0.0,0.0,-1.0924,-1.1271,-1.1516,-1.1516,-1.1853,-1.2252,-1.2561,-1.2603,-1.2785,0.0,0.0,0.0,0.0,0.0,0.0,0.0,0.0,0.0,0.0,0.0,0.0,0.0,0.0,0.0,0.0,0.0,0.0,0.0,0.0,0.0,0.0,0.0,0.0,0.0,0.0,0.0,0.0,0.0,0.0,0.0,0.0,0.0,0.0,0.0,0.0,0.0,0.0,0.0,0.0,0.0,0.0,0.0,0.0,0.0,0.0,0.0,0.0,0.0,0.0,0.0,0.0,0.0,0.0,0.0,0.0,0.0,0.0,0.0,0.0,0.0,0.0,0.0,0.0,0.0,0.0,0.0,0.0,0.0,0.0,0.0,0.0,0.0,0.0,0.0,0.0,0.0,0.0,0.0,0.0,0.0,0.0,0.0,0.0,0.0,0.0,0.0,0.0,0.0,0.0,0.0,0.0,0.0,0.0,0.0,0.0,0.0,0.0,0.0,0.0,0.0,0.0,0.0,-1.1303,-1.1669,-1.1926,-1.1926,-1.2246,-1.2496,-1.2603,-1.2861,-1.3082,-1.3198,0.0,0.0,0.0,0.0,0.0,0.0,0.0,0.0,0.0,0.0,0.0,0.0,0.0,0.0,0.0,0.0,0.0,0.0,0.0,0.0,0.0,0.0,0.0,0.0,0.0,0.0,0.0,0.0,0.0,0.0,0.0,0.0,0.0,0.0,0.0,0.0,0.0,0.0,0.0,0.0,0.0,0.0,0.0,0.0,0.0,0.0,0.0,0.0,0.0,0.0,0.0,0.0,0.0,0.0,0.0,0.0,0.0,0.0,0.0,0.0,0.0,0.0,0.0,0.0,0.0,0.0,0.0,0.0,0.0,0.0,0.0,0.0,0.0,0.0,0.0,0.0,0.0,0.0,0.0,0.0,0.0,0.0,0.0,0.0,0.0,0.0,0.0,0.0,0.0,0.0,0.0,0.0,0.0,0.0,0.0,0.0,0.0,0.0,0.0,0.0,0.0,0.0,-1.1737,-1.2071,-1.2282,-1.2282,-1.2609,-1.2826,-1.2826,-1.3145,-1.3357,-1.3357,0.0,0.0,0.0,0.0,0.0,0.0,0.0,0.0,0.0,0.0,0.0,0.0,0.0,0.0,0.0,0.0,0.0,0.0,0.0,0.0,0.0,0.0,0.0,0.0,0.0,0.0,0.0,0.0,0.0,0.0,0.0,0.0,0.0,0.0,0.0,0.0,0.0,0.0,0.0,0.0,0.0,0.0,0.0,0.0,0.0,0.0,0.0,0.0,0.0,0.0,0.0,0.0,0.0,0.0,0.0,0.0,0.0,0.0,0.0,0.0,0.0,0.0,0.0,0.0,0.0,0.0,0.0,0.0,0.0,0.0,0.0,0.0,0.0,0.0,0.0,0.0,0.0,0.0,0.0,0.0,0.0,0.0,0.0,0.0,0.0,0.0,0.0,0.0,0.0,0.0,0.0,0.0,0.0,0.0,0.0,0.0,0.0,0.0,0.0,0.0,0.0,0.0,-1.2144,-1.2425,-1.2673,-1.2673,-1.2978,-1.3198,-1.3198,-1.3452,-1.3615,-1.3581,0.0,0.0,0.0,0.0,0.0,0.0,0.0,0.0,0.0,0.0,0.0,0.0,0.0,0.0,0.0,0.0,0.0,0.0,0.0,0.0,0.0,0.0,0.0,0.0,0.0,0.0,0.0,0.0,0.0,0.0,0.0,0.0,0.0,0.0,0.0,0.0,0.0,0.0,0.0,0.0,0.0,0.0,0.0,0.0,0.0,0.0,0.0,0.0,0.0,0.0,0.0,0.0,0.0,0.0,0.0,0.0,0.0,0.0,0.0,0.0,-1.1898,0.0,0.0,0.0,0.0,0.0,0.0,0.0,0.0,0.0,0.0,0.0,0.0,0.0,0.0,0.0,0.0,0.0,0.0,0.0,0.0,0.0,0.0,0.0,0.0,0.0,0.0,0.0,0.0,0.0,0.0,0.0,0.0,0.0,0.0,0.0,0.0,0.0,0.0,0.0,0.0,0.0,-1.2496,-1.2826,-1.3088,-1.3088,-1.3157,-1.317,-1.3135,-1.3425,-1.3581,-1.352,-1.4241,0.0,0.0,0.0,0.0,0.0,0.0,0.0,0.0,0.0,0.0,0.0,0.0,0.0,0.0,0.0,0.0,0.0,0.0,0.0,0.0,0.0,0.0,0.0,0.0,0.0,0.0,0.0,0.0,0.0,0.0,0.0,0.0,0.0,0.0,0.0,0.0,0.0,0.0,0.0,0.0,0.0,0.0,0.0,0.0,0.0,0.0,0.0,0.0,0.0,0.0,0.0,0.0,0.0,0.0,0.0,0.0,0.0,0.0,0.0,0.0,-1.2513,0.0,0.0,0.0,0.0,0.0,0.0,0.0,0.0,0.0,0.0,0.0,0.0,0.0,0.0,0.0,0.0,0.0,0.0,0.0,0.0,0.0,0.0,0.0,0.0,0.0,0.0,0.0,0.0,0.0,0.0,0.0,0.0,0.0,0.0,0.0,0.0,0.0,0.0,0.0,0.0,-1.3281,-1.3208,-1.3235,-1.3496,-1.3291,-1.3085,-1.287,-1.3446,-1.3782,-1.36,-1.4387,0.0,0.0,0.0,0.0,0.0,0.0,0.0,0.0,0.0,0.0,0.0,0.0,0.0,0.0,0.0,0.0,0.0,0.0,0.0,0.0,0.0,0.0,0.0,0.0,0.0,0.0,0.0,0.0,0.0,0.0,0.0,0.0,0.0,0.0,0.0,0.0,0.0,0.0,0.0,0.0,0.0,0.0,0.0,0.0,0.0,0.0,0.0,0.0,0.0,0.0,0.0,0.0,0.0,-1.2774,-1.2803,-1.2803,-1.2838,-1.3035,-1.3291,-1.3359,-1.3359,-1.3331,-1.3705,0.0,0.0,0.0,0.0,0.0,0.0,0.0,0.0,0.0,0.0,0.0,0.0,0.0,0.0,0.0,0.0,0.0,0.0,0.0,0.0,0.0,0.0,0.0,0.0,-1.3641,-1.3647,0.0,0.0,0.0,0.0,0.0,0.0,0.0,0.0,0.0,0.0,0.0,0.0,-1.4028,-1.3711,-1.3559,-1.395,-1.3617,-1.3169,-1.2723,-1.3522,-1.387,-1.3538,-1.4343,-1.4848,0.0,0.0,0.0,0.0,0.0,0.0,0.0,0.0,0.0,0.0,0.0,0.0,0.0,0.0,0.0,0.0,0.0,0.0,0.0,0.0,0.0,0.0,0.0,0.0,0.0,0.0,0.0,0.0,0.0,0.0,0.0,0.0,-0.8713,-0.8807,0.0,0.0,0.0,0.0,0.0,0.0,0.0,0.0,0.0,0.0,0.0,0.0,0.0,-1.2637,-1.2709,-1.2709,-1.2709,-1.2709,-1.2994,-1.312,-1.3154,-1.3433,-1.3602,-1.3642,-1.3987,0.0,-1.3681,-1.4306,0.0,0.0,0.0,0.0,0.0,0.0,0.0,0.0,0.0,0.0,0.0,0.0,0.0,0.0,0.0,0.0,0.0,0.0,0.0,0.0,0.0,0.0,-1.3748,-1.3748,-1.3781,-1.3788,0.0,-1.3941,-1.4308,-1.4651,-1.479,0.0,0.0,0.0,0.0,0.0,0.0,0.0,-1.4079,-1.4444,-1.4576,-1.437,-1.4375,-1.4,-1.3025,-1.3449,-1.3458,-1.2801,-1.3735,-1.427,-1.4212,-1.4823,0.0,0.0,0.0,0.0,0.0,0.0,0.0,0.0,0.0,0.0,0.0,0.0,0.0,0.0,0.0,0.0,0.0,0.0,0.0,0.0,0.0,0.0,0.0,0.0,0.0,0.0,0.0,0.0,0.0,-0.8109,-0.8684,-0.9191,-0.9325,-0.9509,0.0,0.0,0.0,0.0,0.0,0.0,0.0,0.0,0.0,-1.2697,-1.2709,-1.2848,-1.3149,-1.3385,-1.3481,-1.3457,-1.3865,-1.3837,-1.3501,-1.3635,-1.3815,-1.4052,-1.4222,-1.4326,-1.4326,-1.4498,-1.4507,-1.4393,0.0,0.0,0.0,0.0,-1.4851,-1.5003,-1.5828,-1.6073,0.0,-1.6291,0.0,0.0,0.0,0.0,0.0,0.0,0.0,0.0,0.0,0.0,-1.3788,-1.3788,-1.3788,-1.3906,-1.4398,-1.4609,-1.4705,0.0,-1.5191,-1.5299,-1.4236,0.0,0.0,0.0,0.0,-1.474,-1.5318,-1.5286,-1.5336,-1.5746,-1.5243,-1.4466,-1.3476,-1.3626,-1.3396,-1.2548,-1.3569,-1.4206,-1.4163,-1.495,-1.5321,0.0,0.0,0.0,0.0,0.0,0.0,0.0,0.0,0.0,0.0,0.0,0.0,0.0,0.0,0.0,0.0,0.0,0.0,0.0,0.0,0.0,0.0,0.0,0.0,0.0,0.0,0.0,0.0,-0.8492,-0.8963,-0.9607,-0.9729,-0.987,0.0,0.0,0.0,0.0,0.0,0.0,-1.2986,-1.3077,-1.3113,-1.315,-1.3113,-1.3331,-1.3832,-1.415,-1.4322,-1.4396,-1.4843,-1.4729,-1.4099,-1.4159,-1.4285,-1.4422,-1.4422,-1.4639,-1.4977,-1.4846,-1.4614,-1.4352,-1.4326,-1.4206,-1.4117,-1.4483,-1.4675,-1.4946,-1.5953,-1.6452,-1.6697,-1.6825,0.0,-1.705,-1.6761,0.0,0.0,0.0,0.0,-1.4426,-1.45,-1.4293,-1.4072,-1.4072,-1.4072,-1.4219,-1.4782,-1.5074,-1.5154,0.0,-1.5732,-1.6093,-1.493,0.0,0.0,0.0,0.0,-1.5692,-1.648,-1.623,-1.6266,-1.6957,-1.6248,-1.5289,-1.4174,-1.4144,-1.3763,-1.2711,-1.3641,-1.4227,-1.4227,-1.5067,-1.5536,-1.5536,0.0,0.0,0.0,0.0,0.0,0.0,0.0,0.0,0.0,0.0,0.0,0.0,0.0,0.0,0.0,0.0,0.0,0.0,0.0,0.0,0.0,0.0,0.0,0.0,0.0,0.0,0.0,0.0,0.0,-1.0159,-1.0556,0.0,0.0,0.0,0.0,-1.2748,-1.3253,-1.3606,-1.3736,-1.4055,-1.425,-1.4323,-1.425,-1.4401,-1.4821,-1.486,-1.5088,-1.5507,-1.5864,-1.5704,-1.5135,-1.5432,-1.5284,-1.477,-1.477,-1.5035,-1.5473,-1.5599,-1.5506,-1.5305,-1.5203,-1.5038,-1.4831,-1.4662,-1.4598,-1.4754,-1.5707,-1.5654,-1.5352,-1.6235,-1.6159,-1.5795,-1.6417,-1.5771,0.0,0.0,-1.615,-1.5029,-1.6165,-1.5618,-1.4739,-1.4739,-1.4739,-1.4739,-1.4644,-1.5129,-1.5646,0.0,-1.663,-1.6937,-1.6234,0.0,-1.6739,-1.625,-1.6593,-1.6912,-1.6946,-1.7375,-1.7615,-1.7387,-1.7381,-1.6761,-1.5255,-1.5202,-1.4674,-1.343,-1.3941,-1.4283,-1.4283,-1.5138,-1.5587,-1.5587,-1.5809,0.0,0.0,0.0,0.0,0.0,0.0,0.0,0.0,0.0,0.0,0.0,0.0,0.0,0.0,0.0,0.0,0.0,0.0,0.0,0.0,0.0,0.0,0.0,0.0,0.0,0.0,0.0,0.0,-1.0603,-1.0778,0.0,-1.1462,-1.2043,-1.2617,-1.305,-1.3832,-1.4258,-1.4199,-1.4298,-1.4468,-1.4723,-1.4684,-1.5054,-1.5854,-1.6112,-1.6311,-1.6431,-1.6872,-1.6757,-1.6167,-1.6305,-1.622,-1.6017,-1.6017,-1.6109,-1.6278,-1.6305,-1.5923,-1.5244,-1.4933,-1.4863,-1.4905,-1.4976,-1.5211,-1.5557,-1.5881,-1.6186,-1.6468,-1.7098,-1.7437,-1.7573,-1.7356,-1.7309,-1.7305,-1.7329,-1.6843,-1.63,-1.6117,-1.5781,-1.5325,-1.4893,-1.4801,-1.4825,-1.4883,-1.5184,-1.5475,-1.5673,-1.6152,-1.6339,-1.5631,-1.5933,-1.6116,-1.5611,-1.5946,-1.6529,-1.7232,-1.7481,-1.7828,-1.8434,-1.8186,-1.7554,-1.6561,-1.5753,-1.4928,-1.4036,-1.4188,-1.4311,-1.4311,-1.5394,-1.6001,-1.6001,-1.6316,-1.637,0.0,0.0,0.0,0.0,0.0,0.0,0.0,0.0,0.0,0.0,0.0,0.0,0.0,0.0,0.0,0.0,0.0,0.0,0.0,0.0,0.0,0.0,0.0,0.0,0.0,0.0,-1.0541,-1.085,-1.098,-1.1185,-1.1547,-1.2406,-1.3129,-1.3481,-1.4373,-1.4903,-1.4796,-1.4845,-1.5053,-1.5505,-1.5472,-1.5895,-1.6857,-1.7134,-1.7329,-1.7452,-1.7748,-1.759,-1.6993,-1.6993,-1.6881,-1.6684,-1.6684,-1.681,-1.6979,-1.6867,-1.6536,-1.6062,-1.5557,-1.5498,-1.5737,-1.5778,-1.6007,-1.6295,-1.6367,-1.6781,-1.7331,-1.7617,-1.7988,-1.8336,-1.8119,-1.8201,-1.8306,-1.8086,-1.7702,-1.7243,-1.6597,-1.6265,-1.5948,-1.5284,-1.514,-1.5156,-1.5262,-1.5359,-1.5485,-1.5514,-1.5934,-1.6131,-1.5624,-1.5965,-1.6228,-1.5882,-1.6146,-1.6612,-1.7341,-1.7618,-1.8027,-1.8716,-1.8622,-1.8245,-1.7599,-1.6568,-1.5668,-1.4993,-1.4877,-1.4809,-1.4766,-1.5682,-1.6203,-1.6203,-1.6509,-1.6509,-1.6219,0.0,0.0,0.0,0.0,0.0,0.0,0.0,0.0,0.0,0.0,0.0,0.0,0.0,0.0,0.0,0.0,0.0,0.0,0.0,0.0,0.0,0.0,0.0,-1.0221,-1.0603,-1.0886,-1.0886,-1.1282,-1.1686,-1.21,-1.2994,-1.3735,-1.4135,-1.4964,-1.5455,-1.5531,-1.5727,-1.6088,-1.6716,-1.6595,-1.697,-1.7794,-1.7834,-1.8049,-1.8517,-1.8517,-1.8201,-1.7632,-1.7632,-1.7309,-1.6747,-1.6747,-1.7077,-1.762,-1.7206,-1.7404,-1.7885,-1.7134,-1.7028,-1.7286,-1.7089,-1.6972,-1.6938,-1.7156,-1.7438,-1.769,-1.769,-1.7705,-1.7839,-1.8508,-1.8276,-1.8018,-1.9323,-1.8762,-1.7749,-1.7727,-1.7234,-1.6577,-1.5986,-1.5814,-1.5777,-1.5668,-1.5719,-1.5741,-1.5573,-1.6029,-1.6463,-1.6361,-1.6808,-1.7183,-1.7216,-1.7183,0.0,-1.7245,-1.7779,-1.815,-1.8172,-1.8709,-1.8833,-1.8252,-1.7661,-1.6998,-1.6278,-1.604,-1.5856,-1.574,-1.606,-1.6262,-1.6262,-1.6394,-1.6332,-1.6095,0.0,0.0,0.0,0.0,0.0,0.0,0.0,0.0,0.0,0.0,0.0,0.0,0.0,0.0,0.0,0.0,0.0,0.0,0.0,0.0,0.0,-1.0697,-1.1095,-1.0747,-1.0809,-1.0886,-1.0886,-1.1609,-1.2229,-1.2655,-1.3875,-1.4823,-1.5241,-1.5853,-1.6168,-1.6132,-1.6446,-1.6772,-1.7111,-1.7332,-1.7713,-1.8307,-1.8307,-1.8386,-1.8517,-1.8517,-1.8426,-1.8264,-1.8264,-1.8173,-1.8019,-1.8019,-1.821,-1.8527,-1.8423,-1.8732,-1.9165,-1.7865,-1.7529,-1.7704,-1.7439,-1.7331,-1.7298,-1.7584,-1.769,-1.769,-1.769,-1.8044,-1.847,-1.865,-1.8912,-1.9226,-1.9585,-1.942,-1.9039,-1.856,-1.7914,-1.7257,-1.66,-1.6114,-1.5897,-1.6308,-1.601,-1.578,-1.6217,-1.5986,-1.5697,-1.5727,-1.5874,-1.5961,-1.593,-1.5961,0.0,-1.6455,-1.6768,-1.7115,-1.7508,-1.8168,-1.8511,-1.8293,-1.7884,-1.7535,-1.7215,-1.6524,-1.6315,-1.6768,-1.7114,-1.7318,-1.742,-1.7373,-1.6999,0.0,0.0,0.0,0.0,0.0,0.0,0.0,0.0,0.0,0.0,0.0,0.0,0.0,0.0,0.0,0.0,0.0,0.0,0.0,0.0,0.0,0.0,-1.0961,-1.1276,-1.1204,-1.1,-1.0953,-1.1178,-1.1997,-1.2709,-1.3167,-1.4514,-1.5428,-1.5693,-1.613,-1.6355,-1.6318,-1.6577,-1.6899,-1.7256,-1.7625,-1.8009,-1.8517,-1.8517,-1.8517,-1.8517,-1.8517,-1.8517,-1.8517,-1.8517,-1.8517,0.0,-1.862,-1.8767,-1.8905,-1.9124,-1.945,0.0,0.0,0.0,0.0,0.0,-1.8511,-1.8511,-1.8695,-1.8736,-1.8654,-1.8587,-1.8841,-1.9156,-1.9121,-1.9383,-1.9682,-1.9682,-1.9682,-1.954,-1.8874,-1.8418,-1.7936,-1.7279,-1.6831,-1.6659,-1.7001,-1.6692,-1.6529,-1.7095,-1.6794,0.0,-1.6728,-1.6226,-1.5791,-1.5813,-1.6101,-1.6283,-1.6276,-1.6649,-1.7012,-1.7238,-1.7905,-1.832,-1.83,-1.8249,0.0,0.0,0.0,-1.7468,-1.7813,-1.8035,0.0,0.0,0.0,0.0,0.0,0.0,0.0,0.0,-1.6713,-1.6622,0.0,0.0,0.0,0.0,0.0,0.0,0.0,0.0,0.0,0.0,0.0,0.0,0.0,0.0,0.0,0.0,-1.0997,-1.1116,-1.1487,-1.1201,-1.1173,-1.1708,-1.2529,-1.3252,-1.3709,-1.5002,-1.5787,-1.5787,-1.6125,-1.6324,-1.6324,0.0,0.0,0.0,0.0,-1.8088,-1.8517,-1.8517,-1.8517,-1.8517,-1.8517,-1.8517,-1.8549,-1.8549,-1.8549,-1.8627,-1.8836,-1.8974,-1.9049,-1.9493,-1.9726,-1.9754,-1.9775,-1.9917,-2.008,-1.999,-1.9962,-1.9962,-1.9962,0.0,0.0,-1.9841,-1.9805,-1.9805,-1.9726,-1.9682,-1.9682,-1.9682,-1.9682,-1.9548,-1.8964,-1.8762,-1.856,-1.7936,-1.7742,-1.7705,-1.7779,-1.7654,-1.7675,-1.8119,-1.8104,-1.8168,-1.8539,-1.7416,-1.6513,-1.6612,-1.7139,-1.7301,-1.6693,-1.7193,-1.7541,-1.7368,0.0,0.0,-1.8433,-1.8714,-1.895,-1.9014,-1.9029,-1.9012,-1.8884,-1.9017,-1.8966,-1.8713,-1.8675,-1.8614,-1.8575,-1.8585,-1.8532,-1.8354,-1.8056,-1.7627,0.0,0.0,0.0,0.0,0.0,0.0,0.0,0.0,0.0,0.0,0.0,0.0,0.0,0.0,0.0,-1.2073,-1.1715,-1.1349,-1.109,-1.1222,-1.1735,-1.2634,-1.3549,-1.4291,-1.4749,-1.5726,-1.6365,-1.6365,-1.6756,-1.6989,-1.6989,-1.7625,-1.7981,-1.8068,-1.8372,-1.8549,-1.8673,-1.8556,-1.8517,-1.8517,0.0,0.0,-1.8836,-1.8836,-1.895,-1.9228,-1.9295,-1.9428,-1.9616,-1.9675,-1.9826,-2.0003,-1.9869,-1.9876,-1.999,-1.9876,-1.9841,-1.9841,-1.9841,-1.9841,-1.9841,-1.9762,-1.9762,-1.9805,-1.9726,-1.9682,0.0,-1.9682,-1.9682,-1.966,-1.9525,-1.9106,-1.8672,-1.8545,-1.8341,-1.829,-1.8803,-1.8648,-1.8617,-1.9241,-1.8788,-1.854,-1.9194,-1.8617,-1.8045,-1.8015,-1.8169,-1.8207,-1.7969,-1.8146,-1.8285,-1.8177,-1.8824,-1.924,-1.919,-1.949,-1.9681,-1.9626,-1.9939,-2.007,-1.9981,-2.0513,-2.0545,-1.9967,-1.9799,-1.9443,-1.8893,-1.9185,-1.9271,-1.9231,-1.8492,-1.8246,0.0,0.0,0.0,0.0,0.0,0.0,0.0,0.0,0.0,0.0,0.0,-1.4497,-1.3561,0.0,-1.3043,-1.2356,-1.1842,-1.1536,-1.1558,-1.1735,-1.2019,-1.2546,-1.3391,-1.4138,-1.4598,-1.528,-1.5693,-1.5693,-1.6308,-1.6714,-1.6714,-1.7645,-1.8205,-1.8205,-1.8535,-1.8718,-1.8718,-1.8556,-1.8517,-1.8517,-1.862,-1.876,-1.8905,-1.9064,-1.9221,-1.942,-1.9537,-1.9667,-1.9823,-1.9925,-2.008,-2.0185,-2.001,-1.9975,-2.0053,-1.9975,-1.9947,-1.9912,-1.994,-1.9947,-1.9884,-1.9762,-1.9805,-1.9884,-1.9762,-1.9762,-1.9762,-1.9762,-1.9726,-1.9682,-1.9682,-1.9443,-1.9196,-1.9196,-1.906,-1.9087,-1.9553,-1.9479,-1.952,-2.0194,-2.0004,-1.9877,-2.0439,-2.0276,-1.9794,-1.9014,-1.9201,-1.9278,-1.8849,-1.8921,-1.8975,-1.885,-1.92,-1.945,-1.9386,-1.9996,-2.0456,-2.0588,-2.0797,-2.0882,-2.086,-2.1154,-2.1178,-2.0815,-2.0698,-2.0452,-2.0037,-2.0107,-2.0111,-1.9972,-1.9481,-1.9188,0.0,0.0,0.0,0.0,0.0,0.0,0.0,0.0,-1.5037,-1.4578,-1.5079,-1.5328,-1.4481,-1.3816,-1.3147,-1.2435,-1.1872,-1.1615,-1.2008,-1.2097,-1.2113,-1.2113,-1.303,-1.3825,-1.4292,-1.4683,-1.4909,-1.4909,-1.5692,-1.6225,-1.6343,-1.7491,-1.8152,-1.8302,-1.856,-1.8743,-1.8827,-1.8666,-1.8627,-1.8666,-1.8874,-1.9011,-1.9079,-1.9354,-1.9516,-1.9596,-1.9811,-1.9866,-1.9866,-2.015,-2.0262,-2.0262,-2.0143,-2.0108,-2.0143,-2.0073,-2.0061,-1.9998,-2.0053,-2.0045,-1.9998,-1.9841,-1.9884,-1.9962,-1.9841,-1.9833,-1.9861,-1.9861,-1.9897,-1.9925,-1.9925,-1.9925,-1.9925,-1.9925,-1.9904,-2.001,-2.0273,-2.0303,-2.0434,-2.1023,-2.1134,-2.1245,-2.1573,-2.162,-2.1215,-1.9996,-2.0277,-2.0401,-1.9804,-1.983,-1.9862,-1.9726,-1.9774,-1.9774,-1.9782,-2.0543,-2.1127,-2.1378,-2.1417,-2.1425,-2.1386,-2.1386,-2.1363,-2.1317,-2.1317,-2.1254,-2.1127,-2.0966,-2.0753,-2.0553,-2.026,-1.9914,-1.8441,-1.7886,-1.7391,-1.7559,-1.7226,-1.6847,0.0,-1.6623,-1.6366,-1.5881,-1.5885,-1.5725,-1.498,-1.3798,-1.2944,-1.2823,-1.2099,-1.1532,-1.1587,-1.172,-1.185,-1.185,-1.3182,-1.4308,-1.4787,-1.4877,-1.4909,-1.4909,-1.5612,-1.6282,-1.6874,-1.7713,-1.8425,-1.8959,-1.886,-1.895,-1.9228,-1.8988,-1.8988,-1.9302,-1.9339,-1.9464,-1.9717,-1.976,-1.9917,-2.02,-2.0235,-2.0185,-2.0065,-2.0108,-2.0108,-2.0108,-2.0108,-2.0185,-2.027,-2.0068,-2.0005,-2.0005,-1.9998,-2.0061,-2.0073,-1.9869,-1.9884,-1.9962,-1.9762,-1.9917,-2.0147,-2.0147,-2.0402,-2.0695,-2.0695,-2.0695,-2.0695,-2.0695,-2.0885,-2.1111,-2.1151,-2.1386,-2.1615,-2.1683,-2.167,-2.1648,-2.1759,-2.1694,-2.1556,-2.1375,-2.1432,-2.1378,-2.1179,-2.128,-2.1319,-2.1171,-2.1163,-2.114,-2.1093,-2.1362,-2.1481,-2.1425,-2.1503,-2.1503,-2.1386,-2.1386,-2.1363,-2.1317,-2.1317,-2.1285,-2.1285,-2.1127,-2.0958,-2.0745,-1.9969,-1.9805,-1.8071,-1.7916,-1.763,-1.7936,-1.7591,-1.713,-1.7164,-1.6917,-1.6632,-1.6411,-1.6367,-1.6014,-1.4933,-1.4273,-1.3558,0.0,-1.2099,-1.1746,-1.1371,-1.1394,-1.1527,-1.167,-1.255,-1.3235,-1.344,-1.344,-1.3571,-1.3891,-1.4933,-1.5651,-1.5946,-1.737,-1.841,-1.8865,-1.9104,-1.9384,-1.9754,-1.9493,-1.942,-1.9522,-1.9595,-1.9696,-1.9823,-1.9987,-2.0185,-2.0304,-2.0304,-2.027,-2.0227,-2.0227,-2.0227,-2.0227,-2.0418,-2.0553,-2.0569,-2.027,-2.0262,-2.035,-2.035,-2.047,-2.0614,-2.0514,-2.0556,-2.0563,-2.0481,-2.0514,-2.0622,-2.0622,-2.0704,-2.0794,-2.0794,-2.0794,-2.0794,-2.0794,-2.0893,-2.1055,-2.1254,-2.1402,-2.1587,-2.1759,-2.1768,-2.1768,-2.1797,-2.1768,-2.1716,-2.1716,-2.1642,-2.1581,-2.1503,-2.1581,-2.1581,-2.1503,-2.1503,-2.1511,-2.1481,-2.155,-2.1573,-2.1587,-2.1625,-2.1625,-2.1587,-2.1534,-2.1472,-2.1363,-2.0951,-2.0726,-2.0726,-2.0092,-1.9792,-1.9701,-1.9562,-1.962,-1.758,-1.7604,-1.7426,-1.7504,-1.7122,-1.6668,-1.6517,-1.6225,-1.5943,-1.5731,-1.5569,-1.5194,-1.4268,-1.3871,-1.3314,-1.2257,-1.1915,-1.1621,-1.124,-1.105,-1.1119,-1.1552,-1.1801,-1.2065,-1.2379,-1.2607,-1.2926,-1.3297,-1.4426,-1.5167,-1.5325,-1.6978,-1.8152,-1.8684,-1.9209,-1.9739,-2.0212,-1.9995,-1.9882,-1.9851,-1.9937,-1.9972,-1.9945,-2.0185,-2.0304,-2.0304,-2.0399,-2.0441,-2.0441,-2.0527,-2.0587,-2.0587,-2.0844,-2.095,-2.0909,-2.0687,-2.0671,-2.078,-2.078,-2.091,-2.1071,-2.1023,-2.1023,-2.1023,-2.0967,-2.1015,-2.1023,-2.1039,-2.1039,-2.1079,-2.1079,-2.1079,-2.1079,-2.1079,-2.1079,-2.1135,-2.1402,-2.1433,-2.1518,-2.1759,-2.1789,-2.1789,-2.1789,-2.1789,-2.1789,-2.1789,-2.1716,-2.1642,-2.1642,-2.1642,-2.1642,-2.1642,-2.1634,-2.1642,-2.1612,-2.1589,-2.1612,-2.1664,-2.1664,-2.1664,-2.1664,-2.1694,-2.1625,-2.1509,-2.1019,-2.0752,-2.0671,-1.9992,-1.9608,-1.9497,-1.9594,-1.9601,-1.7301,-1.7077,-1.6782,-1.6208,-1.5903,-1.5556,-1.4836,-1.4468,-1.4101,-1.3524,-1.2982,-1.2673,-1.2847,-1.2006,-1.1463,-1.2027,-1.1406,-1.0937,-1.1155,-1.0702,-1.065,-1.1495,-1.1104,-1.1176,-1.2303,-1.3167,-1.3656,-1.3669,-1.439,-1.5075,-1.5637,-1.6658,-1.7668,-1.8669,-1.9209,-1.9811,-2.0486,-2.0418,-2.041,-2.0486,-2.0494,-2.0392,-2.0304,-2.0304,-2.0304,-2.0304,-2.0628,-2.0794,-2.0827,-2.115,-2.1268,-2.1268,-2.1268,-2.1268,-2.1268,-2.1268,-2.1268,-2.1268,-2.1268,-2.1268,-2.126,-2.1142,-2.1102,-2.107,-2.095,-2.1127,-2.1355,-2.1309,-2.1518,-2.1759,-2.1759,-2.1759,-2.1759,-2.1759,-2.1759,-2.1759,-2.1789,-2.1781,-2.1789,-2.1789,-2.1789,-2.1789,-2.1789,-2.1789,-2.1789,-2.1789,-2.1797,-2.1768,-2.1724,-2.1694,-2.1694,-2.1694,-2.1776,-2.1738,-2.162,-2.1589,-2.1589,-2.1612,-2.1612,-2.1612,-2.1612,-2.1789,-2.1869,-2.1789,-2.1895,-2.1857,-2.1661,-2.1637,-2.1407,-2.1023,-2.0311,-1.9814,-1.5606,-1.5951,-1.6234,-1.6267,-1.6011,-1.5594,-1.4948,-1.449,-1.4038,-1.3421,-1.3059,-1.2829,-1.2874,-1.2583,-1.2215,-1.1949,-1.1656,-1.1232,-1.0613,-1.0368,-1.0422,-1.0934,-1.1506,-1.2109,-1.2854,-1.3071,0.0,-1.3683,-1.4369,-1.4893,-1.5082,-1.6455,-1.7582,-1.8396,-1.9421,-2.0319,-2.1015,-2.0786,-2.0695,-2.0695,-2.046,-2.0467,-2.0636,-2.0636,-2.0745,-2.0958,-2.1087,-2.1119,-2.115,-2.1237,-2.13,-2.1331,-2.1524,-2.1631,-2.1661,-2.1886,-2.1953,-2.1924,-2.1721,-2.1789,-2.1953,-2.1907,-2.1886,-2.1827,-2.1784,-2.1768,-2.1713,-2.1713,-2.1759,-2.1789,-2.1789,-2.1789,-2.1789,-2.1789,-2.1789,-2.1789,-2.1789,-2.1789,-2.1789,-2.1789,-2.194,-2.2019,-2.184,-2.2121,-2.2337,-2.2104,-2.1911,-2.1789,-2.1768,-2.192,-2.2019,-2.2019,-2.2245,-2.2364,-2.2318,-2.2251,-2.213,-2.2027,-2.1911,-2.1819,-2.1746,-2.1716,-2.1768,-2.1861,-2.133,-2.1126,-2.1228,-2.0727,-2.0439,-2.0292,-2.0228,-2.0096,-1.4768,-1.5058,-1.5171,-1.5239,-1.4813,-1.429,-1.3968,-1.36,-1.3295,-1.3262,-1.3016,-1.2771,-1.276,-1.2729,-1.2443,-1.17,-1.1347,-1.0964,-1.0366,-1.0179,-1.0306,-1.0953,-1.2021,-1.2925,-1.3471,-1.3804,0.0,-1.449,-1.5105,-1.5388,-1.5321,-1.6495,-1.7408,-1.7906,-1.894,-1.982,-2.0548,-2.0598,-2.0687,-2.0786,-2.0311,-2.0194,-2.0415,-2.0512,-2.0694,-2.0943,-2.1318,-2.1462,-2.1501,-2.1593,-2.1661,-2.1691,-2.1886,-2.1982,-2.2011,-2.2217,-2.231,-2.2274,-2.2049,-2.2115,-2.231,-2.231,-2.2254,-2.2234,-2.2214,-2.2086,-2.194,-2.192,-2.192,-2.194,-2.194,-2.2027,-2.2121,-2.2121,-2.2121,-2.2121,-2.2121,-2.2121,-2.2121,-2.2121,-2.2273,-2.232,-2.2141,-2.2446,-2.2642,-2.2402,-2.2217,-2.2093,-2.1969,-2.2088,-2.2256,-2.2375,-2.2581,-2.2695,-2.2695,-2.2581,-2.2448,-2.2322,-2.222,-2.2116,-2.199,-2.1995,-2.2032,-2.211,-2.1611,-2.1412,-2.1484,-2.1022,-2.0751,-2.0636,-2.0817,-2.076,-1.4627,-1.4332,-1.3646,-1.3249,-1.2465,-1.1862,-1.2088,-1.1942,-1.2042,-1.3003,-1.2793,-1.2481,-1.2512,-1.2414,-1.2064,-1.1392,-1.0686,-1.0274,-1.0444,-1.0192,-1.0386,0.0,0.0,-1.3452,-1.4028,-1.5211,0.0,-1.6016,0.0,-1.6463,-1.6203,-1.6815,-1.7186,-1.7199,-1.7861,-1.8528,-1.92,-1.9892,-2.0381,-2.0676,-2.0012,-1.9688,-1.9719,-2.0098,-2.0273,-2.0302,-2.1386,-2.1827,-2.1857,-2.218,-2.231,-2.231,-2.231,-2.231,-2.231,-2.231,-2.231,-2.231,-2.231,-2.231,-2.231,-2.231,-2.231,-2.2282,-2.2234,-2.2106,-2.1998,-2.1911,-2.2047,-2.2192,-2.22,-2.2429,-2.2669,-2.2703,-2.2695,-2.2695,-2.2695,-2.2695,-2.2695,-2.2695,-2.2695,-2.2695,-2.2756,-2.273,-2.2721,-2.2721,-2.2721,-2.2607,-2.2284,-2.2256,-2.2375,-2.2695,-2.2721,-2.2756,-2.2721,-2.2608,-2.2529,-2.252,-2.252,-2.2449,-2.233,-2.2544,-2.2632,-2.2515,-2.2614,-2.2587,-2.2413,-2.2413,-2.2296,-2.2056,-2.2019,-2.1702,-1.1963,-1.2468,-1.2833,-1.2532,-1.2205,-1.2076,-1.2579,-1.2803,-1.2948,-1.3151,-1.3167,-1.3075,-1.2834,-1.257,-1.232,-1.2125,-1.1944,0.0,-1.1345,-1.121,0.0,-1.2102,-1.2778,-1.3452,-1.4028,-1.4967,0.0,0.0,-1.6205,-1.6283,-1.6213,-1.661,-1.693,-1.7184,-1.8049,-1.8714,-1.9208,-1.9127,-1.92,-1.9391,-1.9663,-1.9703,-1.9592,-2.0821,-2.1218,-2.0985,-2.1824,-2.218,-2.218,-2.2245,-2.231,-2.231,-2.231,-2.231,-2.231,-2.231,-2.2441,-2.2614,-2.2614,-2.246,-2.231,-2.231,-2.231,-2.2291,-2.2282,-2.2163,-2.1998,-2.1969,-2.194,-2.194,-2.2144,-2.2248,-2.2402,-2.2642,-2.2695,-2.2695,-2.2695,-2.2695,-2.2695,-2.2695,-2.2695,-2.2833,-2.3223,-2.3126,-2.3003,-2.3003,-2.3003,-2.2884,-2.2607,-2.2747,-2.291,-2.3003,-2.3184,-2.3256,-2.316,-2.301,-2.2901,-2.2799,-2.2703,-2.2598,-2.2446,-2.2411,-2.2419,-2.2515,-2.2479,-2.2542,-2.2605,-2.2605,-2.2579,-2.2508,-2.2315,-2.2064,-1.1174,-1.1601,-1.1846,-1.1811,-1.1698,-1.1751,-1.2298,-1.2912,-1.3498,-1.3901,-1.3959,-1.3814,-1.3411,-1.3362,-1.3186,0.0,0.0,0.0,-1.2167,-1.1926,-1.1933,-1.2346,-1.3113,-1.3716,-1.406,-1.5041,-1.5768,0.0,-1.6242,-1.6314,-1.622,-1.6511,-1.6721,-1.6745,-1.7382,-1.8067,-1.8847,-1.8571,-1.8675,-1.9115,-1.9159,-1.9122,-1.9036,-2.0067,-2.0579,-2.072,0.0,-2.2006,-2.231,-2.2441,-2.2487,-2.2453,-2.2219,-2.2108,-2.2116,-2.1984,-2.2037,-2.2229,-2.2573,-2.2614,-2.2479,-2.2624,-2.2497,-2.233,-2.257,-2.2445,-2.2243,-2.2356,-2.2383,-2.24,-2.2545,-2.2669,-2.2824,-2.301,-2.3044,-2.3044,-2.3044,-2.3044,-2.3044,-2.3044,-2.3044,-2.3151,-2.3439,-2.3369,-2.3265,-2.3265,-2.3265,-2.3232,-2.3068,-2.3077,-2.3144,-2.3256,-2.3415,-2.3462,-2.3383,-2.3313,-2.3232,-2.316,-2.3086,-2.2952,-2.2764,-2.2686,-2.2642,-2.2587,-2.256,-2.2587,-2.2712,-2.2712,-2.2712,-2.2694,-2.2525,-2.2279,-1.0921,-1.0983,-1.0737,-1.0966,-1.1069,-1.1256,-1.1727,-1.2721,-1.3786,-1.4702,-1.4658,-1.4343,-1.3881,-1.406,-1.3915,-1.291,-1.2785,-1.2791,-1.2842,-1.2457,-1.2281,-1.2517,-1.3427,-1.4008,-1.4008,-1.5105,-1.5779,-1.5793,-1.609,-1.6262,-1.6195,-1.6492,-1.6546,-1.6336,-1.6543,-1.7179,-1.8251,-1.806,-1.8353,-1.9174,-1.8673,-1.8393,-1.8335,-1.8824,-1.935,-1.9942,-2.0738,0.0,-2.2205,-2.2433,-2.2591,-2.2643,-2.2204,-2.203,-2.2021,-2.1787,-2.1737,-2.1857,-2.2574,-2.2808,-2.2833,-2.3035,-2.279,-2.2497,-2.296,-2.2833,-2.2597,-2.2824,-2.296,-2.3061,-2.3086,-2.3256,-2.3471,-2.3494,-2.3494,-2.3494,-2.3494,-2.3494,-2.3494,-2.3494,-2.3494,-2.3494,-2.3494,-2.3494,-2.3494,-2.3494,-2.3494,-2.3494,-2.3494,-2.3298,-2.3241,-2.3471,-2.3494,-2.3485,-2.3462,-2.3462,-2.3462,-2.3462,-2.3471,-2.3336,-2.3111,-2.3086,-2.297,-2.2712,-2.2712,-2.2712,-2.2712,-2.2712,-2.2694,-2.2694,-2.2614,-2.2407,-0.8392,-0.9027,-0.9578,-0.9568,-1.0424,-1.1393,-1.1856,-1.289,0.0,-1.4189,-1.4004,-1.3674,-1.337,-1.2883,-1.2537,-1.2484,-1.2656,-1.2844,-1.3019,-1.3172,-1.3278,-1.3305,-1.3478,-1.3565,-1.3537,-1.4233,0.0,0.0,-1.4649,-1.5128,-1.6162,-1.627,-1.6499,-1.6922,-1.6991,-1.7157,-1.7486,-1.7305,-1.7461,-1.8004,-1.8327,-1.8277,-1.7948,-1.9217,-1.9651,-1.9373,-2.0185,0.0,-2.1644,-2.1696,-2.2091,-2.2694,-2.2591,-2.2701,-2.2882,-2.2833,-2.2955,-2.317,-2.3303,-2.3357,-2.3324,-2.3149,-2.3051,-2.2985,-2.3075,-2.2976,-2.285,-2.2901,-2.285,-2.2807,-2.3028,-2.3135,-2.3217,-2.3448,-2.3494,-2.3494,-2.3494,-2.3494,-2.3494,-2.3494,-2.3494,-2.3494,-2.3494,-2.3494,-2.3494,-2.3494,-2.3494,-2.3494,-2.3494,-2.3462,-2.3439,-2.3494,-2.3494,-2.3471,-2.3336,-2.3336,-2.3336,-2.3336,-2.3241,-2.3135,-2.3086,-2.2986,-2.2859,-2.2712,-2.2712,-2.2712,-2.2712,-2.2712,-2.2659,-2.2614,-2.256,-2.2451,-0.6327,-0.6849,-0.7354,-0.7456,-0.8356,-0.942,-1.0211,0.0,0.0,-1.3296,-1.317,-1.2927,-1.2922,-1.2585,-1.2263,-1.2326,-1.2556,-1.2879,-1.3283,-1.331,-1.3361,-1.3567,-1.3522,-1.3452,-1.3295,-1.396,-1.4356,-1.4293,-1.4294,-1.4644,-1.5382,-1.5736,-1.6267,-1.7066,-1.7108,-1.715,-1.7288,-1.7232,-1.7376,-1.771,-1.8002,-1.8017,-1.7828,-1.8523,-1.8915,-1.9066,-1.9573,0.0,-2.0954,-2.1176,-2.1511,-2.1876,-2.2014,-2.2149,-2.2312,-2.2579,-2.2762,-2.2937,-2.3352,-2.3504,-2.3504,-2.3459,-2.3307,-2.3149,-2.3391,-2.3307,-2.3142,-2.3286,-2.3214,-2.3151,-2.328,-2.3313,-2.3336,-2.3462,-2.3494,-2.3494,-2.3494,-2.3494,-2.3494,-2.3494,-2.3494,-2.3494,-2.3494,-2.3494,-2.3471,-2.3415,-2.3471,-2.3439,-2.3313,-2.336,-2.3415,-2.3485,-2.3494,-2.3448,-2.3313,-2.336,-2.336,-2.3313,-2.3241,-2.316,-2.3111,-2.2961,-2.2842,-2.2712,-2.2712,-2.2712,-2.2712,-2.2712,-2.2667,-2.2614,-2.2533,-2.246,-0.4392,-0.4725,-0.4994,-0.5012,-0.5798,-0.6857,-0.8053,-0.8978,-1.012,-1.2021,-1.1962,-1.1688,-1.2077,-1.1981,-1.1808,-1.1792,-1.1996,-1.2384,-1.3157,-1.3026,-1.3107,-1.3693,-1.3581,-1.3378,-1.3295,-1.396,0.0,-1.4319,-1.4277,-1.4328,-1.4565,-1.5085,-1.5821,-1.6832,-1.6897,-1.7069,-1.7368,-1.7424,-1.7581,-1.7763,-1.778,-1.7811,-1.7811,-1.7839,-1.8198,-1.8819,-1.9035,0.0,0.0,-2.0689,-2.0942,-2.1141,-2.1511,-2.1719,-2.1838,-2.2413,-2.2627,-2.2717,-2.3347,-2.3553,-2.3598,-2.3753,-2.3549,-2.3321,-2.368,-2.3629,-2.3453,-2.3634,-2.3611,-2.3517,-2.3508,-2.3494,-2.3494,-2.3494,-2.3494,-2.3494,-2.3494,-2.3494,-2.3494,-2.3494,-2.3494,-2.3494,-2.3494,-2.3471,-2.3415,-2.3321,-2.3369,-2.3336,-2.3144,-2.3193,-2.3289,-2.3407,-2.3407,-2.3383,-2.3321,-2.3392,-2.3415,-2.3321,-2.3256,-2.3193,-2.3061,-2.2936,-2.2816,-2.2712,-2.2712,-2.2712,-2.2712,-2.2712,-2.2659,-2.2587,-2.2533,-2.2468,-0.2366,-0.284,-0.3135,-0.2369,-0.3162,-0.4534,-0.6097,0.0,-0.6891,-1.0142,-0.9919,-0.9386,-1.0256,-1.0133,-0.9902,-1.0088,0.0,-1.077,-1.1993,-1.2163,-1.2642,-1.381,-1.354,-1.3297,-1.3452,-1.4026,-1.4413,-1.4381,-1.4169,-1.4097,-1.4242,-1.446,-1.5058,-1.6079,-1.6282,-1.6762,-1.7549,-1.765,-1.7772,-1.7961,-1.7864,-1.7811,-1.7811,-1.7988,-1.8234,-1.8551,-1.8755,0.0,0.0,-1.9996,-2.0443,-2.1173,-2.1938,-2.2389,-2.2671,-2.3403,-2.3666,-2.3675,-2.3756,-2.3774,-2.3783,-2.3795,-2.3774,-2.3744,-2.3795,-2.378,-2.3752,-2.37,-2.3643,-2.3571,-2.3517,-2.3494,-2.3494,-2.3494,-2.3494,-2.3494,-2.3494,-2.3494,-2.3494,-2.3494,-2.3494,-2.3494,-2.3494,-2.3392,-2.3313,-2.3289,-2.3217,-2.3135,-2.3111,-2.3111,-2.3111,-2.3144,-2.3144,-2.3193,-2.3289,-2.3313,-2.3313,-2.3289,-2.3193,-2.3061,-2.291,-2.279,-2.2712,-2.2712,-2.2712,-2.2712,-2.2712,-2.2712,-2.2632,-2.2515,-2.2506,-2.2432,-0.0217,-0.0359,-0.0402,0.0362,0.0227,-0.0627,-0.276,-0.3078,-0.3837,-0.7107,-0.7616,-0.76,-0.8016,-0.8314,-0.8513,0.0,-0.8949,-0.9656,-1.0662,-1.0957,-1.1684,-1.3258,-1.2816,-1.2705,0.0,0.0,-1.3705,-1.3677,-1.3545,-1.3375,-1.3181,-1.3794,-1.4519,-1.5311,-1.5482,-1.5981,-1.6816,-1.6951,-1.731,-1.7825,-1.7932,-1.7988,-1.798,-1.8048,-1.824,-1.8505,-1.8591,0.0,0.0,-1.9372,-1.9615,-2.0029,-2.1324,-2.1888,-2.2138,-2.3352,-2.3795,-2.3795,-2.3795,-2.3795,-2.3795,-2.3795,-2.3792,-2.3798,-2.3798,-2.3777,-2.373,-2.3674,-2.3585,-2.3539,-2.3517,-2.3494,-2.353,-2.3607,-2.3558,-2.3494,-2.3494,-2.3494,-2.3494,-2.3494,-2.3439,-2.3392,-2.3392,-2.3265,-2.3135,-2.3061,-2.3086,-2.3036,-2.2885,-2.2936,-2.2936,-2.2859,-2.3011,-2.3086,-2.3061,-2.3135,-2.3144,-2.3061,-2.3011,-2.297,-2.2885,-2.2764,-2.2712,-2.2712,-2.2712,-2.2712,-2.2712,-2.2712,-2.2641,-2.2515,-2.2515,-2.2432,0.1804,0.1986,0.2351,0.317,0.3628,0.3402,0.1544,0.1342,0.0809,-0.1813,-0.3546,-0.4582,-0.4598,-0.5903,-0.699,0.0,-0.75,-0.8248,-0.9444,-0.9716,-1.0502,-1.2328,0.0,-1.213,-1.3164,-1.3298,-1.3262,-1.3131,-1.3097,-1.2895,-1.2402,-1.3131,-1.3917,-1.4632,-1.4784,-1.5255,-1.6074,-1.6492,-1.6948,-1.7473,-1.7864,-1.8056,-1.8111,-1.8182,-1.8351,-1.8591,-1.8639,0.0,0.0,-1.9036,-1.9096,-1.9259,-2.0871,-2.1504,-2.1695,-2.3225,-2.3795,-2.3795,-2.3795,-2.3804,-2.3792,-2.3792,-2.3798,-2.3783,-2.3739,-2.373,-2.3687,-2.3607,-2.3539,-2.3494,-2.3494,-2.3494,-2.3522,-2.362,-2.3607,-2.3558,-2.3558,-2.3611,-2.3634,-2.3625,-2.3526,-2.3458,-2.3374,-2.3256,-2.3086,-2.2944,-2.2944,-2.291,-2.2703,-2.279,-2.2808,-2.2712,-2.2859,-2.2961,-2.291,-2.2995,-2.2986,-2.2919,-2.2885,-2.2885,-2.2833,-2.2764,-2.2712,-2.2712,-2.2712,-2.2712,-2.2712,-2.2685,-2.2614,-2.2515,-2.2487,-2.2413,0.361,0.411,0.4929,0.6067,0.6859,0.7247,0.6895,0.7424,0.7619,0.6262,0.2849,0.0157,0.0292,-0.2674,-0.5281,-0.5739,-0.5692,-0.6312,-0.8336,-0.8548,-0.9216,0.0,-1.1428,-1.1724,-1.2257,-1.2979,-1.3267,-1.294,-1.3032,0.0,-1.2138,-1.2557,-1.32,-1.4073,-1.4241,-1.4736,-1.56,-1.645,-1.6901,-1.6917,-1.7573,-1.7975,-1.8111,-1.8359,-1.861,0.0,0.0,0.0,0.0,-1.9096,-1.9096,-1.9259,-2.0871,-2.1504,-2.1695,-2.3225,-2.3795,-2.3795,-2.3795,-2.3801,-2.3804,-2.3804,-2.3752,-2.3687,-2.3629,-2.3652,-2.3687,-2.3607,-2.3539,-2.3494,-2.3494,-2.3494,-2.3494,-2.3508,-2.3598,-2.3692,-2.3692,-2.3846,-2.3976,-2.3917,-2.3887,-2.3813,-2.354,-2.3398,-2.3217,-2.2936,-2.279,-2.2712,-2.2712,-2.2712,-2.2712,-2.2712,-2.2712,-2.2764,-2.2885,-2.2885,-2.2885,-2.2885,-2.2885,-2.2833,-2.2712,-2.2712,-2.2712,-2.2712,-2.2712,-2.2712,-2.2712,-2.2632,-2.2569,-2.2515,-2.2432,-2.2358,0.6531,0.6987,0.7391,0.7812,0.8621,0.8976,0.7729,0.7931,0.7995,0.6651,0.3509,0.1084,0.1264,-0.1765,-0.4433,-0.4947,0.0,0.0,-0.7086,-0.789,-0.8904,-1.045,-1.1925,-1.2504,0.0,0.0,-1.2532,-1.2229,-1.2349,0.0,-1.2371,-1.2727,-1.3057,-1.3332,-1.3472,-1.3986,-1.49,-1.5239,-1.5968,-1.711,-1.7404,-1.7923,-1.8569,-1.8668,-1.8815,0.0,0.0,0.0,0.0,-1.9096,-1.9096,-1.9259,-2.0871,-2.1504,-2.1695,-2.3225,-2.3795,-2.3795,-2.381,-2.3807,-2.3795,-2.3752,-2.3696,-2.3643,-2.3725,-2.3691,-2.3607,-2.3562,-2.3517,-2.353,-2.362,-2.3571,-2.3522,-2.362,-2.3607,-2.3526,-2.3449,-2.3481,-2.3481,-2.338,-2.3426,-2.3403,-2.3151,-2.3126,-2.3061,-2.2808,-2.2738,-2.2764,-2.2936,-2.2808,-2.2764,-2.2961,-2.2816,-2.2712,-2.2764,-2.2756,-2.2756,-2.2756,-2.2756,-2.2729,-2.2712,-2.2712,-2.2712,-2.2712,-2.2667,-2.2641,-2.2641,-2.256,-2.2487,-2.2432,-2.2358,-2.231,0.8486,0.8849,0.9309,0.9601,1.0191,1.0684,1.0557,1.063,1.0716,1.0656,0.7912,0.521,0.4181,0.1247,-0.1665,-0.3664,-0.4258,0.0,0.0,0.0,0.0,-1.0457,-1.1743,0.0,0.0,-1.1977,-1.2093,-1.1763,-1.1886,0.0,-1.2343,-1.2681,-1.2934,-1.3069,-1.3218,-1.3583,-1.4213,-1.4581,-1.5254,-1.627,-1.6983,-1.7656,-1.8289,-1.8636,-1.8914,0.0,0.0,0.0,0.0,-1.9096,-1.9096,-1.9223,-2.0536,-2.1052,-2.1206,-2.2464,-2.2926,-2.2942,-2.3244,-2.3301,-2.3316,-2.3566,-2.3629,-2.3585,-2.3651,-2.3734,-2.3743,-2.37,-2.37,-2.3712,-2.3783,-2.3759,-2.3703,-2.3783,-2.3771,-2.3707,-2.3611,-2.3642,-2.3642,-2.3544,-2.3589,-2.3513,-2.3164,-2.3173,-2.3109,-2.2756,-2.2712,-2.2764,-2.2936,-2.2808,-2.2756,-2.2936,-2.2816,-2.2712,-2.2712,-2.2712,-2.2712,-2.2712,-2.2694,-2.2659,-2.2712,-2.2659,-2.2641,-2.2659,-2.2587,-2.256,-2.256,-2.2479,-2.2432,-2.2358,-2.231,-2.231,0.0,0.9962,1.0795,1.1311,1.1586,1.2315,1.4555,1.472,0.0,1.7006,1.4682,1.1457,0.879,0.6031,0.276,-0.1611,-0.2366,0.0,0.0,-0.6582,0.0,0.0,-1.1051,0.0,-1.1589,-1.1888,-1.1871,-1.1475,0.0,0.0,-1.2079,-1.251,-1.2871,-1.3184,-1.3337,-1.3461,-1.3605,-1.4339,-1.4719,-1.4745,-1.6314,-1.7185,-1.7462,-1.8342,-1.886,0.0,0.0,0.0,0.0,-1.9096,-1.9096,-1.9177,-1.9983,-2.03,-2.04,-2.1206,-2.1458,-2.151,-2.2301,-2.2521,-2.2545,-2.3369,-2.3576,-2.3553,-2.3553,-2.3747,-2.3976,-2.3976,-2.3996,-2.3996,-2.3996,-2.3996,-2.3996,-2.3996,-2.4037,-2.4069,-2.4069,-2.4164,-2.422,-2.4164,-2.4164,-2.401,-2.3482,-2.3423,-2.3271,-2.2799,-2.2738,-2.2738,-2.2738,-2.2712,-2.272,-2.2712,-2.2712,-2.2694,-2.2694,-2.2685,-2.2712,-2.2685,-2.2632,-2.2641,-2.2685,-2.2569,-2.2533,-2.2587,-2.2542,-2.2487,-2.2487,-2.2432,-2.2358,-2.231,-2.231,-2.231,1.2113,0.0,1.2334,1.2014,1.2501,1.3171,0.0,1.4056,1.475,1.6268,1.4176,1.2294,1.3021,1.078,0.7405,0.3107,0.2328,0.048,-0.4778,-0.7235,0.0,-1.0173,-1.0716,-1.0761,-1.0242,-1.0798,-1.1095,-1.0913,0.0,-1.1824,-1.2079,-1.2626,-1.3007,-1.3184,-1.3337,-1.3461,-1.3605,-1.3781,-1.429,-1.5093,-1.5425,-1.6394,-1.7862,-1.8034,-1.8475,0.0,0.0,0.0,-1.9096,-1.9096,-1.9096,-1.9177,-1.9983,-2.03,-2.0391,-2.1141,-2.1421,-2.1491,-2.2204,-2.2533,-2.277,-2.3628,-2.3967,-2.4037,-2.4037,-2.3899,-2.3765,-2.3765,-2.3867,-2.3996,-2.3996,-2.3967,-2.3917,-2.3917,-2.3908,-2.3849,-2.3747,-2.3747,-2.3726,-2.3601,-2.3747,-2.3777,-2.3468,-2.3566,-2.3549,-2.3077,-2.302,-2.302,-2.302,-2.2842,-2.2764,-2.291,-2.279,-2.2659,-2.2569,-2.2632,-2.2685,-2.2641,-2.2614,-2.2579,-2.256,-2.2515,-2.2515,-2.2533,-2.246,-2.2413,-2.2338,-2.2338,-2.231,-2.231,-2.231,-2.231,1.3198,1.3548,1.3827,1.362,1.3832,1.4207,1.4598,1.4597,1.4848,1.5979,1.5378,1.4572,1.4263,1.1772,0.8426,0.4327,0.1957,0.0,0.0,0.0,-0.8169,-0.9173,-0.957,-0.972,0.0,-1.0179,-1.0573,0.0,0.0,-1.1717,-1.2079,-1.258,-1.2942,-1.3096,-1.3303,-1.3461,-1.3605,-1.3599,-1.3917,-1.4556,-1.4966,-1.5907,-1.7336,-1.772,-1.8342,0.0,0.0,0.0,-1.9096,-1.9096,-1.9137,-1.923,-1.9601,-1.9764,-1.9843,-2.0236,-2.0364,-2.0517,-2.1675,-2.2622,-2.3371,-2.3839,-2.4047,-2.4105,-2.4105,-2.4019,-2.395,-2.4039,-2.4115,-2.4181,-2.4181,-2.4134,-2.4077,-2.4077,-2.4028,-2.395,-2.3881,-2.3878,-2.3846,-2.3765,-2.3887,-2.3896,-2.3619,-2.3692,-2.368,-2.3298,-2.3236,-2.3236,-2.3236,-2.3035,-2.2944,-2.3036,-2.2816,-2.2605,-2.256,-2.2579,-2.2579,-2.2569,-2.2542,-2.2515,-2.2515,-2.2432,-2.2413,-2.2413,-2.2386,-2.2338,-2.231,-2.231,-2.231,-2.231,-2.231,-2.231,1.3663,1.4435,1.5098,1.5067,1.5045,1.5242,1.5997,0.0,0.0,0.0,0.0,1.7133,1.4389,1.2392,0.0,0.0,0.0,0.0,-0.5439,-0.6188,-0.6963,-0.8072,-0.8247,0.0,-0.9081,-0.9666,0.0,0.0,0.0,-1.1571,-1.2079,-1.2471,-1.2776,-1.2987,-1.3235,-1.3428,-1.3573,-1.3605,-1.3691,-1.3847,-1.4651,-1.5481,-1.6357,-1.7284,-1.8161,-1.8915,0.0,0.0,-1.9096,-1.9096,-1.9184,-1.9299,-1.9152,-1.9159,-1.9234,-1.9216,-1.9186,-1.9355,-2.0966,-2.2557,-2.3853,-2.3864,-2.3975,-2.4075,-2.4075,-2.4172,-2.4275,-2.4438,-2.4447,-2.4394,-2.4394,-2.4339,-2.4284,-2.4284,-2.4238,-2.4201,-2.4201,-2.419,-2.4199,-2.4199,-2.4199,-2.4122,-2.3896,-2.3867,-2.3765,-2.3491,-2.3468,-2.3446,-2.3423,-2.3251,-2.3126,-2.3086,-2.2833,-2.2641,-2.2587,-2.2515,-2.2487,-2.246,-2.2441,-2.2413,-2.246,-2.2358,-2.231,-2.231,-2.231,-2.231,-2.231,-2.231,-2.231,-2.231,-2.231,-2.231,1.4416,1.5374,1.5807,1.4252,1.5021,1.6056,1.5701,0.0,0.0,0.0,0.0,0.0,0.0,1.8533,1.7334,0.0,0.0,-0.4684,0.0,0.0,-0.7252,-0.7213,0.0,-0.8068,-0.7886,-0.8606,0.0,0.0,0.0,-1.1363,-1.2058,-1.2375,-1.2659,-1.2987,-1.3148,-1.3295,-1.342,-1.3605,-1.3782,-1.397,-1.4174,-1.4693,-1.5529,-1.6462,-1.7318,-1.8125,0.0,-1.9096,-1.9096,-1.9096,-1.9184,-1.9289,-1.9207,-1.927,-1.9365,-1.9304,-1.9276,-1.9404,-2.0425,-2.182,-2.3162,-2.3286,-2.3819,-2.442,-2.442,-2.4438,-2.4456,-2.442,-2.4412,-2.4394,-2.4394,-2.4312,-2.422,-2.422,-2.42,-2.4209,-2.4209,-2.419,-2.4199,-2.4199,-2.4199,-2.4199,-2.4151,-2.4142,-2.4045,-2.3774,-2.3744,-2.3671,-2.3414,-2.3378,-2.3265,-2.3028,-2.2961,-2.2816,-2.246,-2.2413,-2.2386,-2.233,-2.2386,-2.2386,-2.233,-2.231,-2.231,-2.231,-2.231,-2.231,-2.231,-2.231,-2.231,-2.231,-2.231,-2.231,1.4247,1.5205,1.5771,1.4986,1.609,1.7308,1.7071,1.7174,0.0,0.0,0.0,0.0,0.0,0.0,1.1663,0.1441,0.0,-0.4397,-0.5184,-0.5472,-0.5833,0.0,0.0,-0.7119,-0.7616,0.0,0.0,0.0,0.0,0.0,-1.1703,-1.2213,-1.2608,-1.2832,-1.3061,-1.3303,-1.3518,-1.3636,-1.3797,-1.3998,-1.4064,-1.4558,-1.5445,-1.6311,-1.7137,-1.7944,0.0,-1.9096,-1.9096,-1.9096,-1.9184,-1.9289,-1.9232,-1.928,-1.9402,-1.936,-1.9951,-2.0815,-2.1216,-2.2425,-2.3811,-2.388,-2.4157,-2.45,-2.45,-2.4473,-2.4447,-2.4412,-2.4367,-2.4339,-2.4294,-2.4238,-2.4209,-2.4209,-2.42,-2.4199,-2.4199,-2.4199,-2.4199,-2.4199,-2.4199,-2.4199,-2.4199,-2.4199,-2.4151,-2.4036,-2.4025,-2.3967,-2.3846,-2.3662,-2.3509,-2.3399,-2.3214,-2.2961,-2.2632,-2.2579,-2.2487,-2.231,-2.2338,-2.2338,-2.231,-2.231,-2.231,-2.231,-2.231,-2.231,-2.231,-2.231,-2.231,-2.231,-2.231,-2.231,1.3984,1.4923,1.5713,1.5983,0.0,1.8029,1.8562,1.8341,0.0,0.0,0.0,0.0,0.0,1.0549,0.0,-0.1519,-0.3271,-0.41,-0.4851,-0.4608,-0.4778,-0.594,-0.6065,-0.6455,0.0,0.0,0.0,0.0,0.0,0.0,-1.1371,-1.2052,-1.2483,-1.2642,-1.3008,-1.3287,-1.3485,-1.3658,-1.3842,-1.3984,-1.406,-1.4486,-1.5202,-1.6039,-1.6865,-1.7663,-1.8478,-1.8924,-1.9104,-1.9128,-1.9239,-1.9341,-1.9308,-1.9372,-1.9464,-1.9459,-2.0409,-2.1718,-2.1718,-2.281,-2.4211,-2.4211,-2.4332,-2.45,-2.45,-2.4447,-2.4394,-2.4385,-2.4339,-2.4257,-2.421,-2.42,-2.4199,-2.4199,-2.4199,-2.4199,-2.4199,-2.4199,-2.4199,-2.4199,-2.4199,-2.4199,-2.4199,-2.4199,-2.4199,-2.4199,-2.4199,-2.4199,-2.4199,-2.3967,-2.3765,-2.3723,-2.3445,-2.3166,-2.2902,-2.2764,-2.2614,-2.2413,-2.233,-2.231,-2.231,-2.231,-2.231,-2.231,-2.231,-2.231,-2.231,-2.231,-2.231,-2.231,-2.231,-2.231,1.4083,1.5023,1.5956,1.6658,1.6912,1.7488,1.9352,1.9849,0.0,2.2155,0.0,0.0,0.0,0.8923,0.3115,0.2967,-0.0895,-0.4332,-0.5646,0.0,-0.5502,-0.6515,-0.6523,0.0,0.0,0.0,0.0,0.0,0.0,0.0,-1.1378,-1.1861,-1.2246,-1.2507,-1.2962,-1.3175,-1.3131,-1.3691,-1.3952,-1.3906,-1.4031,-1.414,-1.4234,-1.5162,-1.6026,-1.6829,-1.7645,-1.8415,-1.9104,-1.923,-1.9361,-1.9495,-1.9549,-1.9623,-1.9669,-1.962,-2.014,-2.0892,-2.0892,-2.194,-2.3286,-2.3286,-2.3841,-2.45,-2.45,-2.4447,-2.4394,-2.4312,-2.4266,-2.421,-2.421,-2.42,-2.4199,-2.4199,-2.4199,-2.4199,-2.4199,-2.4199,-2.4199,-2.4199,-2.4199,-2.4199,-2.4199,-2.4199,-2.4199,-2.4199,-2.4199,-2.4199,-2.4199,-2.4113,-2.3976,-2.3723,-2.3575,-2.3373,-2.3091,-2.285,-2.2685,-2.2659,-2.2432,-2.231,-2.231,-2.231,-2.231,-2.231,-2.231,-2.231,-2.231,-2.231,-2.231,-2.231,-2.231,-2.231,1.342,1.4783,1.6164,1.6909,1.7186,0.0,0.0,1.9676,2.0371,2.1097,1.9914,0.0,0.0,0.0,-0.0367,0.1995,-0.1469,-0.4688,-0.5375,-0.5239,-0.548,-0.6589,0.0,0.0,0.0,0.0,0.0,0.0,0.0,0.0,-1.0954,-1.1542,-1.2007,-1.2368,-1.2919,-1.3235,-1.3286,-1.3678,-1.388,-1.3897,-1.4128,-1.4216,-1.4243,-1.5108,-1.5945,-1.6738,-1.7554,-1.837,-1.9104,-1.9152,-1.9252,-1.9385,-1.9499,-1.9578,-1.9625,-1.9606,-2.0428,-2.1551,-2.1551,-2.2634,-2.4009,-2.4009,-2.4239,-2.45,-2.45,-2.442,-2.4339,-2.4312,-2.4257,-2.419,-2.419,-2.4209,-2.4199,-2.4199,-2.4199,-2.4199,-2.4199,-2.4199,-2.4199,-2.4199,-2.4199,-2.4199,-2.4199,-2.4199,-2.4199,-2.4199,-2.4199,-2.4199,-2.4199,-2.4103,-2.4016,-2.3946,-2.3671,-2.3464,-2.3371,-2.3109,-2.2935,-2.2935,-2.2525,-2.231,-2.231,-2.231,-2.231,-2.231,-2.246,-2.256,-2.256,-2.2729,-2.279,-2.2782,-2.2632,-2.256,1.3528,1.505,1.6568,1.7152,0.0,0.0,1.8622,1.9511,2.0388,2.1046,2.0981,1.8365,1.033,0.0,0.0,0.0,-0.2582,-0.482,-0.5157,-0.5077,-0.5424,-0.6558,0.0,0.0,0.0,0.0,0.0,0.0,0.0,0.0,0.0,-1.1371,-1.1921,-1.2416,-1.2883,-1.3235,-1.3462,-1.3646,-1.3812,-1.4,-1.4163,-1.4259,-1.4312,-1.4863,-1.5701,-1.6729,-1.7282,-1.8125,-1.9113,-1.9191,-1.9329,-1.9504,-1.9569,-1.961,-1.9634,-1.9606,-2.0455,-2.1662,-2.1913,-2.2755,-2.3812,-2.4332,-2.4146,-2.3748,-2.3999,-2.3819,-2.3546,-2.3546,-2.3676,-2.3823,-2.3823,-2.4006,-2.4199,-2.4199,-2.4199,-2.4199,-2.4199,-2.4199,-2.4199,-2.4199,-2.4199,-2.4199,-2.4199,-2.4199,-2.4199,-2.4199,-2.4199,-2.4199,-2.4199,-2.4094,-2.4016,-2.3946,-2.3689,-2.3513,-2.3517,-2.3277,-2.3149,-2.3221,-2.279,-2.2543,-2.2543,-2.2479,-2.2441,-2.2441,-2.2533,-2.2587,-2.2587,-2.2773,-2.2842,-2.2833,-2.265,-2.2587,1.4669,1.5965,1.7158,1.7425,0.0,0.0,1.8848,1.9565,2.073,2.2649,2.2261,1.6713,0.0771,0.3342,0.0,-0.1949,-0.3893,-0.4645,-0.5131,-0.5071,-0.5418,0.0,0.0,0.0,0.0,0.0,0.0,0.0,0.0,0.0,0.0,-1.1431,-1.1999,-1.2665,-1.2887,-1.3201,-1.3605,-1.3596,-1.3818,-1.4207,-1.4132,-1.4171,-1.4293,-1.4293,-1.5166,-1.6684,-1.6702,-1.7617,-1.9111,-1.939,-1.9656,-1.9894,-1.9822,-1.977,-1.9696,-1.9625,-2.0103,-2.091,-2.1708,-2.1987,-2.2265,-2.3942,-2.3349,-2.2154,-2.2952,-2.2587,-2.19,-2.19,-2.2425,-2.2997,-2.2997,-2.3593,-2.419,-2.4199,-2.4199,-2.4199,-2.4199,-2.4199,-2.4199,-2.4199,-2.4199,-2.4199,-2.4199,-2.4199,-2.4199,-2.4199,-2.4199,-2.4199,-2.4199,-2.4142,-2.3967,-2.364,-2.3535,-2.3526,-2.3603,-2.3301,-2.3221,-2.3481,-2.3245,-2.3091,-2.31,-2.2842,-2.2712,-2.2712,-2.2432,-2.231,-2.231,-2.231,-2.231,-2.231,-2.231,-2.231,1.3678,1.5065,1.6593,1.7091,0.0,0.0,0.0,1.9538,0.0,0.0,1.5514,1.1431,0.9329,0.428,0.0,0.1004,-0.1859,-0.4183,-0.433,-0.44,0.0,0.0,0.0,0.0,0.0,0.0,0.0,0.0,0.0,0.0,0.0,-1.1031,-1.1701,-1.2197,-1.282,-1.3278,-1.361,-1.3833,-1.4037,-1.4206,-1.4279,-1.4335,-1.4367,-1.4315,-1.4877,-1.5891,-1.6457,-1.7291,-1.8322,-1.9105,-1.9499,-1.9636,-1.969,-1.9692,-1.9634,-1.9606,-2.0103,-2.0827,-2.1068,-2.1532,-2.208,-2.2588,-2.2404,-2.2042,-2.2284,-2.2143,-2.19,-2.19,-2.2027,-2.2152,-2.2152,-2.2749,-2.3501,-2.407,-2.4199,-2.4199,-2.4199,-2.4199,-2.4199,-2.4199,-2.4199,-2.4199,-2.4199,-2.4199,-2.4199,-2.4199,-2.4199,-2.417,-2.4151,-2.4113,-2.4025,-2.3837,-2.3834,-2.3813,-2.375,-2.3646,-2.3624,-2.3719,-2.3646,-2.3427,-2.3116,-2.3026,-2.2893,-2.2712,-2.2825,-2.2764,-2.2587,-2.2969,-2.3044,-2.2859,-2.2859,-2.2764,1.532,1.6536,1.7786,1.8258,1.9259,1.9972,1.9303,0.0,0.0,0.0,1.2766,1.0042,0.9342,0.3934,0.0,0.0674,-0.1734,-0.3675,-0.3675,-0.3882,0.0,0.0,0.0,0.0,0.0,0.0,0.0,0.0,0.0,0.0,0.0,-1.107,-1.1744,-1.2265,-1.2828,-1.3312,-1.3717,-1.3839,-1.4046,-1.4316,-1.4325,-1.4381,-1.4489,-1.4353,-1.4737,-1.556,-1.6687,-1.7512,-1.8132,-1.9033,-1.949,-1.9623,-1.9686,-1.9665,-1.9592,-1.9592,-1.9908,-2.0363,-2.0687,-2.091,-2.1151,-2.1792,-2.1569,-2.1105,-2.143,-2.1251,-2.0954,-2.0948,-2.1124,-2.1323,-2.1281,-2.2143,-2.3125,-2.3612,-2.3969,-2.4199,-2.4199,-2.4199,-2.4199,-2.4199,-2.4199,-2.4199,-2.4199,-2.4199,-2.4199,-2.4199,-2.4199,-2.418,-2.4122,-2.4074,-2.3996,-2.3795,-2.3783,-2.378,-2.3728,-2.3707,-2.371,-2.3786,-2.3795,-2.368,-2.3391,-2.3307,-2.3182,-2.3019,-2.3084,-2.3035,-2.2876,-2.3182,-2.3253,-2.31,-2.31,-2.3001,1.8251,1.9164,1.9773,2.0081,1.9992,1.9421,1.7928,1.8266,1.766,1.3369,0.0,1.0981,0.4075,0.2792,0.1638,-0.1808,-0.2792,-0.313,-0.311,-0.3449,0.0,0.0,0.0,0.0,0.0,0.0,0.0,0.0,0.0,0.0,0.0,-1.1343,-1.1991,-1.2618,-1.2897,-1.3303,-1.3868,-1.3724,-1.3941,-1.4485,-1.431,-1.4347,-1.4578,-1.4405,-1.4754,-1.561,-1.7158,-1.8009,-1.8378,-1.9101,-1.9569,-1.9785,-1.9722,-1.9665,-1.9592,-1.9592,-1.9597,-1.9713,-2.0442,-2.021,-1.9876,-2.1315,-2.0804,-1.975,-2.0465,-2.0135,-1.9504,-1.9497,-1.9979,-2.0485,-2.0501,-2.1686,-2.2914,-2.2969,-2.3612,-2.4199,-2.4199,-2.4199,-2.4199,-2.4199,-2.4199,-2.4199,-2.4199,-2.4199,-2.4199,-2.4199,-2.419,-2.417,-2.4122,-2.4045,-2.3917,-2.3662,-2.3589,-2.3571,-2.3616,-2.3571,-2.362,-2.3795,-2.3795,-2.3795,-2.3795,-2.3611,-2.3517,-2.3504,-2.3253,-2.3116,-2.31,-2.3116,-2.3116,-2.31,-2.3124,-2.3116,1.6619,1.7374,1.8261,1.895,1.9164,1.8768,1.7128,1.6953,1.6658,1.4984,1.1332,0.7941,0.6306,0.237,-0.0938,-0.1854,-0.2278,-0.2519,-0.2568,0.0,0.0,0.0,0.0,0.0,0.0,0.0,0.0,0.0,0.0,0.0,-0.9894,-1.1109,-1.1887,-1.2128,-1.2916,-1.3426,-1.3663,-1.3996,-1.4202,0.0,-1.4347,-1.4396,-1.4434,-1.4453,-1.4912,-1.5799,-1.6824,-1.7721,-1.8502,-1.9253,-1.9653,-1.9785,-1.9722,-1.9665,-1.9592,-1.9592,-1.9624,-1.9694,-1.982,-1.9843,-1.9868,-2.0057,-1.9926,-1.9703,-1.982,-1.969,-1.9504,-1.9497,-1.9582,-1.9795,-2.0354,-2.1281,-2.2217,-2.2859,-2.3612,-2.4199,-2.4199,-2.4199,-2.4199,-2.4199,-2.4199,-2.4199,-2.4199,-2.4199,-2.4199,-2.4199,-2.4151,-2.4151,-2.417,-2.4065,-2.3976,-2.3917,-2.3905,-2.3864,-2.3762,-2.3783,-2.3804,-2.3795,-2.3795,-2.3795,-2.3795,-2.3753,-2.3655,-2.3495,-2.344,-2.3301,-2.31,-2.3301,-2.3301,-2.31,-2.3324,-2.3301,1.7377,1.8129,1.8805,1.8877,0.0,1.8092,1.6793,1.6232,1.5849,1.5392,1.1591,0.8349,0.8385,0.4427,0.0848,-0.0104,-0.0396,-0.0795,-0.1733,0.0,0.0,0.0,0.0,0.0,0.0,0.0,0.0,0.0,0.0,-0.8818,-0.9613,-1.0839,-1.1687,-1.2077,-1.2854,-1.3368,-1.3606,-1.4065,-1.4331,-1.4402,-1.4396,-1.4425,-1.4497,-1.4501,-1.4768,-1.5266,-1.6112,-1.703,-1.7977,-1.8721,-1.932,-1.9785,-1.9722,-1.9665,-1.9592,-1.9592,-1.9641,-1.9698,-1.9662,-1.9754,-1.9864,-1.9701,-1.9707,-1.9783,-1.9684,-1.9623,-1.96,-1.9601,-1.9522,-1.9531,-1.988,-2.0884,-2.1922,-2.2327,-2.3327,-2.4199,-2.4199,-2.4199,-2.4228,-2.4284,-2.4247,-2.4247,-2.4402,-2.4357,-2.4266,-2.4209,-2.417,-2.4151,-2.4142,-2.4094,-2.4045,-2.3996,-2.3996,-2.3967,-2.3867,-2.3867,-2.3867,-2.3795,-2.3795,-2.3795,-2.3795,-2.3816,-2.3783,-2.3642,-2.3633,-2.358,-2.3436,-2.3589,-2.3558,-2.3436,-2.3589,-2.3567,1.8233,1.9227,1.9732,1.8982,1.8284,0.0,1.6524,1.5777,1.5299,1.5291,1.2491,1.0025,0.9931,0.6993,0.4015,0.2283,0.1994,0.1462,-0.0101,0.0,0.0,0.0,0.0,0.0,0.0,0.0,0.0,0.0,0.0,-0.8204,-0.9143,-1.028,-1.1175,-1.1754,-1.2394,-1.2947,-1.3383,-1.385,-1.4147,-1.4263,-1.4391,-1.4517,-1.4638,-1.4879,-1.4873,-1.4716,-1.5675,-1.6477,-1.7164,-1.7933,-1.8701,-1.9385,-1.9476,-1.9468,-1.9429,-1.9578,-1.9668,-1.9726,-1.9726,-1.9809,-1.9908,-1.9774,-1.983,-1.9908,-1.9783,-1.9738,-1.9726,-1.9732,-1.9632,-1.9567,-1.9791,-2.0816,-2.1876,-2.2161,-2.3226,-2.4199,-2.4199,-2.4199,-2.4238,-2.4338,-2.4275,-2.4294,-2.4603,-2.451,-2.4355,-2.4228,-2.4228,-2.4219,-2.4122,-2.4103,-2.4074,-2.4016,-2.4025,-2.3996,-2.3917,-2.3917,-2.3896,-2.3816,-2.3816,-2.3816,-2.3816,-2.3867,-2.3867,-2.3816,-2.3816,-2.3816,-2.3795,-2.3795,-2.3795,-2.3795,-2.3795,-2.3795,1.6144,1.7969,1.896,0.0,1.7883,1.7395,0.0,0.0,1.5276,0.0,1.2968,1.0801,1.0109,0.763,0.5319,0.4199,0.4017,0.3906,0.3594,0.0,0.0,0.0,0.0,0.0,0.0,0.0,0.0,0.0,-0.5948,-0.6818,-0.7491,-0.8982,-0.9883,-1.0028,-1.0792,-1.1639,-1.2551,-1.2969,-1.3205,-1.3297,-1.4217,-1.4706,-1.4813,-1.6268,-1.6196,-1.5023,-1.6593,-1.6914,-1.6412,-1.7264,-1.7659,-1.7788,-1.8485,-1.8713,-1.8746,-1.9489,-1.9773,-1.9788,-1.9788,-1.9909,-2.005,-1.9928,-1.996,-2.005,-1.9908,-1.9866,-1.9875,-1.9872,-1.9735,-1.9917,-2.1287,-2.1727,-2.2161,-2.3547,-2.4034,-2.4199,-2.4199,-2.4199,-2.4218,-2.4219,-2.4209,-2.4247,-2.4408,-2.4416,-2.4355,-2.4228,-2.4293,-2.4338,-2.42,-2.4151,-2.4103,-2.4094,-2.4094,-2.4065,-2.3996,-2.3996,-2.3967,-2.3896,-2.3896,-2.3896,-2.3896,-2.3896,-2.3896,-2.3896,-2.3896,-2.3867,-2.3795,-2.3795,-2.3795,-2.3795,-2.3795,-2.3795,1.6866,1.8468,1.8975,0.0,1.8157,1.7478,1.625,1.5589,1.5217,1.5167,1.421,1.3001,1.1738,1.0133,0.8319,0.6298,0.6,0.5619,0.0,0.0,0.0,0.0,0.0,0.0,0.0,0.0,0.0,0.0,-0.4584,-0.5538,-0.6741,-0.7939,-0.894,-0.9724,-1.0455,-1.1114,-1.1673,-1.212,-1.2383,-1.2487,-1.2959,-1.3262,-1.3475,-1.5591,-1.6517,-1.6438,-1.7179,-1.7567,-1.7651,-1.7547,-1.7748,-1.8174,-1.8564,-1.8634,-1.8613,-1.952,-1.9858,-1.9855,-1.9811,-1.9909,-2.0031,-1.993,-1.9991,-2.0098,-2.0031,-2.0011,-2.0011,-2.0001,-1.9896,-2.0032,-2.12,-2.176,-2.2325,-2.3524,-2.4143,-2.4479,-2.4479,-2.4321,-2.4199,-2.4199,-2.4358,-2.4445,-2.4321,-2.4347,-2.4355,-2.4228,-2.4302,-2.4381,-2.4321,-2.4284,-2.4275,-2.4275,-2.42,-2.4122,-2.4065,-2.4054,-2.4025,-2.3967,-2.3946,-2.3946,-2.3896,-2.3967,-2.3976,-2.3896,-2.3867,-2.3825,-2.3795,-2.3795,-2.3795,-2.3795,-2.3795,-2.3795,1.6589,0.0,1.885,1.9288,1.8749,1.793,0.0,0.0,1.5505,0.0,1.5192,1.4533,1.2863,1.2068,1.0854,0.8301,0.7897,0.738,0.0,0.0,0.0,0.0,0.0,0.0,0.0,0.0,0.0,0.0,-0.3099,-0.4284,-0.5745,-0.6672,-0.7785,-0.9117,-0.9711,-1.0301,-1.0894,-1.1361,-1.166,-1.1765,-1.2013,-1.2213,-1.2432,-1.471,-1.6281,-1.7225,-1.7634,-1.8061,-1.8421,-1.7783,-1.7755,-1.8118,-1.8409,-1.8422,-1.8405,-1.9312,-1.9779,-1.994,-1.9889,-1.9921,-1.9972,-1.9981,-2.0031,-2.0107,-2.0144,-2.0153,-2.0153,-2.0153,-2.0041,-2.0165,-2.1199,-2.1834,-2.2482,-2.355,-2.4264,-2.4698,-2.4626,-2.4418,-2.4247,-2.4247,-2.4437,-2.4504,-2.4303,-2.4329,-2.4355,-2.4228,-2.4302,-2.4381,-2.4355,-2.4381,-2.4389,-2.4389,-2.4312,-2.4219,-2.4172,-2.4124,-2.4074,-2.4025,-2.4025,-2.3996,-2.3946,-2.4045,-2.4045,-2.3946,-2.3887,-2.3837,-2.3825,-2.3837,-2.3837,-2.3795,-2.3816,-2.3825,1.3383,1.5792,0.0,1.9819,1.9577,1.8926,0.0,0.0,1.6365,1.6097,1.5438,1.4336,1.2468,1.2302,1.1851,1.0048,0.9659,0.9518,0.0,0.0,0.0,0.0,0.0,0.0,0.0,0.0,0.0,0.0,-0.1437,-0.3046,-0.3891,-0.4891,-0.6053,-0.7385,-0.7717,-0.8655,-1.0328,-1.0813,-1.1079,-1.1156,-1.205,-1.2483,-1.2556,-1.427,-1.5532,-1.6453,-1.7975,-1.823,-1.7577,-1.7583,-1.7132,-1.6512,-1.7405,-1.7754,-1.7842,-1.8648,-1.9437,-2.0088,-2.0088,-2.0012,-1.9943,-2.0116,-2.0153,-2.0117,-2.0251,-2.0294,-2.0294,-2.0294,-2.0152,-2.0365,-2.2002,-2.2353,-2.2692,-2.426,-2.4669,-2.4651,-2.4467,-2.4389,-2.4399,-2.4399,-2.4293,-2.4266,-2.4373,-2.4399,-2.4355,-2.4228,-2.4302,-2.4355,-2.4228,-2.4321,-2.4389,-2.4389,-2.4389,-2.4399,-2.4372,-2.422,-2.4094,-2.4103,-2.4094,-2.4094,-2.4094,-2.4103,-2.4103,-2.4094,-2.4016,-2.3967,-2.3887,-2.3967,-2.3917,-2.3795,-2.3876,-2.3867,0.0,0.0,0.0,1.861,1.9126,1.8902,1.8772,1.7449,1.618,1.5949,1.5193,1.4118,1.2633,1.2289,1.1667,0.9867,0.954,0.9484,0.0,0.0,0.0,0.0,0.0,0.0,0.0,0.0,0.0,0.0,0.0,-0.0813,-0.2185,-0.3831,-0.5399,-0.6871,-0.7555,-0.8415,-0.9514,-0.9743,-0.9981,-1.0273,-1.0656,-1.0854,-1.0956,-1.2629,-1.3574,-1.399,-1.624,-1.7345,-1.7517,-1.699,-1.6944,-1.7238,-1.7622,-1.8047,-1.8584,-1.9469,-1.9945,-2.0153,-2.0069,-2.0003,-1.9974,-2.0107,-2.0117,-2.0126,-2.026,-2.0302,-2.0302,-2.0302,-2.0251,-2.0581,-2.2259,-2.2661,-2.3028,-2.465,-2.5028,-2.4968,-2.4761,-2.4645,-2.4584,-2.4584,-2.4545,-2.4547,-2.4584,-2.4493,-2.4381,-2.4338,-2.4373,-2.4425,-2.4513,-2.4561,-2.4584,-2.4584,-2.4476,-2.4373,-2.4284,-2.4219,-2.417,-2.417,-2.417,-2.4142,-2.4094,-2.4142,-2.4142,-2.4094,-2.4122,-2.4065,-2.3967,-2.3946,-2.3917,-2.3867,-2.3837,-2.3816,0.9325,0.0,0.0,0.0,1.9075,1.895,1.9401,1.8134,1.6834,1.6664,1.5621,1.4371,1.3196,1.2513,1.1648,1.0149,0.9683,0.9468,0.0,0.0,0.0,0.0,0.0,0.0,0.0,0.0,0.0,0.0,0.0,0.0,-0.0801,-0.2417,-0.4429,-0.6926,-0.7761,-0.8512,-0.9223,-0.9349,-0.9559,-0.9866,-0.9906,-0.9975,-1.0066,-1.1154,-1.1822,-1.2192,-1.393,-1.5622,-1.7115,-1.6871,-1.6957,-1.727,-1.734,-1.7838,-1.8607,-1.9229,-1.9793,-2.0246,-2.0142,-2.0096,-2.0068,-2.0125,-2.0125,-2.0135,-2.0259,-2.0302,-2.0302,-2.0302,-2.0302,-2.0696,-2.236,-2.3217,-2.3899,-2.4952,-2.5198,-2.5164,-2.5035,-2.4879,-2.4749,-2.4707,-2.4707,-2.4707,-2.4707,-2.4584,-2.451,-2.451,-2.445,-2.445,-2.4584,-2.461,-2.461,-2.461,-2.4484,-2.4373,-2.4266,-2.4275,-2.4275,-2.4275,-2.433,-2.4348,-2.4293,-2.4348,-2.4348,-2.4293,-2.4275,-2.422,-2.4125,-2.4047,-2.3976,-2.3937,-2.3624,-2.3331,0.0,0.0,0.0,0.0,0.0,0.0,2.0823,0.0,1.8316,1.8295,1.6747,1.5085,1.4094,1.2983,1.193,1.1076,1.0249,0.9667,0.0,0.0,0.0,0.0,0.0,0.0,0.0,0.0,0.0,0.0,0.4198,0.2365,0.0331,-0.0621,-0.3055,-0.7331,-0.8092,-0.8764,-0.9465,-0.9682,-0.986,-0.9991,-0.9997,-1.0038,-1.0092,-1.0025,-1.0459,-1.1262,-1.129,-1.3105,-1.6144,-1.716,-1.7121,-1.6414,-1.6471,-1.7026,-1.7804,-1.7804,-1.8896,-2.0344,-2.0296,-2.0242,-2.0201,-2.0201,-2.0159,-2.0133,-2.0259,-2.0302,-2.0302,-2.0302,-2.0302,-2.0696,-2.236,-2.4044,-2.5282,-2.5222,-2.52,-2.5197,-2.5203,-2.5057,-2.4874,-2.4744,-2.4713,-2.4713,-2.4713,-2.4707,-2.4707,-2.4707,-2.4536,-2.4407,-2.4407,-2.4407,-2.4416,-2.4407,-2.4389,-2.4389,-2.4389,-2.4389,-2.4389,-2.4389,-2.4584,-2.4682,-2.4682,-2.4707,-2.4707,-2.4707,-2.451,-2.4389,-2.4389,-2.4257,-2.4113,-2.3941,-2.3205,-2.2364,0.2433,0.0,0.0,0.0,0.0,0.0,0.0,0.0,1.6737,1.7779,1.636,1.4782,1.4409,1.3325,1.2353,1.1909,1.0967,1.003,0.0,0.0,0.0,0.0,0.0,0.0,0.0,0.0,0.0,0.0,0.5407,0.4074,0.3257,0.0472,-0.2069,-0.4207,-0.5984,-0.7503,-0.8771,-0.9363,-0.9729,-0.9859,-1.0002,-1.0058,-1.0033,-1.0059,-1.0183,-1.0397,-1.1082,-1.1862,-1.2766,-1.4319,-1.5549,-1.6471,-1.6489,-1.7026,-1.7804,-1.7804,-1.85,-1.9461,-1.9439,-1.9799,-2.0275,-2.027,-2.0267,-2.0254,-2.0289,-2.03,-2.0302,-2.0302,-2.0302,-2.0696,-2.236,-2.4034,-2.5302,-2.5272,-2.5271,-2.5261,-2.521,-2.5155,-2.5106,-2.5076,-2.5063,-2.5063,-2.5063,-2.4944,-2.4847,-2.4847,-2.47,-2.4626,-2.4626,-2.4626,-2.4568,-2.4416,-2.4389,-2.4355,-2.4257,-2.4266,-2.4266,-2.4266,-2.44,-2.4484,-2.4484,-2.4626,-2.4707,-2.4707,-2.451,-2.4389,-2.4389,-2.4229,-2.3801,-2.3168,-2.2346,-2.1516,0.0101,0.0,0.0,0.0,0.0,0.0,1.5836,1.6157,0.0,0.0,1.6679,1.5452,1.5749,1.4474,1.3264,1.2864,1.1899,1.0799,0.965,0.0,0.0,0.0,0.0,0.0,0.0,0.699,0.7062,0.7005,0.6089,0.5203,0.4441,0.1698,-0.0688,-0.2527,-0.4187,-0.6038,-0.811,-0.8883,-0.9461,-0.984,-0.9933,-0.9998,-1.0034,-1.002,-1.003,-1.0073,-1.062,-1.1047,-1.1451,-1.2834,-1.42,-1.5449,-1.5821,-1.6505,-1.7301,-1.7301,-1.8065,-1.9093,-1.9107,-1.9651,-2.0337,-2.0314,-2.0301,-2.0296,-2.0301,-2.0306,-2.03,-2.0302,-2.0802,-2.1571,-2.2543,-2.4043,-2.5303,-2.5292,-2.5301,-2.5282,-2.5213,-2.52,-2.5197,-2.5205,-2.5203,-2.5201,-2.5201,-2.5103,-2.5032,-2.5032,-2.4893,-2.4784,-2.4784,-2.4734,-2.4651,-2.4536,-2.4536,-2.4469,-2.4303,-2.4366,-2.4366,-2.4284,-2.4444,-2.4536,-2.4536,-2.4651,-2.4707,-2.4707,-2.451,-2.4206,-2.383,-2.3695,-2.3033,-2.1889,-2.1378,-2.0712,-0.1553,-0.0257,0.0,0.0,0.8387,0.0,1.2139,1.469,1.7093,0.0,1.6895,1.6079,1.6902,1.5466,1.3936,1.3241,1.2501,1.1552,1.0174,0.0,0.0,0.0,0.0,0.0,0.6484,0.6429,0.6442,0.6337,0.6398,0.5911,0.4693,0.3152,0.1205,-0.1213,-0.2419,-0.4339,-0.7093,-0.8144,-0.9037,-0.9778,-0.9806,-0.9915,-1.0068,-0.9975,-0.9981,-1.01,-1.0116,-1.055,-1.1341,-1.2313,-1.3189,-1.3999,-1.4872,-1.5719,-1.6464,-1.6464,-1.7455,-1.8838,-1.8925,-1.9535,-2.0263,-2.0305,-2.0308,-2.0311,-2.0316,-2.0311,-2.0296,-2.0292,-2.1445,-2.2695,-2.2782,-2.3908,-2.5072,-2.5264,-2.5225,-2.5177,-2.5194,-2.521,-2.5208,-2.5198,-2.5205,-2.5201,-2.5201,-2.5201,-2.5201,-2.5201,-2.5044,-2.4938,-2.4892,-2.4808,-2.4723,-2.4707,-2.4707,-2.4626,-2.445,-2.461,-2.4601,-2.4407,-2.4516,-2.4604,-2.4657,-2.452,-2.4535,-2.4707,-2.4416,-2.3802,-2.2877,-2.2877,-2.2043,-2.0494,-2.0404,-1.9975,-0.6831,-0.4317,-0.1747,-0.0068,0.0,0.0,1.0302,1.2858,1.5228,0.0,1.3867,1.295,1.3547,1.2744,1.158,1.0257,1.0572,1.0709,0.9954,0.9806,0.0,0.0,0.0,0.0,0.6332,0.6291,0.6396,0.6536,0.6656,0.6513,0.6044,0.5291,0.4343,0.3191,0.0267,-0.2205,-0.4118,-0.6595,-0.8231,-0.9017,-0.9657,-0.9956,-0.9948,-1.002,-1.0082,-1.0101,-1.016,-1.0275,-1.0562,-1.2125,-1.3249,-1.4077,-1.4941,-1.5386,-1.5545,-1.5545,-1.6203,-1.718,-1.7833,-1.866,-1.954,-2.0167,-2.0379,-2.0379,-2.0376,-2.0339,-2.0296,-2.0292,-2.1041,-2.1977,-2.2627,-2.3033,-2.363,-2.4986,-2.4803,-2.4514,-2.5139,-2.5282,-2.5262,-2.5212,-2.5197,-2.5201,-2.5201,-2.5201,-2.5201,-2.5201,-2.5168,-2.5079,-2.4915,-2.4874,-2.4828,-2.4713,-2.4707,-2.4682,-2.4642,-2.4682,-2.4601,-2.4407,-2.408,-2.4058,-2.4439,-2.3423,-2.3426,-2.4679,-2.3875,-2.296,-2.2024,-2.2024,-2.151,-2.0475,-1.9849,-1.9455,-0.9502,-0.7808,-0.6191,-0.5298,0.0,0.0,0.0,0.7843,1.1979,1.2247,1.2694,1.3168,1.3576,1.2337,1.083,0.9606,0.9425,0.9372,0.9079,0.9242,0.0,0.0,0.0,0.0,0.5855,0.6031,0.638,0.6776,0.7023,0.7117,0.705,0.6765,0.6119,0.5074,0.293,0.0941,-0.084,-0.3553,-0.5611,-0.702,-0.8296,-0.9268,-0.995,-1.002,-1.0072,-1.0101,-1.0174,-1.0196,-1.0301,-1.1611,-1.2648,-1.3532,-1.4798,-1.5294,-1.5294,-1.5294,-1.5845,-1.6725,-1.7523,-1.8384,-1.9289,-2.0134,-2.0399,-2.0399,-2.0402,-2.0376,-2.0354,-2.0346,-2.0977,-2.1839,-2.2675,-2.32,-2.3804,-2.5058,-2.5039,-2.4857,-2.5226,-2.5332,-2.5332,-2.5262,-2.5243,-2.5242,-2.5203,-2.5201,-2.5191,-2.5205,-2.5203,-2.5158,-2.5063,-2.5047,-2.5019,-2.4963,-2.4949,-2.4912,-2.4808,-2.4799,-2.4725,-2.4568,-2.4334,-2.4114,-2.3917,-2.3262,-2.3042,-2.3347,-2.3178,-2.2468,-2.1152,-2.1152,-2.0721,-1.9895,-1.9482,-1.9305,0.0,0.0,-1.0334,0.0,0.0,-0.3285,0.0,0.0,0.0,0.7871,0.9516,0.0,0.0,0.0,0.0,0.0,0.0,0.0,0.0,0.7453,0.0,0.0,0.0,0.0,0.5364,0.5804,0.6379,0.695,0.7238,0.7461,0.763,0.7624,0.7193,0.6302,0.5207,0.3868,0.2274,-0.0552,-0.2867,-0.4644,-0.6777,-0.8436,-0.9604,-0.9876,-1.0042,-1.0115,-1.0176,-1.0205,-1.0288,-1.1159,-1.1936,-1.2725,-1.4404,-1.5168,-1.5318,-1.5318,-1.5758,-1.6474,-1.7287,-1.8142,-1.9006,-1.9896,-2.0283,-2.0424,-2.0401,-2.0412,-2.042,-2.0397,-2.0922,-2.1672,-2.2537,-2.3115,-2.3758,-2.4902,-2.5043,-2.5008,-2.5281,-2.5383,-2.54,-2.5351,-2.5339,-2.5301,-2.5217,-2.5193,-2.5205,-2.5198,-2.5206,-2.5205,-2.5198,-2.5195,-2.5203,-2.5203,-2.5201,-2.5125,-2.4964,-2.4951,-2.4907,-2.4759,-2.4458,-2.4029,-2.3425,-2.3232,-2.2699,-2.1764,-2.2275,-2.1876,-2.0494,-2.0338,-1.9941,-1.9305,-1.9305,-1.9305,0.0,0.0,0.0,0.0,-0.7134,0.0,0.0,0.0,0.1651,-0.0218,0.0,0.0,0.0,0.0,0.0,0.0,0.0,0.0,0.1839,0.2788,0.4262,0.0,0.0,0.0,0.0,0.5814,0.6471,0.6971,0.6991,0.7096,0.7417,0.7533,0.7833,0.8342,0.6479,0.5193,0.4618,0.0791,-0.1609,-0.2582,-0.6118,-0.7914,-0.8181,-0.943,-1.0075,-1.0187,-1.0195,-1.0229,-1.036,-1.1229,-1.1615,-1.1823,-1.3561,-1.4714,-1.5395,-1.5395,-1.5415,-1.5569,-1.6445,-1.7311,-1.8179,-1.9046,-1.9861,-2.0481,-2.0422,-2.0438,-2.0477,-2.0422,-2.0515,-2.0819,-2.1643,-2.1342,-2.1415,-2.3784,-2.3793,-2.3677,-2.5159,-2.5486,-2.5489,-2.5479,-2.5479,-2.542,-2.5224,-2.5201,-2.5201,-2.5202,-2.5201,-2.5201,-2.5202,-2.5209,-2.5197,-2.5197,-2.5193,-2.5189,-2.5168,-2.5168,-2.5079,-2.4888,-2.3596,-2.3015,-2.3378,-2.267,-2.1811,-2.0873,-2.0917,-2.0803,-2.0494,-1.9785,-1.9381,-1.9305,-1.9305,-1.9305,0.0,0.0,0.0,0.0,0.0,0.0,-0.9027,0.0,-0.297,0.0,0.0,0.0,0.0,0.0,0.0,0.0,-0.0957,0.0,0.0,0.0,0.1106,0.0,0.0,0.0,0.0,0.0,0.0,0.0,0.7631,0.7744,0.824,0.8375,0.8438,0.8477,0.77,0.7238,0.7148,0.3505,0.0877,-0.0739,-0.4692,-0.7273,-0.8574,-0.9552,-1.0069,-1.0201,-1.0203,-1.0243,-1.0332,-1.0693,-1.1132,-1.1627,-1.2362,-1.3468,-1.4707,-1.5206,-1.5385,-1.5478,-1.6308,-1.6842,-1.7369,-1.8753,-1.9787,-2.0499,-2.0509,-2.0539,-2.0548,-2.0516,-2.0544,-2.0746,-2.1603,-2.1539,-2.1776,-2.3775,-2.3995,-2.4068,-2.5247,-2.5532,-2.5552,-2.5514,-2.5531,-2.5515,-2.5401,-2.531,-2.5274,-2.5303,-2.5254,-2.5202,-2.5252,-2.522,-2.5197,-2.5197,-2.5193,-2.5201,-2.5201,-2.4742,-2.4412,-2.4324,-2.2808,-2.2005,-2.2235,-2.1777,-2.112,-2.0252,-2.0624,-2.0522,-1.9913,-1.9586,-1.9385,-1.9305,-1.9305,-1.9305,-1.3952,0.0,0.0,0.0,0.0,0.0,0.0,0.0,0.0,0.0,0.0,0.0,0.0,0.0,0.0,0.0,0.0,0.0,0.0,0.0,0.0,0.0,0.0,0.0,0.0,0.0,0.0,0.0,0.0,0.8626,0.908,0.9191,0.9142,0.8964,0.8687,0.8481,0.8348,0.519,0.2485,0.0241,-0.3764,-0.6636,-0.8458,-0.9502,-1.0046,-1.0148,-1.0163,-1.0206,-1.0269,-1.027,-1.0654,-1.1235,-1.148,-1.2328,-1.3554,-1.4636,-1.5194,-1.5481,-1.6075,-1.6419,-1.689,-1.8627,-1.9632,-2.0204,-2.0509,-2.0596,-2.0596,-2.0596,-2.0603,-2.0752,-2.1375,-2.154,-2.1895,-2.3312,-2.3813,-2.4196,-2.5021,-2.5418,-2.5541,-2.5255,-2.5432,-2.5541,-2.525,-2.5292,-2.5369,-2.54,-2.5321,-2.5187,-2.4995,-2.5117,-2.5142,-2.4892,-2.5071,-2.5203,-2.5201,-2.4396,-2.3699,-2.3241,-2.2076,-2.1292,-2.1053,-2.0895,-2.0526,-1.9907,-2.0382,-2.027,-1.9553,-1.9522,-1.9453,-1.9356,-1.932,-1.9305,0.0,0.0,0.0,-1.3188,0.0,0.0,0.0,0.0,-1.3535,0.0,0.0,0.0,0.0,0.0,0.0,0.0,0.0,0.0,0.0,0.0,0.0,0.0,0.0,0.0,0.0,0.0,0.0,0.0,0.0,0.0,0.9662,0.9746,1.0044,1.0609,0.9371,0.8287,0.7453,0.4891,0.2396,-0.0033,-0.3805,-0.608,-0.7034,-0.9002,-0.9941,-1.0008,-1.0081,-1.014,-1.0204,-1.0202,-1.0225,-1.0334,-1.1166,-1.1579,-1.1884,-1.3525,-1.4678,-1.54,-1.5434,-1.5948,-1.689,-1.8627,-1.9214,-1.9403,-2.0324,-2.0596,-2.0596,-2.0596,-2.0605,-2.061,-2.0635,-2.0642,-2.0866,-2.1762,-2.2572,-2.3382,-2.4249,-2.51,-2.5451,-2.46,-2.5119,-2.5432,-2.4581,-2.502,-2.5464,-2.5412,-2.5397,-2.5084,-2.4254,-2.4822,-2.4964,-2.4138,-2.4749,-2.5195,-2.5201,-2.4396,-2.3212,-2.1579,-2.1426,-2.1025,-2.0184,-2.0136,-2.0059,-1.9897,-1.9926,-1.9849,-1.9688,-1.9553,-1.9509,-1.9485,-1.9356,-1.9305,0.0,0.0,-1.2942,-1.2932,0.0,0.0,0.0,0.0,0.0,0.0,0.0,0.0,0.0,0.0,0.0,0.0,0.0,0.0,0.0,0.0,0.0,0.0,0.0,0.0,0.0,0.0,0.0,0.0,0.7252,0.0,0.0,1.0498,1.1037,1.0959,1.0176,0.8998,0.7411,0.4964,0.2232,-0.0769,-0.3951,-0.6231,-0.7683,-0.9205,-0.9936,-1.0013,-1.0125,-1.0182,-1.0204,-1.0202,-1.0203,-1.0226,-1.0517,-1.1008,-1.1736,-1.3466,-1.4287,-1.4619,-1.5202,-1.5958,-1.6764,-1.7354,-1.7944,-1.8574,-1.9471,-1.9736,-1.9863,-2.0439,-2.0605,-2.0601,-2.0596,-2.0603,-2.0817,-2.1694,-2.2114,-2.2535,-2.3365,-2.3775,-2.3892,-2.3599,-2.3784,-2.3892,-2.3589,-2.3749,-2.4085,-2.4603,-2.4137,-2.3634,-2.3337,-2.35,-2.3524,-2.318,-2.3857,-2.4111,-2.3527,-2.2715,-2.176,-2.0614,-2.0537,-2.0413,-2.0108,-2.0098,-2.0079,-2.0031,-2.0031,-1.9971,-1.9832,-1.9701,-1.9589,-1.9509,-1.937,-1.9305,-1.2737,-1.2454,0.0,-1.2602,-1.2626,0.0,-1.3717,0.0,0.0,0.0,0.0,0.0,0.0,0.0,0.0,0.0,0.0,0.0,0.0,-0.7756,0.0,0.0,0.0,0.0,0.0,0.0,0.1441,0.3829,0.6457,0.0,0.0,0.0,1.169,1.1494,1.0821,0.9655,0.795,0.5275,0.2286,-0.1023,-0.377,-0.6091,-0.8,-0.9063,-0.9701,-0.9973,-1.0082,-1.0141,-1.0164,-1.0163,-1.0176,-1.0199,-1.0195,-1.0542,-1.1209,-1.2652,-1.3574,-1.4219,-1.5104,-1.577,-1.6288,-1.6598,-1.7083,-1.7753,-1.8908,-1.9279,-1.9482,-2.0332,-2.0575,-2.0601,-2.0596,-2.0603,-2.0739,-2.1296,-2.1665,-2.2036,-2.2564,-2.2896,-2.3023,-2.273,-2.2896,-2.3013,-2.272,-2.2672,-2.2937,-2.3725,-2.3319,-2.2818,-2.2508,-2.2685,-2.2689,-2.2314,-2.2997,-2.3118,-2.2257,-2.1703,-2.1034,-2.0165,-2.0098,-2.0098,-2.0098,-2.0098,-2.0098,-2.0098,-2.0098,-2.0031,-1.9897,-1.9771,-1.9628,-1.9509,-1.937,-1.9305]}]]